<?xml version="1.0" encoding="UTF-8" standalone="no" ?>
<gpx xmlns="http://www.topografix.com/GPX/1/1" xmlns:xsi="http://www.w3.org/2001/XMLSchema-instance" xsi:schemaLocation="http://www.topografix.com/GPX/1/1 http://www.topografix.com/GPX/1/1/gpx.xsd" version="1.1" creator="VisuGPX - https://www.visugpx.com">
  <metadata>
    <name>2020-08-14 15:08:58</name>
    <desc><![CDATA[File with points/tracks from Locus Map/3.37.2]]></desc>
  </metadata>
  <trk>
    <name><![CDATA[2020-08-14 15:08:58]]></name>
    <trkseg>
      <trkpt lat="45.80009" lon="3.20371">
        <ele>375.85</ele>
        <time>2020-08-14T13:08:58.000Z</time>
      </trkpt>
      <trkpt lat="45.8" lon="3.20377">
        <ele>375.79</ele>
        <time>2020-08-14T13:09:08.000Z</time>
      </trkpt>
      <trkpt lat="45.79986" lon="3.20388">
        <ele>375.59</ele>
        <time>2020-08-14T13:09:13.000Z</time>
      </trkpt>
      <trkpt lat="45.79966" lon="3.20403">
        <ele>374.85</ele>
        <time>2020-08-14T13:09:18.000Z</time>
      </trkpt>
      <trkpt lat="45.79944" lon="3.20421">
        <ele>374.3</ele>
        <time>2020-08-14T13:09:23.000Z</time>
      </trkpt>
      <trkpt lat="45.7992" lon="3.20438">
        <ele>373.84</ele>
        <time>2020-08-14T13:09:28.000Z</time>
      </trkpt>
      <trkpt lat="45.79895" lon="3.20457">
        <ele>373.6</ele>
        <time>2020-08-14T13:09:33.000Z</time>
      </trkpt>
      <trkpt lat="45.79868" lon="3.20478">
        <ele>373.18</ele>
        <time>2020-08-14T13:09:38.000Z</time>
      </trkpt>
      <trkpt lat="45.7984" lon="3.20499">
        <ele>372.71</ele>
        <time>2020-08-14T13:09:43.000Z</time>
      </trkpt>
      <trkpt lat="45.79813" lon="3.20522">
        <ele>372.61</ele>
        <time>2020-08-14T13:09:48.000Z</time>
      </trkpt>
      <trkpt lat="45.79792" lon="3.20549">
        <ele>372.75</ele>
        <time>2020-08-14T13:09:53.000Z</time>
      </trkpt>
      <trkpt lat="45.79776" lon="3.20579">
        <ele>373.26</ele>
        <time>2020-08-14T13:09:58.000Z</time>
      </trkpt>
      <trkpt lat="45.79763" lon="3.2061">
        <ele>373.14</ele>
        <time>2020-08-14T13:10:03.000Z</time>
      </trkpt>
      <trkpt lat="45.79753" lon="3.20639">
        <ele>373.1</ele>
        <time>2020-08-14T13:10:08.000Z</time>
      </trkpt>
      <trkpt lat="45.79743" lon="3.20666">
        <ele>373.21</ele>
        <time>2020-08-14T13:10:13.000Z</time>
      </trkpt>
      <trkpt lat="45.79734" lon="3.20691">
        <ele>373.38</ele>
        <time>2020-08-14T13:10:18.000Z</time>
      </trkpt>
      <trkpt lat="45.79726" lon="3.20715">
        <ele>373.41</ele>
        <time>2020-08-14T13:10:23.000Z</time>
      </trkpt>
      <trkpt lat="45.79717" lon="3.20738">
        <ele>373.41</ele>
        <time>2020-08-14T13:10:28.000Z</time>
      </trkpt>
      <trkpt lat="45.79709" lon="3.20759">
        <ele>373.38</ele>
        <time>2020-08-14T13:10:33.000Z</time>
      </trkpt>
      <trkpt lat="45.79701" lon="3.20781">
        <ele>373.35</ele>
        <time>2020-08-14T13:10:38.000Z</time>
      </trkpt>
      <trkpt lat="45.79692" lon="3.20805">
        <ele>373.1</ele>
        <time>2020-08-14T13:10:43.000Z</time>
      </trkpt>
      <trkpt lat="45.79683" lon="3.20829">
        <ele>372.71</ele>
        <time>2020-08-14T13:10:48.000Z</time>
      </trkpt>
      <trkpt lat="45.79673" lon="3.20855">
        <ele>372.35</ele>
        <time>2020-08-14T13:10:53.000Z</time>
      </trkpt>
      <trkpt lat="45.79663" lon="3.20884">
        <ele>372.05</ele>
        <time>2020-08-14T13:10:58.000Z</time>
      </trkpt>
      <trkpt lat="45.79652" lon="3.20915">
        <ele>371.69</ele>
        <time>2020-08-14T13:11:03.000Z</time>
      </trkpt>
      <trkpt lat="45.7964" lon="3.20948">
        <ele>371.18</ele>
        <time>2020-08-14T13:11:08.000Z</time>
      </trkpt>
      <trkpt lat="45.79627" lon="3.20984">
        <ele>371.02</ele>
        <time>2020-08-14T13:11:13.000Z</time>
      </trkpt>
      <trkpt lat="45.79613" lon="3.21022">
        <ele>370.95</ele>
        <time>2020-08-14T13:11:18.000Z</time>
      </trkpt>
      <trkpt lat="45.79598" lon="3.21062">
        <ele>370.72</ele>
        <time>2020-08-14T13:11:23.000Z</time>
      </trkpt>
      <trkpt lat="45.79583" lon="3.21103">
        <ele>370.58</ele>
        <time>2020-08-14T13:11:28.000Z</time>
      </trkpt>
      <trkpt lat="45.79568" lon="3.21144">
        <ele>370.4</ele>
        <time>2020-08-14T13:11:33.000Z</time>
      </trkpt>
      <trkpt lat="45.79553" lon="3.21186">
        <ele>370.52</ele>
        <time>2020-08-14T13:11:38.000Z</time>
      </trkpt>
      <trkpt lat="45.79539" lon="3.21231">
        <ele>370.6</ele>
        <time>2020-08-14T13:11:43.000Z</time>
      </trkpt>
      <trkpt lat="45.79525" lon="3.21275">
        <ele>370.81</ele>
        <time>2020-08-14T13:11:48.000Z</time>
      </trkpt>
      <trkpt lat="45.79513" lon="3.21321">
        <ele>370.77</ele>
        <time>2020-08-14T13:11:53.000Z</time>
      </trkpt>
      <trkpt lat="45.79503" lon="3.2137">
        <ele>370.82</ele>
        <time>2020-08-14T13:11:58.000Z</time>
      </trkpt>
      <trkpt lat="45.79492" lon="3.21418">
        <ele>371.05</ele>
        <time>2020-08-14T13:12:03.000Z</time>
      </trkpt>
      <trkpt lat="45.79486" lon="3.21464">
        <ele>370.89</ele>
        <time>2020-08-14T13:12:08.000Z</time>
      </trkpt>
      <trkpt lat="45.79479" lon="3.21508">
        <ele>370.56</ele>
        <time>2020-08-14T13:12:13.000Z</time>
      </trkpt>
      <trkpt lat="45.79475" lon="3.2155">
        <ele>370.4</ele>
        <time>2020-08-14T13:12:18.000Z</time>
      </trkpt>
      <trkpt lat="45.79471" lon="3.21591">
        <ele>370.21</ele>
        <time>2020-08-14T13:12:23.000Z</time>
      </trkpt>
      <trkpt lat="45.79468" lon="3.21632">
        <ele>370.1</ele>
        <time>2020-08-14T13:12:28.000Z</time>
      </trkpt>
      <trkpt lat="45.79465" lon="3.21672">
        <ele>369.93</ele>
        <time>2020-08-14T13:12:33.000Z</time>
      </trkpt>
      <trkpt lat="45.79461" lon="3.2171">
        <ele>369.75</ele>
        <time>2020-08-14T13:12:38.000Z</time>
      </trkpt>
      <trkpt lat="45.79457" lon="3.21747">
        <ele>369.49</ele>
        <time>2020-08-14T13:12:43.000Z</time>
      </trkpt>
      <trkpt lat="45.79451" lon="3.21783">
        <ele>369.18</ele>
        <time>2020-08-14T13:12:48.000Z</time>
      </trkpt>
      <trkpt lat="45.79447" lon="3.2182">
        <ele>368.98</ele>
        <time>2020-08-14T13:12:53.000Z</time>
      </trkpt>
      <trkpt lat="45.79444" lon="3.21855">
        <ele>368.75</ele>
        <time>2020-08-14T13:12:58.000Z</time>
      </trkpt>
      <trkpt lat="45.7944" lon="3.21889">
        <ele>368.75</ele>
        <time>2020-08-14T13:13:03.000Z</time>
      </trkpt>
      <trkpt lat="45.79435" lon="3.21923">
        <ele>368.88</ele>
        <time>2020-08-14T13:13:08.000Z</time>
      </trkpt>
      <trkpt lat="45.79432" lon="3.21957">
        <ele>368.88</ele>
        <time>2020-08-14T13:13:13.000Z</time>
      </trkpt>
      <trkpt lat="45.79428" lon="3.21992">
        <ele>369.12</ele>
        <time>2020-08-14T13:13:18.000Z</time>
      </trkpt>
      <trkpt lat="45.79424" lon="3.22028">
        <ele>369.24</ele>
        <time>2020-08-14T13:13:23.000Z</time>
      </trkpt>
      <trkpt lat="45.79419" lon="3.22063">
        <ele>369.26</ele>
        <time>2020-08-14T13:13:28.000Z</time>
      </trkpt>
      <trkpt lat="45.79414" lon="3.22098">
        <ele>369.29</ele>
        <time>2020-08-14T13:13:33.000Z</time>
      </trkpt>
      <trkpt lat="45.79408" lon="3.22132">
        <ele>369.36</ele>
        <time>2020-08-14T13:13:38.000Z</time>
      </trkpt>
      <trkpt lat="45.79402" lon="3.22165">
        <ele>369.48</ele>
        <time>2020-08-14T13:13:43.000Z</time>
      </trkpt>
      <trkpt lat="45.79395" lon="3.22199">
        <ele>369.52</ele>
        <time>2020-08-14T13:13:48.000Z</time>
      </trkpt>
      <trkpt lat="45.79388" lon="3.22232">
        <ele>369.58</ele>
        <time>2020-08-14T13:13:53.000Z</time>
      </trkpt>
      <trkpt lat="45.79382" lon="3.22264">
        <ele>369.78</ele>
        <time>2020-08-14T13:13:58.000Z</time>
      </trkpt>
      <trkpt lat="45.79377" lon="3.22296">
        <ele>369.96</ele>
        <time>2020-08-14T13:14:03.000Z</time>
      </trkpt>
      <trkpt lat="45.79372" lon="3.22326">
        <ele>370.08</ele>
        <time>2020-08-14T13:14:08.000Z</time>
      </trkpt>
      <trkpt lat="45.79366" lon="3.22357">
        <ele>370.08</ele>
        <time>2020-08-14T13:14:13.000Z</time>
      </trkpt>
      <trkpt lat="45.7936" lon="3.22388">
        <ele>370.06</ele>
        <time>2020-08-14T13:14:18.000Z</time>
      </trkpt>
      <trkpt lat="45.79354" lon="3.22417">
        <ele>370.22</ele>
        <time>2020-08-14T13:14:23.000Z</time>
      </trkpt>
      <trkpt lat="45.79348" lon="3.22446">
        <ele>370.47</ele>
        <time>2020-08-14T13:14:28.000Z</time>
      </trkpt>
      <trkpt lat="45.79341" lon="3.22474">
        <ele>370.64</ele>
        <time>2020-08-14T13:14:33.000Z</time>
      </trkpt>
      <trkpt lat="45.79335" lon="3.22504">
        <ele>370.68</ele>
        <time>2020-08-14T13:14:38.000Z</time>
      </trkpt>
      <trkpt lat="45.7933" lon="3.22533">
        <ele>370.73</ele>
        <time>2020-08-14T13:14:43.000Z</time>
      </trkpt>
      <trkpt lat="45.79326" lon="3.22561">
        <ele>370.75</ele>
        <time>2020-08-14T13:14:48.000Z</time>
      </trkpt>
      <trkpt lat="45.79323" lon="3.2259">
        <ele>371.04</ele>
        <time>2020-08-14T13:14:53.000Z</time>
      </trkpt>
      <trkpt lat="45.7932" lon="3.22617">
        <ele>371.15</ele>
        <time>2020-08-14T13:14:58.000Z</time>
      </trkpt>
      <trkpt lat="45.7932" lon="3.22641">
        <ele>371.2</ele>
        <time>2020-08-14T13:15:03.000Z</time>
      </trkpt>
      <trkpt lat="45.79311" lon="3.22656">
        <ele>371.27</ele>
        <time>2020-08-14T13:15:08.000Z</time>
      </trkpt>
      <trkpt lat="45.79302" lon="3.22672">
        <ele>371.36</ele>
        <time>2020-08-14T13:15:13.000Z</time>
      </trkpt>
      <trkpt lat="45.79292" lon="3.22687">
        <ele>371.48</ele>
        <time>2020-08-14T13:15:18.000Z</time>
      </trkpt>
      <trkpt lat="45.79274" lon="3.22699">
        <ele>372.46</ele>
        <time>2020-08-14T13:15:23.000Z</time>
      </trkpt>
      <trkpt lat="45.7926" lon="3.22717">
        <ele>373.2</ele>
        <time>2020-08-14T13:15:28.000Z</time>
      </trkpt>
      <trkpt lat="45.79256" lon="3.22744">
        <ele>373.3</ele>
        <time>2020-08-14T13:15:33.000Z</time>
      </trkpt>
      <trkpt lat="45.79254" lon="3.22763">
        <ele>373.31</ele>
        <time>2020-08-14T13:15:38.000Z</time>
      </trkpt>
      <trkpt lat="45.79242" lon="3.2277">
        <ele>373.37</ele>
        <time>2020-08-14T13:15:43.000Z</time>
      </trkpt>
      <trkpt lat="45.79234" lon="3.22749">
        <ele>373.53</ele>
        <time>2020-08-14T13:15:48.000Z</time>
      </trkpt>
      <trkpt lat="45.79233" lon="3.22763">
        <ele>374.13</ele>
        <time>2020-08-14T13:16:03.000Z</time>
      </trkpt>
      <trkpt lat="45.79244" lon="3.22774">
        <ele>374.49</ele>
        <time>2020-08-14T13:16:08.000Z</time>
      </trkpt>
      <trkpt lat="45.7926" lon="3.22777">
        <ele>374.88</ele>
        <time>2020-08-14T13:16:13.000Z</time>
      </trkpt>
      <trkpt lat="45.79275" lon="3.22767">
        <ele>375.29</ele>
        <time>2020-08-14T13:16:18.000Z</time>
      </trkpt>
      <trkpt lat="45.79291" lon="3.22781">
        <ele>377.25</ele>
        <time>2020-08-14T13:16:23.000Z</time>
      </trkpt>
      <trkpt lat="45.793" lon="3.22806">
        <ele>378.39</ele>
        <time>2020-08-14T13:16:28.000Z</time>
      </trkpt>
      <trkpt lat="45.7931" lon="3.22829">
        <ele>378.59</ele>
        <time>2020-08-14T13:16:33.000Z</time>
      </trkpt>
      <trkpt lat="45.7932" lon="3.22847">
        <ele>378.76</ele>
        <time>2020-08-14T13:16:38.000Z</time>
      </trkpt>
      <trkpt lat="45.79332" lon="3.22863">
        <ele>378.96</ele>
        <time>2020-08-14T13:16:43.000Z</time>
      </trkpt>
      <trkpt lat="45.79345" lon="3.22877">
        <ele>379.2</ele>
        <time>2020-08-14T13:16:48.000Z</time>
      </trkpt>
      <trkpt lat="45.79357" lon="3.2289">
        <ele>379.47</ele>
        <time>2020-08-14T13:16:53.000Z</time>
      </trkpt>
      <trkpt lat="45.79368" lon="3.22903">
        <ele>379.76</ele>
        <time>2020-08-14T13:16:58.000Z</time>
      </trkpt>
      <trkpt lat="45.79379" lon="3.22915">
        <ele>380.03</ele>
        <time>2020-08-14T13:17:03.000Z</time>
      </trkpt>
      <trkpt lat="45.79391" lon="3.22928">
        <ele>380.32</ele>
        <time>2020-08-14T13:17:08.000Z</time>
      </trkpt>
      <trkpt lat="45.79402" lon="3.22942">
        <ele>380.6</ele>
        <time>2020-08-14T13:17:13.000Z</time>
      </trkpt>
      <trkpt lat="45.79413" lon="3.22955">
        <ele>380.88</ele>
        <time>2020-08-14T13:17:18.000Z</time>
      </trkpt>
      <trkpt lat="45.79424" lon="3.22966">
        <ele>381.14</ele>
        <time>2020-08-14T13:17:23.000Z</time>
      </trkpt>
      <trkpt lat="45.79433" lon="3.22978">
        <ele>381.39</ele>
        <time>2020-08-14T13:17:28.000Z</time>
      </trkpt>
      <trkpt lat="45.79443" lon="3.22993">
        <ele>381.64</ele>
        <time>2020-08-14T13:17:33.000Z</time>
      </trkpt>
      <trkpt lat="45.79454" lon="3.23005">
        <ele>381.9</ele>
        <time>2020-08-14T13:17:38.000Z</time>
      </trkpt>
      <trkpt lat="45.79465" lon="3.23017">
        <ele>382.14</ele>
        <time>2020-08-14T13:17:43.000Z</time>
      </trkpt>
      <trkpt lat="45.79475" lon="3.23029">
        <ele>382.36</ele>
        <time>2020-08-14T13:17:48.000Z</time>
      </trkpt>
      <trkpt lat="45.79485" lon="3.2304">
        <ele>382.56</ele>
        <time>2020-08-14T13:17:53.000Z</time>
      </trkpt>
      <trkpt lat="45.79495" lon="3.23052">
        <ele>382.73</ele>
        <time>2020-08-14T13:17:57.999Z</time>
      </trkpt>
      <trkpt lat="45.79504" lon="3.23064">
        <ele>382.89</ele>
        <time>2020-08-14T13:18:02.999Z</time>
      </trkpt>
      <trkpt lat="45.79513" lon="3.23075">
        <ele>383.04</ele>
        <time>2020-08-14T13:18:07.999Z</time>
      </trkpt>
      <trkpt lat="45.79523" lon="3.23088">
        <ele>383.19</ele>
        <time>2020-08-14T13:18:12.999Z</time>
      </trkpt>
      <trkpt lat="45.79532" lon="3.23101">
        <ele>383.33</ele>
        <time>2020-08-14T13:18:17.999Z</time>
      </trkpt>
      <trkpt lat="45.79541" lon="3.23114">
        <ele>383.48</ele>
        <time>2020-08-14T13:18:22.999Z</time>
      </trkpt>
      <trkpt lat="45.7955" lon="3.23129">
        <ele>383.62</ele>
        <time>2020-08-14T13:18:27.999Z</time>
      </trkpt>
      <trkpt lat="45.79558" lon="3.23143">
        <ele>383.75</ele>
        <time>2020-08-14T13:18:32.999Z</time>
      </trkpt>
      <trkpt lat="45.79563" lon="3.23157">
        <ele>383.86</ele>
        <time>2020-08-14T13:18:37.999Z</time>
      </trkpt>
      <trkpt lat="45.79566" lon="3.2317">
        <ele>383.97</ele>
        <time>2020-08-14T13:18:42.999Z</time>
      </trkpt>
      <trkpt lat="45.79569" lon="3.23186">
        <ele>384.07</ele>
        <time>2020-08-14T13:18:47.999Z</time>
      </trkpt>
      <trkpt lat="45.79571" lon="3.23202">
        <ele>384.19</ele>
        <time>2020-08-14T13:18:52.999Z</time>
      </trkpt>
      <trkpt lat="45.79574" lon="3.23217">
        <ele>384.32</ele>
        <time>2020-08-14T13:18:57.999Z</time>
      </trkpt>
      <trkpt lat="45.79578" lon="3.23231">
        <ele>384.47</ele>
        <time>2020-08-14T13:19:03.999Z</time>
      </trkpt>
      <trkpt lat="45.7958" lon="3.23246">
        <ele>384.63</ele>
        <time>2020-08-14T13:19:09.999Z</time>
      </trkpt>
      <trkpt lat="45.79583" lon="3.23262">
        <ele>384.76</ele>
        <time>2020-08-14T13:19:14.999Z</time>
      </trkpt>
      <trkpt lat="45.79587" lon="3.23279">
        <ele>384.9</ele>
        <time>2020-08-14T13:19:19.999Z</time>
      </trkpt>
      <trkpt lat="45.79591" lon="3.23296">
        <ele>385.02</ele>
        <time>2020-08-14T13:19:24.999Z</time>
      </trkpt>
      <trkpt lat="45.79595" lon="3.23313">
        <ele>385.13</ele>
        <time>2020-08-14T13:19:29.999Z</time>
      </trkpt>
      <trkpt lat="45.79599" lon="3.2333">
        <ele>385.24</ele>
        <time>2020-08-14T13:19:34.999Z</time>
      </trkpt>
      <trkpt lat="45.79604" lon="3.2335">
        <ele>385.34</ele>
        <time>2020-08-14T13:19:39.999Z</time>
      </trkpt>
      <trkpt lat="45.7961" lon="3.23366">
        <ele>385.43</ele>
        <time>2020-08-14T13:19:44.999Z</time>
      </trkpt>
      <trkpt lat="45.79615" lon="3.23386">
        <ele>385.52</ele>
        <time>2020-08-14T13:19:49.999Z</time>
      </trkpt>
      <trkpt lat="45.79621" lon="3.23406">
        <ele>385.6</ele>
        <time>2020-08-14T13:19:54.999Z</time>
      </trkpt>
      <trkpt lat="45.79627" lon="3.23427">
        <ele>385.68</ele>
        <time>2020-08-14T13:19:59.999Z</time>
      </trkpt>
      <trkpt lat="45.79633" lon="3.23448">
        <ele>385.76</ele>
        <time>2020-08-14T13:20:04.999Z</time>
      </trkpt>
      <trkpt lat="45.7964" lon="3.23474">
        <ele>386.16</ele>
        <time>2020-08-14T13:20:09.999Z</time>
      </trkpt>
      <trkpt lat="45.79648" lon="3.23502">
        <ele>386.35</ele>
        <time>2020-08-14T13:20:14.999Z</time>
      </trkpt>
      <trkpt lat="45.79657" lon="3.23533">
        <ele>386.39</ele>
        <time>2020-08-14T13:20:19.999Z</time>
      </trkpt>
      <trkpt lat="45.79664" lon="3.23558">
        <ele>386.35</ele>
        <time>2020-08-14T13:20:24.999Z</time>
      </trkpt>
      <trkpt lat="45.79673" lon="3.23588">
        <ele>386.32</ele>
        <time>2020-08-14T13:20:29.999Z</time>
      </trkpt>
      <trkpt lat="45.79682" lon="3.2362">
        <ele>386.28</ele>
        <time>2020-08-14T13:20:34.999Z</time>
      </trkpt>
      <trkpt lat="45.79692" lon="3.23651">
        <ele>386.22</ele>
        <time>2020-08-14T13:20:39.999Z</time>
      </trkpt>
      <trkpt lat="45.79701" lon="3.23685">
        <ele>386.15</ele>
        <time>2020-08-14T13:20:44.999Z</time>
      </trkpt>
      <trkpt lat="45.79712" lon="3.23722">
        <ele>386.08</ele>
        <time>2020-08-14T13:20:49.999Z</time>
      </trkpt>
      <trkpt lat="45.79724" lon="3.23761">
        <ele>386.03</ele>
        <time>2020-08-14T13:20:54.999Z</time>
      </trkpt>
      <trkpt lat="45.79737" lon="3.23802">
        <ele>386.01</ele>
        <time>2020-08-14T13:20:59.999Z</time>
      </trkpt>
      <trkpt lat="45.79751" lon="3.23849">
        <ele>385.9</ele>
        <time>2020-08-14T13:21:04.999Z</time>
      </trkpt>
      <trkpt lat="45.79765" lon="3.23895">
        <ele>385.62</ele>
        <time>2020-08-14T13:21:09.999Z</time>
      </trkpt>
      <trkpt lat="45.79779" lon="3.23942">
        <ele>385.19</ele>
        <time>2020-08-14T13:21:14.999Z</time>
      </trkpt>
      <trkpt lat="45.79794" lon="3.23991">
        <ele>384.71</ele>
        <time>2020-08-14T13:21:19.999Z</time>
      </trkpt>
      <trkpt lat="45.79809" lon="3.2404">
        <ele>384.34</ele>
        <time>2020-08-14T13:21:24.999Z</time>
      </trkpt>
      <trkpt lat="45.79822" lon="3.24085">
        <ele>384.24</ele>
        <time>2020-08-14T13:21:29.999Z</time>
      </trkpt>
      <trkpt lat="45.79833" lon="3.24125">
        <ele>384.27</ele>
        <time>2020-08-14T13:21:34.999Z</time>
      </trkpt>
      <trkpt lat="45.79843" lon="3.24155">
        <ele>384.36</ele>
        <time>2020-08-14T13:21:39.999Z</time>
      </trkpt>
      <trkpt lat="45.7985" lon="3.24182">
        <ele>384.41</ele>
        <time>2020-08-14T13:21:44.999Z</time>
      </trkpt>
      <trkpt lat="45.79856" lon="3.24206">
        <ele>384.32</ele>
        <time>2020-08-14T13:21:49.999Z</time>
      </trkpt>
      <trkpt lat="45.79861" lon="3.24228">
        <ele>384.27</ele>
        <time>2020-08-14T13:21:54.999Z</time>
      </trkpt>
      <trkpt lat="45.79866" lon="3.24248">
        <ele>384.27</ele>
        <time>2020-08-14T13:21:59.999Z</time>
      </trkpt>
      <trkpt lat="45.79872" lon="3.24267">
        <ele>384.3</ele>
        <time>2020-08-14T13:22:04.999Z</time>
      </trkpt>
      <trkpt lat="45.79877" lon="3.24287">
        <ele>384.33</ele>
        <time>2020-08-14T13:22:09.999Z</time>
      </trkpt>
      <trkpt lat="45.79883" lon="3.24308">
        <ele>384.4</ele>
        <time>2020-08-14T13:22:14.999Z</time>
      </trkpt>
      <trkpt lat="45.79889" lon="3.24326">
        <ele>384.54</ele>
        <time>2020-08-14T13:22:19.999Z</time>
      </trkpt>
      <trkpt lat="45.79895" lon="3.24347">
        <ele>384.74</ele>
        <time>2020-08-14T13:22:24.999Z</time>
      </trkpt>
      <trkpt lat="45.79901" lon="3.24366">
        <ele>384.95</ele>
        <time>2020-08-14T13:22:29.999Z</time>
      </trkpt>
      <trkpt lat="45.79907" lon="3.24387">
        <ele>385.16</ele>
        <time>2020-08-14T13:22:34.999Z</time>
      </trkpt>
      <trkpt lat="45.7991" lon="3.2441">
        <ele>385.37</ele>
        <time>2020-08-14T13:22:39.999Z</time>
      </trkpt>
      <trkpt lat="45.79911" lon="3.24435">
        <ele>385.54</ele>
        <time>2020-08-14T13:22:44.999Z</time>
      </trkpt>
      <trkpt lat="45.79912" lon="3.24461">
        <ele>385.8</ele>
        <time>2020-08-14T13:22:49.999Z</time>
      </trkpt>
      <trkpt lat="45.79914" lon="3.24485">
        <ele>387.24</ele>
        <time>2020-08-14T13:22:54.999Z</time>
      </trkpt>
      <trkpt lat="45.79916" lon="3.24515">
        <ele>388.61</ele>
        <time>2020-08-14T13:22:59.999Z</time>
      </trkpt>
      <trkpt lat="45.79918" lon="3.24544">
        <ele>389.43</ele>
        <time>2020-08-14T13:23:04.999Z</time>
      </trkpt>
      <trkpt lat="45.79919" lon="3.24575">
        <ele>389.96</ele>
        <time>2020-08-14T13:23:09.999Z</time>
      </trkpt>
      <trkpt lat="45.79922" lon="3.24611">
        <ele>390.29</ele>
        <time>2020-08-14T13:23:14.999Z</time>
      </trkpt>
      <trkpt lat="45.79925" lon="3.24644">
        <ele>390.62</ele>
        <time>2020-08-14T13:23:19.999Z</time>
      </trkpt>
      <trkpt lat="45.79927" lon="3.24675">
        <ele>390.98</ele>
        <time>2020-08-14T13:23:24.999Z</time>
      </trkpt>
      <trkpt lat="45.7993" lon="3.24703">
        <ele>391.13</ele>
        <time>2020-08-14T13:23:29.999Z</time>
      </trkpt>
      <trkpt lat="45.79932" lon="3.24733">
        <ele>391.21</ele>
        <time>2020-08-14T13:23:34.999Z</time>
      </trkpt>
      <trkpt lat="45.79935" lon="3.24763">
        <ele>391.52</ele>
        <time>2020-08-14T13:23:39.999Z</time>
      </trkpt>
      <trkpt lat="45.79938" lon="3.24796">
        <ele>392.14</ele>
        <time>2020-08-14T13:23:44.999Z</time>
      </trkpt>
      <trkpt lat="45.7994" lon="3.24828">
        <ele>392.09</ele>
        <time>2020-08-14T13:23:49.999Z</time>
      </trkpt>
      <trkpt lat="45.79943" lon="3.24858">
        <ele>391.84</ele>
        <time>2020-08-14T13:23:54.999Z</time>
      </trkpt>
      <trkpt lat="45.79947" lon="3.24889">
        <ele>391.58</ele>
        <time>2020-08-14T13:23:59.999Z</time>
      </trkpt>
      <trkpt lat="45.79952" lon="3.24932">
        <ele>391.52</ele>
        <time>2020-08-14T13:24:04.999Z</time>
      </trkpt>
      <trkpt lat="45.79957" lon="3.2498">
        <ele>391.7</ele>
        <time>2020-08-14T13:24:09.999Z</time>
      </trkpt>
      <trkpt lat="45.79965" lon="3.25031">
        <ele>391.62</ele>
        <time>2020-08-14T13:24:14.999Z</time>
      </trkpt>
      <trkpt lat="45.79968" lon="3.25081">
        <ele>391.27</ele>
        <time>2020-08-14T13:24:19.999Z</time>
      </trkpt>
      <trkpt lat="45.79975" lon="3.25138">
        <ele>391.26</ele>
        <time>2020-08-14T13:24:24.999Z</time>
      </trkpt>
      <trkpt lat="45.79963" lon="3.25195">
        <ele>391.07</ele>
        <time>2020-08-14T13:24:29.999Z</time>
      </trkpt>
      <trkpt lat="45.7995" lon="3.25254">
        <ele>390.82</ele>
        <time>2020-08-14T13:24:34.999Z</time>
      </trkpt>
      <trkpt lat="45.79939" lon="3.25313">
        <ele>390.53</ele>
        <time>2020-08-14T13:24:39.999Z</time>
      </trkpt>
      <trkpt lat="45.79934" lon="3.25373">
        <ele>390.06</ele>
        <time>2020-08-14T13:24:44.999Z</time>
      </trkpt>
      <trkpt lat="45.79923" lon="3.25435">
        <ele>389.3</ele>
        <time>2020-08-14T13:24:49.999Z</time>
      </trkpt>
      <trkpt lat="45.79913" lon="3.25494">
        <ele>388.06</ele>
        <time>2020-08-14T13:24:54.999Z</time>
      </trkpt>
      <trkpt lat="45.799" lon="3.25553">
        <ele>387.02</ele>
        <time>2020-08-14T13:24:59.999Z</time>
      </trkpt>
      <trkpt lat="45.7989" lon="3.25613">
        <ele>386.26</ele>
        <time>2020-08-14T13:25:04.999Z</time>
      </trkpt>
      <trkpt lat="45.79882" lon="3.25672">
        <ele>385.28</ele>
        <time>2020-08-14T13:25:09.999Z</time>
      </trkpt>
      <trkpt lat="45.79869" lon="3.25732">
        <ele>383.93</ele>
        <time>2020-08-14T13:25:14.999Z</time>
      </trkpt>
      <trkpt lat="45.79858" lon="3.25789">
        <ele>382.86</ele>
        <time>2020-08-14T13:25:19.999Z</time>
      </trkpt>
      <trkpt lat="45.79844" lon="3.2583">
        <ele>382.3</ele>
        <time>2020-08-14T13:25:24.999Z</time>
      </trkpt>
      <trkpt lat="45.79818" lon="3.25844">
        <ele>381.91</ele>
        <time>2020-08-14T13:25:29.999Z</time>
      </trkpt>
      <trkpt lat="45.79786" lon="3.25846">
        <ele>380.98</ele>
        <time>2020-08-14T13:25:34.999Z</time>
      </trkpt>
      <trkpt lat="45.79748" lon="3.25851">
        <ele>380</ele>
        <time>2020-08-14T13:25:39.999Z</time>
      </trkpt>
      <trkpt lat="45.79708" lon="3.25851">
        <ele>379.74</ele>
        <time>2020-08-14T13:25:44.999Z</time>
      </trkpt>
      <trkpt lat="45.79672" lon="3.25848">
        <ele>379.39</ele>
        <time>2020-08-14T13:25:49.999Z</time>
      </trkpt>
      <trkpt lat="45.7964" lon="3.25846">
        <ele>378.48</ele>
        <time>2020-08-14T13:25:54.999Z</time>
      </trkpt>
      <trkpt lat="45.79611" lon="3.25845">
        <ele>377.71</ele>
        <time>2020-08-14T13:25:59.999Z</time>
      </trkpt>
      <trkpt lat="45.79584" lon="3.25844">
        <ele>376.95</ele>
        <time>2020-08-14T13:26:04.999Z</time>
      </trkpt>
      <trkpt lat="45.79559" lon="3.25844">
        <ele>376.29</ele>
        <time>2020-08-14T13:26:09.999Z</time>
      </trkpt>
      <trkpt lat="45.79533" lon="3.25843">
        <ele>375.89</ele>
        <time>2020-08-14T13:26:14.999Z</time>
      </trkpt>
      <trkpt lat="45.79503" lon="3.25841">
        <ele>374.74</ele>
        <time>2020-08-14T13:26:19.999Z</time>
      </trkpt>
      <trkpt lat="45.79471" lon="3.25836">
        <ele>373.35</ele>
        <time>2020-08-14T13:26:24.999Z</time>
      </trkpt>
      <trkpt lat="45.79442" lon="3.25836">
        <ele>372.09</ele>
        <time>2020-08-14T13:26:29.999Z</time>
      </trkpt>
      <trkpt lat="45.79418" lon="3.25846">
        <ele>371.08</ele>
        <time>2020-08-14T13:26:34.999Z</time>
      </trkpt>
      <trkpt lat="45.79398" lon="3.25869">
        <ele>370.49</ele>
        <time>2020-08-14T13:26:39.999Z</time>
      </trkpt>
      <trkpt lat="45.79378" lon="3.25896">
        <ele>370.22</ele>
        <time>2020-08-14T13:26:44.999Z</time>
      </trkpt>
      <trkpt lat="45.7936" lon="3.25921">
        <ele>369.95</ele>
        <time>2020-08-14T13:26:49.999Z</time>
      </trkpt>
      <trkpt lat="45.79344" lon="3.25946">
        <ele>369.81</ele>
        <time>2020-08-14T13:26:54.999Z</time>
      </trkpt>
      <trkpt lat="45.79329" lon="3.25967">
        <ele>369.69</ele>
        <time>2020-08-14T13:26:59.999Z</time>
      </trkpt>
      <trkpt lat="45.79315" lon="3.25986">
        <ele>369.76</ele>
        <time>2020-08-14T13:27:04.999Z</time>
      </trkpt>
      <trkpt lat="45.79303" lon="3.26005">
        <ele>370.22</ele>
        <time>2020-08-14T13:27:09.999Z</time>
      </trkpt>
      <trkpt lat="45.7929" lon="3.26022">
        <ele>370.26</ele>
        <time>2020-08-14T13:27:14.999Z</time>
      </trkpt>
      <trkpt lat="45.79278" lon="3.2604">
        <ele>370.3</ele>
        <time>2020-08-14T13:27:19.999Z</time>
      </trkpt>
      <trkpt lat="45.79265" lon="3.26058">
        <ele>370.3</ele>
        <time>2020-08-14T13:27:24.999Z</time>
      </trkpt>
      <trkpt lat="45.79253" lon="3.26073">
        <ele>370.32</ele>
        <time>2020-08-14T13:27:29.999Z</time>
      </trkpt>
      <trkpt lat="45.79242" lon="3.26088">
        <ele>370.33</ele>
        <time>2020-08-14T13:27:34.999Z</time>
      </trkpt>
      <trkpt lat="45.79231" lon="3.26104">
        <ele>370.34</ele>
        <time>2020-08-14T13:27:39.999Z</time>
      </trkpt>
      <trkpt lat="45.79219" lon="3.2612">
        <ele>370.39</ele>
        <time>2020-08-14T13:27:44.999Z</time>
      </trkpt>
      <trkpt lat="45.79211" lon="3.26132">
        <ele>370.46</ele>
        <time>2020-08-14T13:27:49.999Z</time>
      </trkpt>
      <trkpt lat="45.79202" lon="3.26143">
        <ele>370.55</ele>
        <time>2020-08-14T13:27:54.999Z</time>
      </trkpt>
      <trkpt lat="45.79193" lon="3.26157">
        <ele>370.65</ele>
        <time>2020-08-14T13:27:59.999Z</time>
      </trkpt>
      <trkpt lat="45.79181" lon="3.26174">
        <ele>370.74</ele>
        <time>2020-08-14T13:28:04.999Z</time>
      </trkpt>
      <trkpt lat="45.79169" lon="3.26192">
        <ele>370.86</ele>
        <time>2020-08-14T13:28:09.999Z</time>
      </trkpt>
      <trkpt lat="45.79155" lon="3.2621">
        <ele>371.09</ele>
        <time>2020-08-14T13:28:14.999Z</time>
      </trkpt>
      <trkpt lat="45.7914" lon="3.26233">
        <ele>371.61</ele>
        <time>2020-08-14T13:28:19.999Z</time>
      </trkpt>
      <trkpt lat="45.79126" lon="3.26255">
        <ele>371.51</ele>
        <time>2020-08-14T13:28:24.999Z</time>
      </trkpt>
      <trkpt lat="45.79111" lon="3.26279">
        <ele>371.37</ele>
        <time>2020-08-14T13:28:29.999Z</time>
      </trkpt>
      <trkpt lat="45.79094" lon="3.26303">
        <ele>371.35</ele>
        <time>2020-08-14T13:28:34.999Z</time>
      </trkpt>
      <trkpt lat="45.79077" lon="3.26327">
        <ele>371.29</ele>
        <time>2020-08-14T13:28:39.999Z</time>
      </trkpt>
      <trkpt lat="45.7906" lon="3.26351">
        <ele>371.22</ele>
        <time>2020-08-14T13:28:44.999Z</time>
      </trkpt>
      <trkpt lat="45.79042" lon="3.26376">
        <ele>371.03</ele>
        <time>2020-08-14T13:28:49.999Z</time>
      </trkpt>
      <trkpt lat="45.79025" lon="3.26399">
        <ele>370.86</ele>
        <time>2020-08-14T13:28:54.999Z</time>
      </trkpt>
      <trkpt lat="45.79006" lon="3.26424">
        <ele>370.76</ele>
        <time>2020-08-14T13:28:59.999Z</time>
      </trkpt>
      <trkpt lat="45.78989" lon="3.2645">
        <ele>370.83</ele>
        <time>2020-08-14T13:29:04.999Z</time>
      </trkpt>
      <trkpt lat="45.78971" lon="3.26475">
        <ele>370.93</ele>
        <time>2020-08-14T13:29:09.999Z</time>
      </trkpt>
      <trkpt lat="45.78954" lon="3.265">
        <ele>371.16</ele>
        <time>2020-08-14T13:29:14.999Z</time>
      </trkpt>
      <trkpt lat="45.78935" lon="3.26525">
        <ele>371.24</ele>
        <time>2020-08-14T13:29:19.999Z</time>
      </trkpt>
      <trkpt lat="45.78915" lon="3.2655">
        <ele>370.95</ele>
        <time>2020-08-14T13:29:24.999Z</time>
      </trkpt>
      <trkpt lat="45.78896" lon="3.26574">
        <ele>370.56</ele>
        <time>2020-08-14T13:29:29.999Z</time>
      </trkpt>
      <trkpt lat="45.78878" lon="3.26593">
        <ele>370.26</ele>
        <time>2020-08-14T13:29:34.999Z</time>
      </trkpt>
      <trkpt lat="45.78857" lon="3.26609">
        <ele>370.14</ele>
        <time>2020-08-14T13:29:39.999Z</time>
      </trkpt>
      <trkpt lat="45.78829" lon="3.26606">
        <ele>369.77</ele>
        <time>2020-08-14T13:29:44.999Z</time>
      </trkpt>
      <trkpt lat="45.78811" lon="3.26626">
        <ele>369.49</ele>
        <time>2020-08-14T13:29:49.999Z</time>
      </trkpt>
      <trkpt lat="45.7882" lon="3.26659">
        <ele>369.41</ele>
        <time>2020-08-14T13:29:54.999Z</time>
      </trkpt>
      <trkpt lat="45.78822" lon="3.26686">
        <ele>369.43</ele>
        <time>2020-08-14T13:29:59.000Z</time>
      </trkpt>
      <trkpt lat="45.7882" lon="3.26725">
        <ele>369.67</ele>
        <time>2020-08-14T13:30:04.000Z</time>
      </trkpt>
      <trkpt lat="45.78815" lon="3.26762">
        <ele>369.93</ele>
        <time>2020-08-14T13:30:09.000Z</time>
      </trkpt>
      <trkpt lat="45.78808" lon="3.26794">
        <ele>370.17</ele>
        <time>2020-08-14T13:30:14.000Z</time>
      </trkpt>
      <trkpt lat="45.788" lon="3.26824">
        <ele>370.37</ele>
        <time>2020-08-14T13:30:19.000Z</time>
      </trkpt>
      <trkpt lat="45.78792" lon="3.26854">
        <ele>370.8</ele>
        <time>2020-08-14T13:30:24.000Z</time>
      </trkpt>
      <trkpt lat="45.78784" lon="3.26882">
        <ele>371.04</ele>
        <time>2020-08-14T13:30:29.000Z</time>
      </trkpt>
      <trkpt lat="45.78778" lon="3.26908">
        <ele>371.11</ele>
        <time>2020-08-14T13:30:34.000Z</time>
      </trkpt>
      <trkpt lat="45.78771" lon="3.26933">
        <ele>371.16</ele>
        <time>2020-08-14T13:30:39.000Z</time>
      </trkpt>
      <trkpt lat="45.78766" lon="3.26953">
        <ele>371.19</ele>
        <time>2020-08-14T13:30:44.000Z</time>
      </trkpt>
      <trkpt lat="45.78762" lon="3.26973">
        <ele>371.21</ele>
        <time>2020-08-14T13:30:49.000Z</time>
      </trkpt>
      <trkpt lat="45.78757" lon="3.26995">
        <ele>371.21</ele>
        <time>2020-08-14T13:30:54.000Z</time>
      </trkpt>
      <trkpt lat="45.78752" lon="3.27018">
        <ele>371.19</ele>
        <time>2020-08-14T13:30:59.000Z</time>
      </trkpt>
      <trkpt lat="45.78746" lon="3.2704">
        <ele>371.2</ele>
        <time>2020-08-14T13:31:04.000Z</time>
      </trkpt>
      <trkpt lat="45.78741" lon="3.27063">
        <ele>371.2</ele>
        <time>2020-08-14T13:31:09.000Z</time>
      </trkpt>
      <trkpt lat="45.78735" lon="3.27087">
        <ele>371.2</ele>
        <time>2020-08-14T13:31:14.000Z</time>
      </trkpt>
      <trkpt lat="45.78728" lon="3.27112">
        <ele>371.43</ele>
        <time>2020-08-14T13:31:19.000Z</time>
      </trkpt>
      <trkpt lat="45.78721" lon="3.27141">
        <ele>371.45</ele>
        <time>2020-08-14T13:31:24.000Z</time>
      </trkpt>
      <trkpt lat="45.78714" lon="3.2717">
        <ele>371.39</ele>
        <time>2020-08-14T13:31:29.000Z</time>
      </trkpt>
      <trkpt lat="45.78705" lon="3.272">
        <ele>371.31</ele>
        <time>2020-08-14T13:31:34.000Z</time>
      </trkpt>
      <trkpt lat="45.78696" lon="3.2723">
        <ele>371.73</ele>
        <time>2020-08-14T13:31:39.000Z</time>
      </trkpt>
      <trkpt lat="45.78689" lon="3.27256">
        <ele>372.23</ele>
        <time>2020-08-14T13:31:44.000Z</time>
      </trkpt>
      <trkpt lat="45.78683" lon="3.27281">
        <ele>372.63</ele>
        <time>2020-08-14T13:31:49.000Z</time>
      </trkpt>
      <trkpt lat="45.78677" lon="3.27307">
        <ele>372.67</ele>
        <time>2020-08-14T13:31:54.000Z</time>
      </trkpt>
      <trkpt lat="45.78671" lon="3.27338">
        <ele>372.55</ele>
        <time>2020-08-14T13:31:59.000Z</time>
      </trkpt>
      <trkpt lat="45.78666" lon="3.27376">
        <ele>372.51</ele>
        <time>2020-08-14T13:32:04.000Z</time>
      </trkpt>
      <trkpt lat="45.78663" lon="3.27417">
        <ele>372.52</ele>
        <time>2020-08-14T13:32:09.000Z</time>
      </trkpt>
      <trkpt lat="45.7866" lon="3.27464">
        <ele>372.68</ele>
        <time>2020-08-14T13:32:14.000Z</time>
      </trkpt>
      <trkpt lat="45.78657" lon="3.27512">
        <ele>372.77</ele>
        <time>2020-08-14T13:32:19.000Z</time>
      </trkpt>
      <trkpt lat="45.78655" lon="3.27562">
        <ele>372.67</ele>
        <time>2020-08-14T13:32:24.000Z</time>
      </trkpt>
      <trkpt lat="45.78652" lon="3.27615">
        <ele>372.52</ele>
        <time>2020-08-14T13:32:29.000Z</time>
      </trkpt>
      <trkpt lat="45.7865" lon="3.27667">
        <ele>372.35</ele>
        <time>2020-08-14T13:32:34.000Z</time>
      </trkpt>
      <trkpt lat="45.78649" lon="3.27719">
        <ele>371.95</ele>
        <time>2020-08-14T13:32:39.000Z</time>
      </trkpt>
      <trkpt lat="45.78646" lon="3.2777">
        <ele>371.4</ele>
        <time>2020-08-14T13:32:44.000Z</time>
      </trkpt>
      <trkpt lat="45.78644" lon="3.27819">
        <ele>370.78</ele>
        <time>2020-08-14T13:32:49.000Z</time>
      </trkpt>
      <trkpt lat="45.78642" lon="3.27865">
        <ele>370.25</ele>
        <time>2020-08-14T13:32:54.000Z</time>
      </trkpt>
      <trkpt lat="45.78639" lon="3.2791">
        <ele>369.85</ele>
        <time>2020-08-14T13:32:59.000Z</time>
      </trkpt>
      <trkpt lat="45.78637" lon="3.27955">
        <ele>369.49</ele>
        <time>2020-08-14T13:33:04.000Z</time>
      </trkpt>
      <trkpt lat="45.78633" lon="3.27998">
        <ele>369.33</ele>
        <time>2020-08-14T13:33:09.000Z</time>
      </trkpt>
      <trkpt lat="45.7863" lon="3.28037">
        <ele>369.42</ele>
        <time>2020-08-14T13:33:14.000Z</time>
      </trkpt>
      <trkpt lat="45.7863" lon="3.28073">
        <ele>369.67</ele>
        <time>2020-08-14T13:33:19.000Z</time>
      </trkpt>
      <trkpt lat="45.78626" lon="3.28108">
        <ele>370.57</ele>
        <time>2020-08-14T13:33:24.000Z</time>
      </trkpt>
      <trkpt lat="45.78626" lon="3.28143">
        <ele>371.54</ele>
        <time>2020-08-14T13:33:29.000Z</time>
      </trkpt>
      <trkpt lat="45.78625" lon="3.2818">
        <ele>371.48</ele>
        <time>2020-08-14T13:33:34.000Z</time>
      </trkpt>
      <trkpt lat="45.78624" lon="3.28214">
        <ele>371.41</ele>
        <time>2020-08-14T13:33:39.000Z</time>
      </trkpt>
      <trkpt lat="45.78622" lon="3.28246">
        <ele>371.17</ele>
        <time>2020-08-14T13:33:44.000Z</time>
      </trkpt>
      <trkpt lat="45.78619" lon="3.28282">
        <ele>370.77</ele>
        <time>2020-08-14T13:33:49.000Z</time>
      </trkpt>
      <trkpt lat="45.78616" lon="3.28314">
        <ele>370.19</ele>
        <time>2020-08-14T13:33:54.000Z</time>
      </trkpt>
      <trkpt lat="45.78615" lon="3.28342">
        <ele>370.08</ele>
        <time>2020-08-14T13:33:59.000Z</time>
      </trkpt>
      <trkpt lat="45.78615" lon="3.28375">
        <ele>370.11</ele>
        <time>2020-08-14T13:34:04.000Z</time>
      </trkpt>
      <trkpt lat="45.78614" lon="3.28411">
        <ele>370.04</ele>
        <time>2020-08-14T13:34:09.000Z</time>
      </trkpt>
      <trkpt lat="45.78611" lon="3.28444">
        <ele>369.68</ele>
        <time>2020-08-14T13:34:14.000Z</time>
      </trkpt>
      <trkpt lat="45.7861" lon="3.28474">
        <ele>369.49</ele>
        <time>2020-08-14T13:34:19.000Z</time>
      </trkpt>
      <trkpt lat="45.78609" lon="3.28504">
        <ele>369.28</ele>
        <time>2020-08-14T13:34:24.000Z</time>
      </trkpt>
      <trkpt lat="45.78608" lon="3.28532">
        <ele>369.46</ele>
        <time>2020-08-14T13:34:29.000Z</time>
      </trkpt>
      <trkpt lat="45.78608" lon="3.28559">
        <ele>369.63</ele>
        <time>2020-08-14T13:34:34.000Z</time>
      </trkpt>
      <trkpt lat="45.78606" lon="3.28589">
        <ele>369.89</ele>
        <time>2020-08-14T13:34:39.000Z</time>
      </trkpt>
      <trkpt lat="45.78605" lon="3.2862">
        <ele>370.07</ele>
        <time>2020-08-14T13:34:44.000Z</time>
      </trkpt>
      <trkpt lat="45.78604" lon="3.28651">
        <ele>370.14</ele>
        <time>2020-08-14T13:34:49.000Z</time>
      </trkpt>
      <trkpt lat="45.78602" lon="3.28682">
        <ele>370.27</ele>
        <time>2020-08-14T13:34:54.000Z</time>
      </trkpt>
      <trkpt lat="45.78601" lon="3.28712">
        <ele>370.39</ele>
        <time>2020-08-14T13:34:59.000Z</time>
      </trkpt>
      <trkpt lat="45.78599" lon="3.28742">
        <ele>370.71</ele>
        <time>2020-08-14T13:35:04.000Z</time>
      </trkpt>
      <trkpt lat="45.78597" lon="3.28772">
        <ele>371.21</ele>
        <time>2020-08-14T13:35:09.000Z</time>
      </trkpt>
      <trkpt lat="45.78595" lon="3.28799">
        <ele>371.75</ele>
        <time>2020-08-14T13:35:14.000Z</time>
      </trkpt>
      <trkpt lat="45.78592" lon="3.28822">
        <ele>372.06</ele>
        <time>2020-08-14T13:35:19.000Z</time>
      </trkpt>
      <trkpt lat="45.7859" lon="3.2884">
        <ele>372.25</ele>
        <time>2020-08-14T13:35:24.000Z</time>
      </trkpt>
      <trkpt lat="45.78589" lon="3.28861">
        <ele>372.52</ele>
        <time>2020-08-14T13:35:29.000Z</time>
      </trkpt>
      <trkpt lat="45.78589" lon="3.28882">
        <ele>372.83</ele>
        <time>2020-08-14T13:35:34.000Z</time>
      </trkpt>
      <trkpt lat="45.78588" lon="3.28902">
        <ele>373.19</ele>
        <time>2020-08-14T13:35:39.000Z</time>
      </trkpt>
      <trkpt lat="45.78589" lon="3.28921">
        <ele>373.59</ele>
        <time>2020-08-14T13:35:44.000Z</time>
      </trkpt>
      <trkpt lat="45.78589" lon="3.28938">
        <ele>373.98</ele>
        <time>2020-08-14T13:35:49.000Z</time>
      </trkpt>
      <trkpt lat="45.7859" lon="3.28956">
        <ele>374.32</ele>
        <time>2020-08-14T13:35:54.000Z</time>
      </trkpt>
      <trkpt lat="45.78591" lon="3.28973">
        <ele>374.64</ele>
        <time>2020-08-14T13:35:59.000Z</time>
      </trkpt>
      <trkpt lat="45.78593" lon="3.28987">
        <ele>374.89</ele>
        <time>2020-08-14T13:36:04.000Z</time>
      </trkpt>
      <trkpt lat="45.78596" lon="3.29002">
        <ele>375.11</ele>
        <time>2020-08-14T13:36:09.000Z</time>
      </trkpt>
      <trkpt lat="45.78599" lon="3.29015">
        <ele>375.3</ele>
        <time>2020-08-14T13:36:14.000Z</time>
      </trkpt>
      <trkpt lat="45.78602" lon="3.29029">
        <ele>375.45</ele>
        <time>2020-08-14T13:36:19.000Z</time>
      </trkpt>
      <trkpt lat="45.78606" lon="3.2904">
        <ele>375.58</ele>
        <time>2020-08-14T13:36:24.000Z</time>
      </trkpt>
      <trkpt lat="45.7861" lon="3.29053">
        <ele>375.65</ele>
        <time>2020-08-14T13:36:29.000Z</time>
      </trkpt>
      <trkpt lat="45.78615" lon="3.29065">
        <ele>375.7</ele>
        <time>2020-08-14T13:36:34.000Z</time>
      </trkpt>
      <trkpt lat="45.78621" lon="3.29077">
        <ele>375.73</ele>
        <time>2020-08-14T13:36:39.000Z</time>
      </trkpt>
      <trkpt lat="45.78627" lon="3.29088">
        <ele>375.77</ele>
        <time>2020-08-14T13:36:44.000Z</time>
      </trkpt>
      <trkpt lat="45.78634" lon="3.29098">
        <ele>375.84</ele>
        <time>2020-08-14T13:36:49.000Z</time>
      </trkpt>
      <trkpt lat="45.78641" lon="3.2911">
        <ele>375.95</ele>
        <time>2020-08-14T13:36:54.000Z</time>
      </trkpt>
      <trkpt lat="45.78649" lon="3.2912">
        <ele>376.09</ele>
        <time>2020-08-14T13:36:59.000Z</time>
      </trkpt>
      <trkpt lat="45.78656" lon="3.2913">
        <ele>376.23</ele>
        <time>2020-08-14T13:37:04.000Z</time>
      </trkpt>
      <trkpt lat="45.78661" lon="3.29141">
        <ele>376.39</ele>
        <time>2020-08-14T13:37:09.000Z</time>
      </trkpt>
      <trkpt lat="45.78667" lon="3.29152">
        <ele>376.58</ele>
        <time>2020-08-14T13:37:14.000Z</time>
      </trkpt>
      <trkpt lat="45.78673" lon="3.29163">
        <ele>376.82</ele>
        <time>2020-08-14T13:37:19.000Z</time>
      </trkpt>
      <trkpt lat="45.7868" lon="3.29172">
        <ele>377.2</ele>
        <time>2020-08-14T13:37:25.000Z</time>
      </trkpt>
      <trkpt lat="45.78687" lon="3.29182">
        <ele>377.55</ele>
        <time>2020-08-14T13:37:30.000Z</time>
      </trkpt>
      <trkpt lat="45.78694" lon="3.29192">
        <ele>378.02</ele>
        <time>2020-08-14T13:37:36.000Z</time>
      </trkpt>
      <trkpt lat="45.78701" lon="3.29202">
        <ele>378.43</ele>
        <time>2020-08-14T13:37:41.000Z</time>
      </trkpt>
      <trkpt lat="45.78711" lon="3.29213">
        <ele>378.86</ele>
        <time>2020-08-14T13:37:46.000Z</time>
      </trkpt>
      <trkpt lat="45.7872" lon="3.29223">
        <ele>379.32</ele>
        <time>2020-08-14T13:37:51.000Z</time>
      </trkpt>
      <trkpt lat="45.78727" lon="3.29235">
        <ele>379.8</ele>
        <time>2020-08-14T13:37:56.000Z</time>
      </trkpt>
      <trkpt lat="45.78735" lon="3.29246">
        <ele>380.3</ele>
        <time>2020-08-14T13:38:01.000Z</time>
      </trkpt>
      <trkpt lat="45.78744" lon="3.29258">
        <ele>380.79</ele>
        <time>2020-08-14T13:38:06.000Z</time>
      </trkpt>
      <trkpt lat="45.78754" lon="3.2927">
        <ele>381.26</ele>
        <time>2020-08-14T13:38:11.000Z</time>
      </trkpt>
      <trkpt lat="45.78763" lon="3.29283">
        <ele>381.72</ele>
        <time>2020-08-14T13:38:16.000Z</time>
      </trkpt>
      <trkpt lat="45.78775" lon="3.29296">
        <ele>382.15</ele>
        <time>2020-08-14T13:38:21.000Z</time>
      </trkpt>
      <trkpt lat="45.78786" lon="3.29309">
        <ele>382.55</ele>
        <time>2020-08-14T13:38:26.000Z</time>
      </trkpt>
      <trkpt lat="45.78799" lon="3.29327">
        <ele>382.92</ele>
        <time>2020-08-14T13:38:31.000Z</time>
      </trkpt>
      <trkpt lat="45.78813" lon="3.29348">
        <ele>384.3</ele>
        <time>2020-08-14T13:38:36.000Z</time>
      </trkpt>
      <trkpt lat="45.78826" lon="3.29364">
        <ele>384.87</ele>
        <time>2020-08-14T13:38:41.000Z</time>
      </trkpt>
      <trkpt lat="45.7884" lon="3.29384">
        <ele>385.03</ele>
        <time>2020-08-14T13:38:46.000Z</time>
      </trkpt>
      <trkpt lat="45.78855" lon="3.29404">
        <ele>385.35</ele>
        <time>2020-08-14T13:38:51.000Z</time>
      </trkpt>
      <trkpt lat="45.7887" lon="3.29423">
        <ele>385.87</ele>
        <time>2020-08-14T13:38:56.000Z</time>
      </trkpt>
      <trkpt lat="45.78886" lon="3.29444">
        <ele>385.94</ele>
        <time>2020-08-14T13:39:01.000Z</time>
      </trkpt>
      <trkpt lat="45.78903" lon="3.29466">
        <ele>385.86</ele>
        <time>2020-08-14T13:39:06.000Z</time>
      </trkpt>
      <trkpt lat="45.7892" lon="3.29488">
        <ele>385.74</ele>
        <time>2020-08-14T13:39:11.000Z</time>
      </trkpt>
      <trkpt lat="45.78938" lon="3.2951">
        <ele>385.56</ele>
        <time>2020-08-14T13:39:16.000Z</time>
      </trkpt>
      <trkpt lat="45.78955" lon="3.29533">
        <ele>385.34</ele>
        <time>2020-08-14T13:39:21.000Z</time>
      </trkpt>
      <trkpt lat="45.78973" lon="3.29556">
        <ele>385.13</ele>
        <time>2020-08-14T13:39:26.000Z</time>
      </trkpt>
      <trkpt lat="45.7899" lon="3.29579">
        <ele>384.9</ele>
        <time>2020-08-14T13:39:31.000Z</time>
      </trkpt>
      <trkpt lat="45.79008" lon="3.29604">
        <ele>384.69</ele>
        <time>2020-08-14T13:39:36.000Z</time>
      </trkpt>
      <trkpt lat="45.79028" lon="3.29629">
        <ele>384.48</ele>
        <time>2020-08-14T13:39:41.000Z</time>
      </trkpt>
      <trkpt lat="45.79051" lon="3.29661">
        <ele>384.31</ele>
        <time>2020-08-14T13:39:46.000Z</time>
      </trkpt>
      <trkpt lat="45.79076" lon="3.29698">
        <ele>384.3</ele>
        <time>2020-08-14T13:39:51.000Z</time>
      </trkpt>
      <trkpt lat="45.79103" lon="3.29738">
        <ele>384.21</ele>
        <time>2020-08-14T13:39:56.000Z</time>
      </trkpt>
      <trkpt lat="45.79133" lon="3.2978">
        <ele>384.21</ele>
        <time>2020-08-14T13:40:01.000Z</time>
      </trkpt>
      <trkpt lat="45.79165" lon="3.29823">
        <ele>384.08</ele>
        <time>2020-08-14T13:40:06.000Z</time>
      </trkpt>
      <trkpt lat="45.792" lon="3.29869">
        <ele>383.93</ele>
        <time>2020-08-14T13:40:11.000Z</time>
      </trkpt>
      <trkpt lat="45.79237" lon="3.29918">
        <ele>383.35</ele>
        <time>2020-08-14T13:40:16.000Z</time>
      </trkpt>
      <trkpt lat="45.79274" lon="3.29968">
        <ele>382.54</ele>
        <time>2020-08-14T13:40:21.000Z</time>
      </trkpt>
      <trkpt lat="45.7931" lon="3.30016">
        <ele>381.71</ele>
        <time>2020-08-14T13:40:26.000Z</time>
      </trkpt>
      <trkpt lat="45.79344" lon="3.30062">
        <ele>380.85</ele>
        <time>2020-08-14T13:40:31.000Z</time>
      </trkpt>
      <trkpt lat="45.79376" lon="3.30105">
        <ele>379.96</ele>
        <time>2020-08-14T13:40:36.000Z</time>
      </trkpt>
      <trkpt lat="45.79407" lon="3.30146">
        <ele>379.28</ele>
        <time>2020-08-14T13:40:41.000Z</time>
      </trkpt>
      <trkpt lat="45.79436" lon="3.30185">
        <ele>378.37</ele>
        <time>2020-08-14T13:40:46.000Z</time>
      </trkpt>
      <trkpt lat="45.79462" lon="3.30221">
        <ele>377.49</ele>
        <time>2020-08-14T13:40:51.000Z</time>
      </trkpt>
      <trkpt lat="45.79486" lon="3.30253">
        <ele>376.15</ele>
        <time>2020-08-14T13:40:56.000Z</time>
      </trkpt>
      <trkpt lat="45.79508" lon="3.30281">
        <ele>375.8</ele>
        <time>2020-08-14T13:41:01.000Z</time>
      </trkpt>
      <trkpt lat="45.79527" lon="3.30312">
        <ele>375.57</ele>
        <time>2020-08-14T13:41:06.000Z</time>
      </trkpt>
      <trkpt lat="45.79546" lon="3.30339">
        <ele>375.4</ele>
        <time>2020-08-14T13:41:11.000Z</time>
      </trkpt>
      <trkpt lat="45.7956" lon="3.30361">
        <ele>375.67</ele>
        <time>2020-08-14T13:41:16.000Z</time>
      </trkpt>
      <trkpt lat="45.79574" lon="3.3038">
        <ele>375.49</ele>
        <time>2020-08-14T13:41:21.000Z</time>
      </trkpt>
      <trkpt lat="45.79588" lon="3.30398">
        <ele>375.25</ele>
        <time>2020-08-14T13:41:26.000Z</time>
      </trkpt>
      <trkpt lat="45.796" lon="3.30416">
        <ele>375.12</ele>
        <time>2020-08-14T13:41:31.000Z</time>
      </trkpt>
      <trkpt lat="45.79613" lon="3.30432">
        <ele>375.08</ele>
        <time>2020-08-14T13:41:36.000Z</time>
      </trkpt>
      <trkpt lat="45.79625" lon="3.30449">
        <ele>375.01</ele>
        <time>2020-08-14T13:41:41.000Z</time>
      </trkpt>
      <trkpt lat="45.79639" lon="3.30464">
        <ele>374.97</ele>
        <time>2020-08-14T13:41:46.000Z</time>
      </trkpt>
      <trkpt lat="45.79652" lon="3.3048">
        <ele>374.91</ele>
        <time>2020-08-14T13:41:51.000Z</time>
      </trkpt>
      <trkpt lat="45.79664" lon="3.30496">
        <ele>374.81</ele>
        <time>2020-08-14T13:41:56.000Z</time>
      </trkpt>
      <trkpt lat="45.79677" lon="3.30513">
        <ele>374.7</ele>
        <time>2020-08-14T13:42:01.000Z</time>
      </trkpt>
      <trkpt lat="45.79689" lon="3.3053">
        <ele>374.59</ele>
        <time>2020-08-14T13:42:05.999Z</time>
      </trkpt>
      <trkpt lat="45.79702" lon="3.30548">
        <ele>374.47</ele>
        <time>2020-08-14T13:42:10.999Z</time>
      </trkpt>
      <trkpt lat="45.79714" lon="3.30565">
        <ele>374.35</ele>
        <time>2020-08-14T13:42:15.999Z</time>
      </trkpt>
      <trkpt lat="45.79726" lon="3.30583">
        <ele>374.24</ele>
        <time>2020-08-14T13:42:20.999Z</time>
      </trkpt>
      <trkpt lat="45.7974" lon="3.30599">
        <ele>374.14</ele>
        <time>2020-08-14T13:42:25.999Z</time>
      </trkpt>
      <trkpt lat="45.79752" lon="3.30616">
        <ele>374.06</ele>
        <time>2020-08-14T13:42:30.999Z</time>
      </trkpt>
      <trkpt lat="45.79764" lon="3.30632">
        <ele>373.99</ele>
        <time>2020-08-14T13:42:35.999Z</time>
      </trkpt>
      <trkpt lat="45.79778" lon="3.30648">
        <ele>373.93</ele>
        <time>2020-08-14T13:42:40.999Z</time>
      </trkpt>
      <trkpt lat="45.79791" lon="3.30665">
        <ele>373.88</ele>
        <time>2020-08-14T13:42:45.999Z</time>
      </trkpt>
      <trkpt lat="45.79803" lon="3.3068">
        <ele>373.83</ele>
        <time>2020-08-14T13:42:50.999Z</time>
      </trkpt>
      <trkpt lat="45.79816" lon="3.30695">
        <ele>373.8</ele>
        <time>2020-08-14T13:42:55.999Z</time>
      </trkpt>
      <trkpt lat="45.79828" lon="3.30711">
        <ele>373.76</ele>
        <time>2020-08-14T13:43:00.999Z</time>
      </trkpt>
      <trkpt lat="45.79841" lon="3.30727">
        <ele>373.73</ele>
        <time>2020-08-14T13:43:05.999Z</time>
      </trkpt>
      <trkpt lat="45.79854" lon="3.30743">
        <ele>373.71</ele>
        <time>2020-08-14T13:43:10.999Z</time>
      </trkpt>
      <trkpt lat="45.79866" lon="3.3076">
        <ele>373.71</ele>
        <time>2020-08-14T13:43:15.999Z</time>
      </trkpt>
      <trkpt lat="45.79878" lon="3.30777">
        <ele>373.74</ele>
        <time>2020-08-14T13:43:20.999Z</time>
      </trkpt>
      <trkpt lat="45.79892" lon="3.30793">
        <ele>373.79</ele>
        <time>2020-08-14T13:43:25.999Z</time>
      </trkpt>
      <trkpt lat="45.79906" lon="3.30811">
        <ele>374.1</ele>
        <time>2020-08-14T13:43:30.999Z</time>
      </trkpt>
      <trkpt lat="45.79919" lon="3.30828">
        <ele>374.17</ele>
        <time>2020-08-14T13:43:35.999Z</time>
      </trkpt>
      <trkpt lat="45.79932" lon="3.30846">
        <ele>374.23</ele>
        <time>2020-08-14T13:43:40.999Z</time>
      </trkpt>
      <trkpt lat="45.79945" lon="3.30864">
        <ele>374.31</ele>
        <time>2020-08-14T13:43:45.999Z</time>
      </trkpt>
      <trkpt lat="45.79958" lon="3.30882">
        <ele>374.39</ele>
        <time>2020-08-14T13:43:50.999Z</time>
      </trkpt>
      <trkpt lat="45.79971" lon="3.30897">
        <ele>374.47</ele>
        <time>2020-08-14T13:43:55.999Z</time>
      </trkpt>
      <trkpt lat="45.79982" lon="3.30912">
        <ele>374.55</ele>
        <time>2020-08-14T13:44:00.999Z</time>
      </trkpt>
      <trkpt lat="45.79993" lon="3.30928">
        <ele>374.64</ele>
        <time>2020-08-14T13:44:05.999Z</time>
      </trkpt>
      <trkpt lat="45.80004" lon="3.30944">
        <ele>374.74</ele>
        <time>2020-08-14T13:44:10.999Z</time>
      </trkpt>
      <trkpt lat="45.80016" lon="3.30959">
        <ele>374.83</ele>
        <time>2020-08-14T13:44:15.999Z</time>
      </trkpt>
      <trkpt lat="45.80027" lon="3.30973">
        <ele>374.93</ele>
        <time>2020-08-14T13:44:20.999Z</time>
      </trkpt>
      <trkpt lat="45.80037" lon="3.30988">
        <ele>375.03</ele>
        <time>2020-08-14T13:44:25.999Z</time>
      </trkpt>
      <trkpt lat="45.80048" lon="3.31003">
        <ele>375.13</ele>
        <time>2020-08-14T13:44:30.999Z</time>
      </trkpt>
      <trkpt lat="45.8006" lon="3.31018">
        <ele>375.24</ele>
        <time>2020-08-14T13:44:35.999Z</time>
      </trkpt>
      <trkpt lat="45.80072" lon="3.31031">
        <ele>375.35</ele>
        <time>2020-08-14T13:44:40.999Z</time>
      </trkpt>
      <trkpt lat="45.80082" lon="3.31046">
        <ele>375.44</ele>
        <time>2020-08-14T13:44:45.999Z</time>
      </trkpt>
      <trkpt lat="45.80094" lon="3.31062">
        <ele>375.55</ele>
        <time>2020-08-14T13:44:50.999Z</time>
      </trkpt>
      <trkpt lat="45.80105" lon="3.31078">
        <ele>375.67</ele>
        <time>2020-08-14T13:44:55.999Z</time>
      </trkpt>
      <trkpt lat="45.80117" lon="3.31094">
        <ele>375.8</ele>
        <time>2020-08-14T13:45:00.999Z</time>
      </trkpt>
      <trkpt lat="45.8013" lon="3.31111">
        <ele>375.92</ele>
        <time>2020-08-14T13:45:05.999Z</time>
      </trkpt>
      <trkpt lat="45.80143" lon="3.31128">
        <ele>376.06</ele>
        <time>2020-08-14T13:45:10.999Z</time>
      </trkpt>
      <trkpt lat="45.80157" lon="3.31146">
        <ele>376.79</ele>
        <time>2020-08-14T13:45:15.999Z</time>
      </trkpt>
      <trkpt lat="45.80171" lon="3.31164">
        <ele>377.47</ele>
        <time>2020-08-14T13:45:20.999Z</time>
      </trkpt>
      <trkpt lat="45.80185" lon="3.31182">
        <ele>377.71</ele>
        <time>2020-08-14T13:45:25.999Z</time>
      </trkpt>
      <trkpt lat="45.80199" lon="3.31201">
        <ele>378.16</ele>
        <time>2020-08-14T13:45:30.999Z</time>
      </trkpt>
      <trkpt lat="45.80212" lon="3.31219">
        <ele>378.35</ele>
        <time>2020-08-14T13:45:35.999Z</time>
      </trkpt>
      <trkpt lat="45.80226" lon="3.31237">
        <ele>378.39</ele>
        <time>2020-08-14T13:45:40.999Z</time>
      </trkpt>
      <trkpt lat="45.80238" lon="3.31256">
        <ele>378.56</ele>
        <time>2020-08-14T13:45:45.999Z</time>
      </trkpt>
      <trkpt lat="45.80252" lon="3.31273">
        <ele>378.63</ele>
        <time>2020-08-14T13:45:50.999Z</time>
      </trkpt>
      <trkpt lat="45.80264" lon="3.3129">
        <ele>378.72</ele>
        <time>2020-08-14T13:45:55.999Z</time>
      </trkpt>
      <trkpt lat="45.80276" lon="3.31306">
        <ele>378.83</ele>
        <time>2020-08-14T13:46:00.999Z</time>
      </trkpt>
      <trkpt lat="45.80287" lon="3.31321">
        <ele>378.93</ele>
        <time>2020-08-14T13:46:05.999Z</time>
      </trkpt>
      <trkpt lat="45.80298" lon="3.31335">
        <ele>379.03</ele>
        <time>2020-08-14T13:46:10.999Z</time>
      </trkpt>
      <trkpt lat="45.80309" lon="3.31349">
        <ele>379.12</ele>
        <time>2020-08-14T13:46:15.999Z</time>
      </trkpt>
      <trkpt lat="45.80319" lon="3.31363">
        <ele>379.21</ele>
        <time>2020-08-14T13:46:20.999Z</time>
      </trkpt>
      <trkpt lat="45.8033" lon="3.31376">
        <ele>379.3</ele>
        <time>2020-08-14T13:46:25.999Z</time>
      </trkpt>
      <trkpt lat="45.80339" lon="3.3139">
        <ele>379.39</ele>
        <time>2020-08-14T13:46:30.999Z</time>
      </trkpt>
      <trkpt lat="45.80349" lon="3.31402">
        <ele>379.48</ele>
        <time>2020-08-14T13:46:35.999Z</time>
      </trkpt>
      <trkpt lat="45.80357" lon="3.31415">
        <ele>379.57</ele>
        <time>2020-08-14T13:46:40.999Z</time>
      </trkpt>
      <trkpt lat="45.80367" lon="3.31426">
        <ele>379.67</ele>
        <time>2020-08-14T13:46:45.999Z</time>
      </trkpt>
      <trkpt lat="45.80376" lon="3.31439">
        <ele>379.77</ele>
        <time>2020-08-14T13:46:50.999Z</time>
      </trkpt>
      <trkpt lat="45.80384" lon="3.31451">
        <ele>379.87</ele>
        <time>2020-08-14T13:46:55.999Z</time>
      </trkpt>
      <trkpt lat="45.80392" lon="3.31462">
        <ele>379.96</ele>
        <time>2020-08-14T13:47:00.999Z</time>
      </trkpt>
      <trkpt lat="45.804" lon="3.31473">
        <ele>380.05</ele>
        <time>2020-08-14T13:47:05.999Z</time>
      </trkpt>
      <trkpt lat="45.80409" lon="3.31485">
        <ele>380.12</ele>
        <time>2020-08-14T13:47:10.999Z</time>
      </trkpt>
      <trkpt lat="45.80417" lon="3.31496">
        <ele>380.2</ele>
        <time>2020-08-14T13:47:15.999Z</time>
      </trkpt>
      <trkpt lat="45.80425" lon="3.31507">
        <ele>380.27</ele>
        <time>2020-08-14T13:47:20.999Z</time>
      </trkpt>
      <trkpt lat="45.80433" lon="3.31519">
        <ele>380.34</ele>
        <time>2020-08-14T13:47:25.999Z</time>
      </trkpt>
      <trkpt lat="45.80442" lon="3.3153">
        <ele>380.41</ele>
        <time>2020-08-14T13:47:30.999Z</time>
      </trkpt>
      <trkpt lat="45.80451" lon="3.31542">
        <ele>380.48</ele>
        <time>2020-08-14T13:47:35.999Z</time>
      </trkpt>
      <trkpt lat="45.8046" lon="3.31555">
        <ele>380.55</ele>
        <time>2020-08-14T13:47:40.999Z</time>
      </trkpt>
      <trkpt lat="45.80469" lon="3.31567">
        <ele>380.63</ele>
        <time>2020-08-14T13:47:45.999Z</time>
      </trkpt>
      <trkpt lat="45.80478" lon="3.31578">
        <ele>380.71</ele>
        <time>2020-08-14T13:47:50.999Z</time>
      </trkpt>
      <trkpt lat="45.80489" lon="3.31589">
        <ele>380.8</ele>
        <time>2020-08-14T13:47:55.999Z</time>
      </trkpt>
      <trkpt lat="45.80498" lon="3.31601">
        <ele>380.92</ele>
        <time>2020-08-14T13:48:00.999Z</time>
      </trkpt>
      <trkpt lat="45.80509" lon="3.31617">
        <ele>381.03</ele>
        <time>2020-08-14T13:48:05.999Z</time>
      </trkpt>
      <trkpt lat="45.80522" lon="3.31635">
        <ele>381.28</ele>
        <time>2020-08-14T13:48:10.999Z</time>
      </trkpt>
      <trkpt lat="45.80537" lon="3.31655">
        <ele>381.91</ele>
        <time>2020-08-14T13:48:15.999Z</time>
      </trkpt>
      <trkpt lat="45.80552" lon="3.31676">
        <ele>382.17</ele>
        <time>2020-08-14T13:48:20.999Z</time>
      </trkpt>
      <trkpt lat="45.8057" lon="3.31698">
        <ele>382.31</ele>
        <time>2020-08-14T13:48:25.999Z</time>
      </trkpt>
      <trkpt lat="45.80588" lon="3.31723">
        <ele>382.37</ele>
        <time>2020-08-14T13:48:30.999Z</time>
      </trkpt>
      <trkpt lat="45.80609" lon="3.31751">
        <ele>382.37</ele>
        <time>2020-08-14T13:48:35.999Z</time>
      </trkpt>
      <trkpt lat="45.80631" lon="3.3178">
        <ele>382.31</ele>
        <time>2020-08-14T13:48:40.999Z</time>
      </trkpt>
      <trkpt lat="45.80655" lon="3.31811">
        <ele>382.18</ele>
        <time>2020-08-14T13:48:45.999Z</time>
      </trkpt>
      <trkpt lat="45.8068" lon="3.31846">
        <ele>381.89</ele>
        <time>2020-08-14T13:48:50.999Z</time>
      </trkpt>
      <trkpt lat="45.80706" lon="3.3188">
        <ele>381.62</ele>
        <time>2020-08-14T13:48:55.999Z</time>
      </trkpt>
      <trkpt lat="45.8073" lon="3.31915">
        <ele>381.46</ele>
        <time>2020-08-14T13:49:00.999Z</time>
      </trkpt>
      <trkpt lat="45.80753" lon="3.3195">
        <ele>381.29</ele>
        <time>2020-08-14T13:49:05.999Z</time>
      </trkpt>
      <trkpt lat="45.80773" lon="3.31987">
        <ele>380.91</ele>
        <time>2020-08-14T13:49:10.999Z</time>
      </trkpt>
      <trkpt lat="45.80794" lon="3.32026">
        <ele>380.41</ele>
        <time>2020-08-14T13:49:15.999Z</time>
      </trkpt>
      <trkpt lat="45.80812" lon="3.32066">
        <ele>380.04</ele>
        <time>2020-08-14T13:49:20.999Z</time>
      </trkpt>
      <trkpt lat="45.80829" lon="3.32109">
        <ele>379.47</ele>
        <time>2020-08-14T13:49:25.999Z</time>
      </trkpt>
      <trkpt lat="45.80847" lon="3.32157">
        <ele>378.85</ele>
        <time>2020-08-14T13:49:30.999Z</time>
      </trkpt>
      <trkpt lat="45.80866" lon="3.32211">
        <ele>378.02</ele>
        <time>2020-08-14T13:49:35.999Z</time>
      </trkpt>
      <trkpt lat="45.80886" lon="3.32271">
        <ele>377.16</ele>
        <time>2020-08-14T13:49:40.999Z</time>
      </trkpt>
      <trkpt lat="45.80906" lon="3.32334">
        <ele>376.32</ele>
        <time>2020-08-14T13:49:45.999Z</time>
      </trkpt>
      <trkpt lat="45.80928" lon="3.32397">
        <ele>375.5</ele>
        <time>2020-08-14T13:49:50.999Z</time>
      </trkpt>
      <trkpt lat="45.8095" lon="3.32459">
        <ele>375.11</ele>
        <time>2020-08-14T13:49:55.999Z</time>
      </trkpt>
      <trkpt lat="45.80973" lon="3.3252">
        <ele>374.54</ele>
        <time>2020-08-14T13:50:00.999Z</time>
      </trkpt>
      <trkpt lat="45.80994" lon="3.3258">
        <ele>373.81</ele>
        <time>2020-08-14T13:50:05.999Z</time>
      </trkpt>
      <trkpt lat="45.81016" lon="3.32638">
        <ele>373.11</ele>
        <time>2020-08-14T13:50:10.999Z</time>
      </trkpt>
      <trkpt lat="45.81037" lon="3.32695">
        <ele>372.22</ele>
        <time>2020-08-14T13:50:15.999Z</time>
      </trkpt>
      <trkpt lat="45.81057" lon="3.32749">
        <ele>371.11</ele>
        <time>2020-08-14T13:50:20.999Z</time>
      </trkpt>
      <trkpt lat="45.81075" lon="3.32798">
        <ele>370.06</ele>
        <time>2020-08-14T13:50:25.999Z</time>
      </trkpt>
      <trkpt lat="45.81093" lon="3.32843">
        <ele>369.27</ele>
        <time>2020-08-14T13:50:30.999Z</time>
      </trkpt>
      <trkpt lat="45.81109" lon="3.32885">
        <ele>368.42</ele>
        <time>2020-08-14T13:50:35.999Z</time>
      </trkpt>
      <trkpt lat="45.81127" lon="3.32922">
        <ele>367.62</ele>
        <time>2020-08-14T13:50:40.999Z</time>
      </trkpt>
      <trkpt lat="45.81142" lon="3.3296">
        <ele>367.14</ele>
        <time>2020-08-14T13:50:45.999Z</time>
      </trkpt>
      <trkpt lat="45.81155" lon="3.32995">
        <ele>366.54</ele>
        <time>2020-08-14T13:50:50.999Z</time>
      </trkpt>
      <trkpt lat="45.81168" lon="3.3303">
        <ele>365.93</ele>
        <time>2020-08-14T13:50:55.999Z</time>
      </trkpt>
      <trkpt lat="45.81181" lon="3.33064">
        <ele>365.48</ele>
        <time>2020-08-14T13:51:00.999Z</time>
      </trkpt>
      <trkpt lat="45.81194" lon="3.33098">
        <ele>365.23</ele>
        <time>2020-08-14T13:51:05.999Z</time>
      </trkpt>
      <trkpt lat="45.81205" lon="3.33131">
        <ele>365.06</ele>
        <time>2020-08-14T13:51:10.999Z</time>
      </trkpt>
      <trkpt lat="45.81217" lon="3.33163">
        <ele>364.92</ele>
        <time>2020-08-14T13:51:15.999Z</time>
      </trkpt>
      <trkpt lat="45.81229" lon="3.33195">
        <ele>364.7</ele>
        <time>2020-08-14T13:51:20.999Z</time>
      </trkpt>
      <trkpt lat="45.81239" lon="3.33225">
        <ele>364.34</ele>
        <time>2020-08-14T13:51:25.999Z</time>
      </trkpt>
      <trkpt lat="45.81251" lon="3.33254">
        <ele>364.13</ele>
        <time>2020-08-14T13:51:30.999Z</time>
      </trkpt>
      <trkpt lat="45.81261" lon="3.33282">
        <ele>364.02</ele>
        <time>2020-08-14T13:51:35.999Z</time>
      </trkpt>
      <trkpt lat="45.81271" lon="3.33309">
        <ele>363.93</ele>
        <time>2020-08-14T13:51:40.999Z</time>
      </trkpt>
      <trkpt lat="45.8128" lon="3.33335">
        <ele>363.86</ele>
        <time>2020-08-14T13:51:45.999Z</time>
      </trkpt>
      <trkpt lat="45.8129" lon="3.3336">
        <ele>363.87</ele>
        <time>2020-08-14T13:51:50.999Z</time>
      </trkpt>
      <trkpt lat="45.81299" lon="3.33385">
        <ele>363.91</ele>
        <time>2020-08-14T13:51:55.999Z</time>
      </trkpt>
      <trkpt lat="45.81308" lon="3.3341">
        <ele>363.87</ele>
        <time>2020-08-14T13:52:00.999Z</time>
      </trkpt>
      <trkpt lat="45.81317" lon="3.33436">
        <ele>363.84</ele>
        <time>2020-08-14T13:52:05.999Z</time>
      </trkpt>
      <trkpt lat="45.81326" lon="3.33461">
        <ele>363.86</ele>
        <time>2020-08-14T13:52:10.999Z</time>
      </trkpt>
      <trkpt lat="45.81334" lon="3.33485">
        <ele>363.87</ele>
        <time>2020-08-14T13:52:15.999Z</time>
      </trkpt>
      <trkpt lat="45.81342" lon="3.3351">
        <ele>363.88</ele>
        <time>2020-08-14T13:52:20.999Z</time>
      </trkpt>
      <trkpt lat="45.8135" lon="3.33533">
        <ele>363.9</ele>
        <time>2020-08-14T13:52:25.999Z</time>
      </trkpt>
      <trkpt lat="45.81358" lon="3.33555">
        <ele>363.94</ele>
        <time>2020-08-14T13:52:30.999Z</time>
      </trkpt>
      <trkpt lat="45.81365" lon="3.33576">
        <ele>363.98</ele>
        <time>2020-08-14T13:52:35.999Z</time>
      </trkpt>
      <trkpt lat="45.81373" lon="3.33598">
        <ele>364.01</ele>
        <time>2020-08-14T13:52:40.999Z</time>
      </trkpt>
      <trkpt lat="45.8138" lon="3.33619">
        <ele>364.06</ele>
        <time>2020-08-14T13:52:45.999Z</time>
      </trkpt>
      <trkpt lat="45.81388" lon="3.33642">
        <ele>364.12</ele>
        <time>2020-08-14T13:52:50.999Z</time>
      </trkpt>
      <trkpt lat="45.81396" lon="3.33663">
        <ele>364.2</ele>
        <time>2020-08-14T13:52:55.999Z</time>
      </trkpt>
      <trkpt lat="45.81404" lon="3.33685">
        <ele>364.29</ele>
        <time>2020-08-14T13:53:00.999Z</time>
      </trkpt>
      <trkpt lat="45.81412" lon="3.33706">
        <ele>364.4</ele>
        <time>2020-08-14T13:53:05.999Z</time>
      </trkpt>
      <trkpt lat="45.8142" lon="3.33728">
        <ele>364.52</ele>
        <time>2020-08-14T13:53:10.999Z</time>
      </trkpt>
      <trkpt lat="45.81428" lon="3.3375">
        <ele>364.65</ele>
        <time>2020-08-14T13:53:15.999Z</time>
      </trkpt>
      <trkpt lat="45.81435" lon="3.33772">
        <ele>364.78</ele>
        <time>2020-08-14T13:53:20.999Z</time>
      </trkpt>
      <trkpt lat="45.81444" lon="3.33797">
        <ele>365.41</ele>
        <time>2020-08-14T13:53:25.999Z</time>
      </trkpt>
      <trkpt lat="45.81454" lon="3.33824">
        <ele>366.05</ele>
        <time>2020-08-14T13:53:30.999Z</time>
      </trkpt>
      <trkpt lat="45.81464" lon="3.33852">
        <ele>366.4</ele>
        <time>2020-08-14T13:53:35.999Z</time>
      </trkpt>
      <trkpt lat="45.81474" lon="3.33882">
        <ele>366.4</ele>
        <time>2020-08-14T13:53:40.999Z</time>
      </trkpt>
      <trkpt lat="45.81486" lon="3.33914">
        <ele>366.23</ele>
        <time>2020-08-14T13:53:45.999Z</time>
      </trkpt>
      <trkpt lat="45.81499" lon="3.33946">
        <ele>366.25</ele>
        <time>2020-08-14T13:53:50.999Z</time>
      </trkpt>
      <trkpt lat="45.81512" lon="3.33977">
        <ele>366.33</ele>
        <time>2020-08-14T13:53:55.999Z</time>
      </trkpt>
      <trkpt lat="45.81524" lon="3.34007">
        <ele>366.35</ele>
        <time>2020-08-14T13:54:00.999Z</time>
      </trkpt>
      <trkpt lat="45.81536" lon="3.34036">
        <ele>366.37</ele>
        <time>2020-08-14T13:54:05.999Z</time>
      </trkpt>
      <trkpt lat="45.81547" lon="3.34062">
        <ele>366.38</ele>
        <time>2020-08-14T13:54:11.000Z</time>
      </trkpt>
      <trkpt lat="45.81557" lon="3.34088">
        <ele>366.36</ele>
        <time>2020-08-14T13:54:16.000Z</time>
      </trkpt>
      <trkpt lat="45.81567" lon="3.34114">
        <ele>366.37</ele>
        <time>2020-08-14T13:54:21.000Z</time>
      </trkpt>
      <trkpt lat="45.81576" lon="3.34139">
        <ele>366.5</ele>
        <time>2020-08-14T13:54:26.000Z</time>
      </trkpt>
      <trkpt lat="45.81585" lon="3.34164">
        <ele>366.69</ele>
        <time>2020-08-14T13:54:31.000Z</time>
      </trkpt>
      <trkpt lat="45.81594" lon="3.34189">
        <ele>366.88</ele>
        <time>2020-08-14T13:54:36.000Z</time>
      </trkpt>
      <trkpt lat="45.81604" lon="3.34214">
        <ele>367.03</ele>
        <time>2020-08-14T13:54:41.000Z</time>
      </trkpt>
      <trkpt lat="45.81613" lon="3.34239">
        <ele>367.13</ele>
        <time>2020-08-14T13:54:46.000Z</time>
      </trkpt>
      <trkpt lat="45.81622" lon="3.34265">
        <ele>367.17</ele>
        <time>2020-08-14T13:54:51.000Z</time>
      </trkpt>
      <trkpt lat="45.81632" lon="3.34291">
        <ele>367.18</ele>
        <time>2020-08-14T13:54:56.000Z</time>
      </trkpt>
      <trkpt lat="45.81641" lon="3.34316">
        <ele>367.17</ele>
        <time>2020-08-14T13:55:01.000Z</time>
      </trkpt>
      <trkpt lat="45.8165" lon="3.34342">
        <ele>367.2</ele>
        <time>2020-08-14T13:55:06.000Z</time>
      </trkpt>
      <trkpt lat="45.8166" lon="3.34367">
        <ele>367.24</ele>
        <time>2020-08-14T13:55:11.000Z</time>
      </trkpt>
      <trkpt lat="45.81669" lon="3.34394">
        <ele>367.23</ele>
        <time>2020-08-14T13:55:16.000Z</time>
      </trkpt>
      <trkpt lat="45.8168" lon="3.34423">
        <ele>367.24</ele>
        <time>2020-08-14T13:55:21.000Z</time>
      </trkpt>
      <trkpt lat="45.8169" lon="3.3445">
        <ele>367.27</ele>
        <time>2020-08-14T13:55:26.000Z</time>
      </trkpt>
      <trkpt lat="45.81699" lon="3.34476">
        <ele>367.32</ele>
        <time>2020-08-14T13:55:31.000Z</time>
      </trkpt>
      <trkpt lat="45.81709" lon="3.34502">
        <ele>367.44</ele>
        <time>2020-08-14T13:55:36.000Z</time>
      </trkpt>
      <trkpt lat="45.81719" lon="3.34529">
        <ele>367.48</ele>
        <time>2020-08-14T13:55:41.000Z</time>
      </trkpt>
      <trkpt lat="45.81729" lon="3.34557">
        <ele>367.52</ele>
        <time>2020-08-14T13:55:46.000Z</time>
      </trkpt>
      <trkpt lat="45.81739" lon="3.34583">
        <ele>367.51</ele>
        <time>2020-08-14T13:55:51.000Z</time>
      </trkpt>
      <trkpt lat="45.81749" lon="3.34608">
        <ele>367.48</ele>
        <time>2020-08-14T13:55:56.000Z</time>
      </trkpt>
      <trkpt lat="45.81758" lon="3.34634">
        <ele>367.4</ele>
        <time>2020-08-14T13:56:01.000Z</time>
      </trkpt>
      <trkpt lat="45.81767" lon="3.34659">
        <ele>367.32</ele>
        <time>2020-08-14T13:56:06.000Z</time>
      </trkpt>
      <trkpt lat="45.81777" lon="3.34684">
        <ele>367.23</ele>
        <time>2020-08-14T13:56:11.000Z</time>
      </trkpt>
      <trkpt lat="45.81787" lon="3.34711">
        <ele>367.14</ele>
        <time>2020-08-14T13:56:16.000Z</time>
      </trkpt>
      <trkpt lat="45.81796" lon="3.34737">
        <ele>367.07</ele>
        <time>2020-08-14T13:56:21.000Z</time>
      </trkpt>
      <trkpt lat="45.81806" lon="3.34765">
        <ele>367</ele>
        <time>2020-08-14T13:56:26.000Z</time>
      </trkpt>
      <trkpt lat="45.81817" lon="3.34796">
        <ele>366.93</ele>
        <time>2020-08-14T13:56:31.000Z</time>
      </trkpt>
      <trkpt lat="45.81829" lon="3.34828">
        <ele>366.86</ele>
        <time>2020-08-14T13:56:36.000Z</time>
      </trkpt>
      <trkpt lat="45.81841" lon="3.34861">
        <ele>366.79</ele>
        <time>2020-08-14T13:56:41.000Z</time>
      </trkpt>
      <trkpt lat="45.81853" lon="3.34893">
        <ele>366.71</ele>
        <time>2020-08-14T13:56:46.000Z</time>
      </trkpt>
      <trkpt lat="45.81866" lon="3.34927">
        <ele>366.63</ele>
        <time>2020-08-14T13:56:51.000Z</time>
      </trkpt>
      <trkpt lat="45.81879" lon="3.34963">
        <ele>366.55</ele>
        <time>2020-08-14T13:56:56.000Z</time>
      </trkpt>
      <trkpt lat="45.81892" lon="3.35">
        <ele>366.47</ele>
        <time>2020-08-14T13:57:01.000Z</time>
      </trkpt>
      <trkpt lat="45.81906" lon="3.35036">
        <ele>366.39</ele>
        <time>2020-08-14T13:57:06.000Z</time>
      </trkpt>
      <trkpt lat="45.81918" lon="3.3507">
        <ele>366.31</ele>
        <time>2020-08-14T13:57:11.000Z</time>
      </trkpt>
      <trkpt lat="45.8193" lon="3.35101">
        <ele>366.25</ele>
        <time>2020-08-14T13:57:16.000Z</time>
      </trkpt>
      <trkpt lat="45.81941" lon="3.35132">
        <ele>366.17</ele>
        <time>2020-08-14T13:57:21.000Z</time>
      </trkpt>
      <trkpt lat="45.81952" lon="3.35161">
        <ele>366.08</ele>
        <time>2020-08-14T13:57:26.000Z</time>
      </trkpt>
      <trkpt lat="45.81962" lon="3.3519">
        <ele>365.97</ele>
        <time>2020-08-14T13:57:31.000Z</time>
      </trkpt>
      <trkpt lat="45.81972" lon="3.35217">
        <ele>365.84</ele>
        <time>2020-08-14T13:57:36.000Z</time>
      </trkpt>
      <trkpt lat="45.81982" lon="3.35245">
        <ele>365.69</ele>
        <time>2020-08-14T13:57:41.000Z</time>
      </trkpt>
      <trkpt lat="45.81994" lon="3.35278">
        <ele>365.59</ele>
        <time>2020-08-14T13:57:46.000Z</time>
      </trkpt>
      <trkpt lat="45.82006" lon="3.3531">
        <ele>365.53</ele>
        <time>2020-08-14T13:57:51.000Z</time>
      </trkpt>
      <trkpt lat="45.82017" lon="3.3534">
        <ele>365.48</ele>
        <time>2020-08-14T13:57:56.000Z</time>
      </trkpt>
      <trkpt lat="45.82028" lon="3.35371">
        <ele>365.46</ele>
        <time>2020-08-14T13:58:01.000Z</time>
      </trkpt>
      <trkpt lat="45.82039" lon="3.35401">
        <ele>365.43</ele>
        <time>2020-08-14T13:58:06.000Z</time>
      </trkpt>
      <trkpt lat="45.8205" lon="3.35431">
        <ele>365.38</ele>
        <time>2020-08-14T13:58:11.000Z</time>
      </trkpt>
      <trkpt lat="45.82061" lon="3.35461">
        <ele>365.35</ele>
        <time>2020-08-14T13:58:16.000Z</time>
      </trkpt>
      <trkpt lat="45.82071" lon="3.3549">
        <ele>365.34</ele>
        <time>2020-08-14T13:58:21.000Z</time>
      </trkpt>
      <trkpt lat="45.82081" lon="3.35517">
        <ele>365.31</ele>
        <time>2020-08-14T13:58:26.000Z</time>
      </trkpt>
      <trkpt lat="45.82092" lon="3.35544">
        <ele>365.27</ele>
        <time>2020-08-14T13:58:31.000Z</time>
      </trkpt>
      <trkpt lat="45.82102" lon="3.35572">
        <ele>365.22</ele>
        <time>2020-08-14T13:58:36.000Z</time>
      </trkpt>
      <trkpt lat="45.82112" lon="3.356">
        <ele>365.18</ele>
        <time>2020-08-14T13:58:41.000Z</time>
      </trkpt>
      <trkpt lat="45.82123" lon="3.35627">
        <ele>365.12</ele>
        <time>2020-08-14T13:58:46.000Z</time>
      </trkpt>
      <trkpt lat="45.82133" lon="3.35655">
        <ele>365.09</ele>
        <time>2020-08-14T13:58:51.000Z</time>
      </trkpt>
      <trkpt lat="45.82143" lon="3.35683">
        <ele>365.07</ele>
        <time>2020-08-14T13:58:56.000Z</time>
      </trkpt>
      <trkpt lat="45.82152" lon="3.35707">
        <ele>365.01</ele>
        <time>2020-08-14T13:59:01.000Z</time>
      </trkpt>
      <trkpt lat="45.82163" lon="3.35735">
        <ele>364.98</ele>
        <time>2020-08-14T13:59:06.000Z</time>
      </trkpt>
      <trkpt lat="45.82172" lon="3.35763">
        <ele>364.99</ele>
        <time>2020-08-14T13:59:11.000Z</time>
      </trkpt>
      <trkpt lat="45.82183" lon="3.3579">
        <ele>364.99</ele>
        <time>2020-08-14T13:59:16.000Z</time>
      </trkpt>
      <trkpt lat="45.82193" lon="3.35818">
        <ele>364.99</ele>
        <time>2020-08-14T13:59:21.000Z</time>
      </trkpt>
      <trkpt lat="45.82203" lon="3.35846">
        <ele>365</ele>
        <time>2020-08-14T13:59:26.000Z</time>
      </trkpt>
      <trkpt lat="45.82212" lon="3.35871">
        <ele>365.01</ele>
        <time>2020-08-14T13:59:31.000Z</time>
      </trkpt>
      <trkpt lat="45.82221" lon="3.35895">
        <ele>365.01</ele>
        <time>2020-08-14T13:59:36.000Z</time>
      </trkpt>
      <trkpt lat="45.8223" lon="3.3592">
        <ele>365.02</ele>
        <time>2020-08-14T13:59:41.000Z</time>
      </trkpt>
      <trkpt lat="45.82239" lon="3.35942">
        <ele>365.03</ele>
        <time>2020-08-14T13:59:46.000Z</time>
      </trkpt>
      <trkpt lat="45.82248" lon="3.35966">
        <ele>365.07</ele>
        <time>2020-08-14T13:59:51.000Z</time>
      </trkpt>
      <trkpt lat="45.82257" lon="3.3599">
        <ele>365.13</ele>
        <time>2020-08-14T13:59:56.000Z</time>
      </trkpt>
      <trkpt lat="45.82265" lon="3.36014">
        <ele>365.18</ele>
        <time>2020-08-14T14:00:01.000Z</time>
      </trkpt>
      <trkpt lat="45.82274" lon="3.36038">
        <ele>365.23</ele>
        <time>2020-08-14T14:00:06.000Z</time>
      </trkpt>
      <trkpt lat="45.82283" lon="3.36061">
        <ele>365.3</ele>
        <time>2020-08-14T14:00:11.000Z</time>
      </trkpt>
      <trkpt lat="45.82291" lon="3.36084">
        <ele>365.39</ele>
        <time>2020-08-14T14:00:16.000Z</time>
      </trkpt>
      <trkpt lat="45.823" lon="3.36109">
        <ele>365.45</ele>
        <time>2020-08-14T14:00:21.000Z</time>
      </trkpt>
      <trkpt lat="45.82308" lon="3.36134">
        <ele>365.52</ele>
        <time>2020-08-14T14:00:26.000Z</time>
      </trkpt>
      <trkpt lat="45.82317" lon="3.36159">
        <ele>365.59</ele>
        <time>2020-08-14T14:00:31.000Z</time>
      </trkpt>
      <trkpt lat="45.82327" lon="3.36184">
        <ele>365.67</ele>
        <time>2020-08-14T14:00:36.000Z</time>
      </trkpt>
      <trkpt lat="45.82336" lon="3.36208">
        <ele>365.73</ele>
        <time>2020-08-14T14:00:41.000Z</time>
      </trkpt>
      <trkpt lat="45.82346" lon="3.36234">
        <ele>365.82</ele>
        <time>2020-08-14T14:00:46.000Z</time>
      </trkpt>
      <trkpt lat="45.82356" lon="3.36261">
        <ele>365.89</ele>
        <time>2020-08-14T14:00:51.000Z</time>
      </trkpt>
      <trkpt lat="45.82365" lon="3.36287">
        <ele>365.95</ele>
        <time>2020-08-14T14:00:56.000Z</time>
      </trkpt>
      <trkpt lat="45.82375" lon="3.36313">
        <ele>366.01</ele>
        <time>2020-08-14T14:01:01.000Z</time>
      </trkpt>
      <trkpt lat="45.82384" lon="3.36338">
        <ele>366.06</ele>
        <time>2020-08-14T14:01:06.000Z</time>
      </trkpt>
      <trkpt lat="45.82393" lon="3.36362">
        <ele>366.14</ele>
        <time>2020-08-14T14:01:11.000Z</time>
      </trkpt>
      <trkpt lat="45.82403" lon="3.36387">
        <ele>366.19</ele>
        <time>2020-08-14T14:01:16.000Z</time>
      </trkpt>
      <trkpt lat="45.82411" lon="3.36411">
        <ele>366.25</ele>
        <time>2020-08-14T14:01:21.000Z</time>
      </trkpt>
      <trkpt lat="45.82419" lon="3.36433">
        <ele>366.28</ele>
        <time>2020-08-14T14:01:26.000Z</time>
      </trkpt>
      <trkpt lat="45.82428" lon="3.36457">
        <ele>366.3</ele>
        <time>2020-08-14T14:01:31.000Z</time>
      </trkpt>
      <trkpt lat="45.82437" lon="3.36483">
        <ele>366.34</ele>
        <time>2020-08-14T14:01:36.000Z</time>
      </trkpt>
      <trkpt lat="45.82445" lon="3.36507">
        <ele>366.36</ele>
        <time>2020-08-14T14:01:41.000Z</time>
      </trkpt>
      <trkpt lat="45.82455" lon="3.36533">
        <ele>366.37</ele>
        <time>2020-08-14T14:01:46.000Z</time>
      </trkpt>
      <trkpt lat="45.82466" lon="3.3656">
        <ele>366.4</ele>
        <time>2020-08-14T14:01:51.000Z</time>
      </trkpt>
      <trkpt lat="45.82475" lon="3.36585">
        <ele>366.47</ele>
        <time>2020-08-14T14:01:56.000Z</time>
      </trkpt>
      <trkpt lat="45.82484" lon="3.36609">
        <ele>366.56</ele>
        <time>2020-08-14T14:02:01.000Z</time>
      </trkpt>
      <trkpt lat="45.82494" lon="3.36632">
        <ele>366.67</ele>
        <time>2020-08-14T14:02:06.000Z</time>
      </trkpt>
      <trkpt lat="45.82502" lon="3.36656">
        <ele>366.78</ele>
        <time>2020-08-14T14:02:11.000Z</time>
      </trkpt>
      <trkpt lat="45.82511" lon="3.3668">
        <ele>366.89</ele>
        <time>2020-08-14T14:02:16.000Z</time>
      </trkpt>
      <trkpt lat="45.8252" lon="3.36703">
        <ele>366.95</ele>
        <time>2020-08-14T14:02:21.000Z</time>
      </trkpt>
      <trkpt lat="45.82528" lon="3.36725">
        <ele>366.97</ele>
        <time>2020-08-14T14:02:26.000Z</time>
      </trkpt>
      <trkpt lat="45.82537" lon="3.36748">
        <ele>367</ele>
        <time>2020-08-14T14:02:31.000Z</time>
      </trkpt>
      <trkpt lat="45.82544" lon="3.36768">
        <ele>367.05</ele>
        <time>2020-08-14T14:02:36.000Z</time>
      </trkpt>
      <trkpt lat="45.82551" lon="3.3679">
        <ele>367.1</ele>
        <time>2020-08-14T14:02:41.000Z</time>
      </trkpt>
      <trkpt lat="45.8256" lon="3.36812">
        <ele>367.17</ele>
        <time>2020-08-14T14:02:46.000Z</time>
      </trkpt>
      <trkpt lat="45.82568" lon="3.36834">
        <ele>367.25</ele>
        <time>2020-08-14T14:02:51.000Z</time>
      </trkpt>
      <trkpt lat="45.82575" lon="3.36856">
        <ele>367.34</ele>
        <time>2020-08-14T14:02:56.000Z</time>
      </trkpt>
      <trkpt lat="45.82583" lon="3.36875">
        <ele>367.43</ele>
        <time>2020-08-14T14:03:01.000Z</time>
      </trkpt>
      <trkpt lat="45.8259" lon="3.36892">
        <ele>367.53</ele>
        <time>2020-08-14T14:03:06.000Z</time>
      </trkpt>
      <trkpt lat="45.82595" lon="3.3691">
        <ele>367.64</ele>
        <time>2020-08-14T14:03:11.000Z</time>
      </trkpt>
      <trkpt lat="45.82599" lon="3.3693">
        <ele>367.73</ele>
        <time>2020-08-14T14:03:16.000Z</time>
      </trkpt>
      <trkpt lat="45.826" lon="3.3695">
        <ele>367.82</ele>
        <time>2020-08-14T14:03:21.000Z</time>
      </trkpt>
      <trkpt lat="45.82602" lon="3.36972">
        <ele>367.91</ele>
        <time>2020-08-14T14:03:26.000Z</time>
      </trkpt>
      <trkpt lat="45.82602" lon="3.36994">
        <ele>367.99</ele>
        <time>2020-08-14T14:03:31.000Z</time>
      </trkpt>
      <trkpt lat="45.82601" lon="3.37015">
        <ele>368.06</ele>
        <time>2020-08-14T14:03:36.000Z</time>
      </trkpt>
      <trkpt lat="45.82601" lon="3.37036">
        <ele>368.13</ele>
        <time>2020-08-14T14:03:41.000Z</time>
      </trkpt>
      <trkpt lat="45.82599" lon="3.37057">
        <ele>368.21</ele>
        <time>2020-08-14T14:03:46.000Z</time>
      </trkpt>
      <trkpt lat="45.82596" lon="3.37076">
        <ele>368.3</ele>
        <time>2020-08-14T14:03:51.000Z</time>
      </trkpt>
      <trkpt lat="45.82592" lon="3.37094">
        <ele>368.41</ele>
        <time>2020-08-14T14:03:56.000Z</time>
      </trkpt>
      <trkpt lat="45.82587" lon="3.37114">
        <ele>368.53</ele>
        <time>2020-08-14T14:04:01.000Z</time>
      </trkpt>
      <trkpt lat="45.82582" lon="3.37134">
        <ele>368.67</ele>
        <time>2020-08-14T14:04:06.000Z</time>
      </trkpt>
      <trkpt lat="45.82576" lon="3.37154">
        <ele>368.81</ele>
        <time>2020-08-14T14:04:11.000Z</time>
      </trkpt>
      <trkpt lat="45.82571" lon="3.3717">
        <ele>368.95</ele>
        <time>2020-08-14T14:04:16.000Z</time>
      </trkpt>
      <trkpt lat="45.82565" lon="3.37187">
        <ele>369.09</ele>
        <time>2020-08-14T14:04:21.000Z</time>
      </trkpt>
      <trkpt lat="45.8256" lon="3.37202">
        <ele>369.21</ele>
        <time>2020-08-14T14:04:26.000Z</time>
      </trkpt>
      <trkpt lat="45.82555" lon="3.37217">
        <ele>369.33</ele>
        <time>2020-08-14T14:04:31.000Z</time>
      </trkpt>
      <trkpt lat="45.82551" lon="3.37231">
        <ele>369.44</ele>
        <time>2020-08-14T14:04:36.000Z</time>
      </trkpt>
      <trkpt lat="45.82547" lon="3.37246">
        <ele>369.53</ele>
        <time>2020-08-14T14:04:41.000Z</time>
      </trkpt>
      <trkpt lat="45.82543" lon="3.3726">
        <ele>369.62</ele>
        <time>2020-08-14T14:04:46.000Z</time>
      </trkpt>
      <trkpt lat="45.82539" lon="3.37273">
        <ele>369.71</ele>
        <time>2020-08-14T14:04:51.000Z</time>
      </trkpt>
      <trkpt lat="45.82535" lon="3.37285">
        <ele>369.79</ele>
        <time>2020-08-14T14:04:56.000Z</time>
      </trkpt>
      <trkpt lat="45.82531" lon="3.37299">
        <ele>369.87</ele>
        <time>2020-08-14T14:05:02.000Z</time>
      </trkpt>
      <trkpt lat="45.82528" lon="3.37312">
        <ele>369.94</ele>
        <time>2020-08-14T14:05:07.000Z</time>
      </trkpt>
      <trkpt lat="45.82524" lon="3.37325">
        <ele>370.02</ele>
        <time>2020-08-14T14:05:13.000Z</time>
      </trkpt>
      <trkpt lat="45.82521" lon="3.37338">
        <ele>370.08</ele>
        <time>2020-08-14T14:05:18.000Z</time>
      </trkpt>
      <trkpt lat="45.82518" lon="3.37352">
        <ele>370.15</ele>
        <time>2020-08-14T14:05:23.000Z</time>
      </trkpt>
      <trkpt lat="45.82514" lon="3.37366">
        <ele>370.21</ele>
        <time>2020-08-14T14:05:28.000Z</time>
      </trkpt>
      <trkpt lat="45.8251" lon="3.37378">
        <ele>370.27</ele>
        <time>2020-08-14T14:05:33.000Z</time>
      </trkpt>
      <trkpt lat="45.82507" lon="3.37391">
        <ele>370.33</ele>
        <time>2020-08-14T14:05:38.000Z</time>
      </trkpt>
      <trkpt lat="45.82503" lon="3.37404">
        <ele>370.4</ele>
        <time>2020-08-14T14:05:43.000Z</time>
      </trkpt>
      <trkpt lat="45.82501" lon="3.37417">
        <ele>370.46</ele>
        <time>2020-08-14T14:05:48.000Z</time>
      </trkpt>
      <trkpt lat="45.82497" lon="3.3743">
        <ele>370.53</ele>
        <time>2020-08-14T14:05:53.000Z</time>
      </trkpt>
      <trkpt lat="45.82494" lon="3.37444">
        <ele>370.6</ele>
        <time>2020-08-14T14:05:58.000Z</time>
      </trkpt>
      <trkpt lat="45.8249" lon="3.37458">
        <ele>370.67</ele>
        <time>2020-08-14T14:06:03.000Z</time>
      </trkpt>
      <trkpt lat="45.82487" lon="3.37472">
        <ele>370.74</ele>
        <time>2020-08-14T14:06:08.000Z</time>
      </trkpt>
      <trkpt lat="45.82483" lon="3.37485">
        <ele>370.81</ele>
        <time>2020-08-14T14:06:13.000Z</time>
      </trkpt>
      <trkpt lat="45.82478" lon="3.37499">
        <ele>370.88</ele>
        <time>2020-08-14T14:06:18.000Z</time>
      </trkpt>
      <trkpt lat="45.82474" lon="3.37514">
        <ele>370.96</ele>
        <time>2020-08-14T14:06:23.000Z</time>
      </trkpt>
      <trkpt lat="45.82468" lon="3.3753">
        <ele>371.04</ele>
        <time>2020-08-14T14:06:27.999Z</time>
      </trkpt>
      <trkpt lat="45.82462" lon="3.37547">
        <ele>371.12</ele>
        <time>2020-08-14T14:06:32.999Z</time>
      </trkpt>
      <trkpt lat="45.82457" lon="3.37562">
        <ele>371.21</ele>
        <time>2020-08-14T14:06:37.999Z</time>
      </trkpt>
      <trkpt lat="45.8245" lon="3.3758">
        <ele>371.3</ele>
        <time>2020-08-14T14:06:42.999Z</time>
      </trkpt>
      <trkpt lat="45.82442" lon="3.37599">
        <ele>371.39</ele>
        <time>2020-08-14T14:06:47.999Z</time>
      </trkpt>
      <trkpt lat="45.82433" lon="3.37617">
        <ele>371.49</ele>
        <time>2020-08-14T14:06:52.999Z</time>
      </trkpt>
      <trkpt lat="45.82423" lon="3.37635">
        <ele>371.59</ele>
        <time>2020-08-14T14:06:57.999Z</time>
      </trkpt>
      <trkpt lat="45.82414" lon="3.37655">
        <ele>371.68</ele>
        <time>2020-08-14T14:07:02.999Z</time>
      </trkpt>
      <trkpt lat="45.82403" lon="3.37675">
        <ele>371.78</ele>
        <time>2020-08-14T14:07:07.999Z</time>
      </trkpt>
      <trkpt lat="45.82392" lon="3.37697">
        <ele>372.36</ele>
        <time>2020-08-14T14:07:12.999Z</time>
      </trkpt>
      <trkpt lat="45.8238" lon="3.37721">
        <ele>372.73</ele>
        <time>2020-08-14T14:07:17.999Z</time>
      </trkpt>
      <trkpt lat="45.82369" lon="3.37746">
        <ele>372.93</ele>
        <time>2020-08-14T14:07:22.999Z</time>
      </trkpt>
      <trkpt lat="45.82359" lon="3.37775">
        <ele>373.07</ele>
        <time>2020-08-14T14:07:27.999Z</time>
      </trkpt>
      <trkpt lat="45.82348" lon="3.37803">
        <ele>373.16</ele>
        <time>2020-08-14T14:07:32.999Z</time>
      </trkpt>
      <trkpt lat="45.8234" lon="3.37835">
        <ele>373.25</ele>
        <time>2020-08-14T14:07:37.999Z</time>
      </trkpt>
      <trkpt lat="45.82334" lon="3.37867">
        <ele>373.35</ele>
        <time>2020-08-14T14:07:42.999Z</time>
      </trkpt>
      <trkpt lat="45.82327" lon="3.37899">
        <ele>373.45</ele>
        <time>2020-08-14T14:07:47.999Z</time>
      </trkpt>
      <trkpt lat="45.82316" lon="3.37925">
        <ele>373.54</ele>
        <time>2020-08-14T14:07:52.999Z</time>
      </trkpt>
      <trkpt lat="45.82315" lon="3.37953">
        <ele>373.65</ele>
        <time>2020-08-14T14:07:57.999Z</time>
      </trkpt>
      <trkpt lat="45.82319" lon="3.37982">
        <ele>373.79</ele>
        <time>2020-08-14T14:08:02.999Z</time>
      </trkpt>
      <trkpt lat="45.8232" lon="3.3801">
        <ele>373.91</ele>
        <time>2020-08-14T14:08:07.999Z</time>
      </trkpt>
      <trkpt lat="45.82321" lon="3.38029">
        <ele>373.94</ele>
        <time>2020-08-14T14:08:12.999Z</time>
      </trkpt>
      <trkpt lat="45.82322" lon="3.38042">
        <ele>374.01</ele>
        <time>2020-08-14T14:08:39.999Z</time>
      </trkpt>
      <trkpt lat="45.82315" lon="3.38033">
        <ele>376.16</ele>
        <time>2020-08-14T14:11:48.999Z</time>
      </trkpt>
      <trkpt lat="45.82307" lon="3.38027">
        <ele>376.9</ele>
        <time>2020-08-14T14:13:12.999Z</time>
      </trkpt>
      <trkpt lat="45.82298" lon="3.3803">
        <ele>377.06</ele>
        <time>2020-08-14T14:13:35.999Z</time>
      </trkpt>
      <trkpt lat="45.82289" lon="3.38029">
        <ele>377.39</ele>
        <time>2020-08-14T14:14:44.999Z</time>
      </trkpt>
      <trkpt lat="45.8229" lon="3.38045">
        <ele>376.53</ele>
        <time>2020-08-14T14:18:56.000Z</time>
      </trkpt>
      <trkpt lat="45.82293" lon="3.38063">
        <ele>376.33</ele>
        <time>2020-08-14T14:19:01.000Z</time>
      </trkpt>
      <trkpt lat="45.82295" lon="3.3808">
        <ele>376.14</ele>
        <time>2020-08-14T14:19:06.000Z</time>
      </trkpt>
      <trkpt lat="45.82296" lon="3.38103">
        <ele>375.96</ele>
        <time>2020-08-14T14:19:11.000Z</time>
      </trkpt>
      <trkpt lat="45.82299" lon="3.38128">
        <ele>375.78</ele>
        <time>2020-08-14T14:19:16.000Z</time>
      </trkpt>
      <trkpt lat="45.82301" lon="3.38153">
        <ele>374.8</ele>
        <time>2020-08-14T14:19:21.000Z</time>
      </trkpt>
      <trkpt lat="45.82302" lon="3.38183">
        <ele>374.25</ele>
        <time>2020-08-14T14:19:26.000Z</time>
      </trkpt>
      <trkpt lat="45.82304" lon="3.38209">
        <ele>374.03</ele>
        <time>2020-08-14T14:19:31.000Z</time>
      </trkpt>
      <trkpt lat="45.82306" lon="3.38234">
        <ele>373.98</ele>
        <time>2020-08-14T14:19:36.000Z</time>
      </trkpt>
      <trkpt lat="45.82306" lon="3.38262">
        <ele>373.96</ele>
        <time>2020-08-14T14:19:41.000Z</time>
      </trkpt>
      <trkpt lat="45.82305" lon="3.38289">
        <ele>373.84</ele>
        <time>2020-08-14T14:19:46.000Z</time>
      </trkpt>
      <trkpt lat="45.82305" lon="3.38316">
        <ele>373.7</ele>
        <time>2020-08-14T14:19:51.000Z</time>
      </trkpt>
      <trkpt lat="45.82305" lon="3.38342">
        <ele>373.63</ele>
        <time>2020-08-14T14:19:56.000Z</time>
      </trkpt>
      <trkpt lat="45.82305" lon="3.3837">
        <ele>373.58</ele>
        <time>2020-08-14T14:20:01.000Z</time>
      </trkpt>
      <trkpt lat="45.82307" lon="3.38397">
        <ele>373.54</ele>
        <time>2020-08-14T14:20:06.000Z</time>
      </trkpt>
      <trkpt lat="45.82311" lon="3.38423">
        <ele>373.5</ele>
        <time>2020-08-14T14:20:11.000Z</time>
      </trkpt>
      <trkpt lat="45.82323" lon="3.38454">
        <ele>373.46</ele>
        <time>2020-08-14T14:20:16.000Z</time>
      </trkpt>
      <trkpt lat="45.8234" lon="3.38471">
        <ele>373.44</ele>
        <time>2020-08-14T14:20:21.000Z</time>
      </trkpt>
      <trkpt lat="45.82357" lon="3.38484">
        <ele>373.44</ele>
        <time>2020-08-14T14:20:26.000Z</time>
      </trkpt>
      <trkpt lat="45.82355" lon="3.38469">
        <ele>373.44</ele>
        <time>2020-08-14T14:20:48.000Z</time>
      </trkpt>
      <trkpt lat="45.82348" lon="3.3845">
        <ele>373.45</ele>
        <time>2020-08-14T14:20:53.000Z</time>
      </trkpt>
      <trkpt lat="45.82334" lon="3.38451">
        <ele>373.47</ele>
        <time>2020-08-14T14:20:58.000Z</time>
      </trkpt>
      <trkpt lat="45.82324" lon="3.38473">
        <ele>373.48</ele>
        <time>2020-08-14T14:21:03.000Z</time>
      </trkpt>
      <trkpt lat="45.82313" lon="3.38495">
        <ele>373.56</ele>
        <time>2020-08-14T14:21:08.000Z</time>
      </trkpt>
      <trkpt lat="45.82299" lon="3.38522">
        <ele>373.7</ele>
        <time>2020-08-14T14:21:13.000Z</time>
      </trkpt>
      <trkpt lat="45.82286" lon="3.3855">
        <ele>373.75</ele>
        <time>2020-08-14T14:21:18.000Z</time>
      </trkpt>
      <trkpt lat="45.82273" lon="3.38579">
        <ele>373.75</ele>
        <time>2020-08-14T14:21:23.000Z</time>
      </trkpt>
      <trkpt lat="45.8226" lon="3.38607">
        <ele>373.72</ele>
        <time>2020-08-14T14:21:28.000Z</time>
      </trkpt>
      <trkpt lat="45.82249" lon="3.38629">
        <ele>373.84</ele>
        <time>2020-08-14T14:21:33.000Z</time>
      </trkpt>
      <trkpt lat="45.82233" lon="3.38662">
        <ele>374.17</ele>
        <time>2020-08-14T14:21:38.000Z</time>
      </trkpt>
      <trkpt lat="45.82216" lon="3.38698">
        <ele>374.36</ele>
        <time>2020-08-14T14:21:43.000Z</time>
      </trkpt>
      <trkpt lat="45.82203" lon="3.38725">
        <ele>374.5</ele>
        <time>2020-08-14T14:21:48.000Z</time>
      </trkpt>
      <trkpt lat="45.82187" lon="3.38758">
        <ele>374.78</ele>
        <time>2020-08-14T14:21:53.000Z</time>
      </trkpt>
      <trkpt lat="45.82171" lon="3.38791">
        <ele>374.8</ele>
        <time>2020-08-14T14:21:58.000Z</time>
      </trkpt>
      <trkpt lat="45.82158" lon="3.38821">
        <ele>374.66</ele>
        <time>2020-08-14T14:22:03.000Z</time>
      </trkpt>
      <trkpt lat="45.82144" lon="3.38848">
        <ele>374.48</ele>
        <time>2020-08-14T14:22:08.000Z</time>
      </trkpt>
      <trkpt lat="45.8213" lon="3.38875">
        <ele>374.37</ele>
        <time>2020-08-14T14:22:13.000Z</time>
      </trkpt>
      <trkpt lat="45.82113" lon="3.38908">
        <ele>374.27</ele>
        <time>2020-08-14T14:22:18.000Z</time>
      </trkpt>
      <trkpt lat="45.82098" lon="3.38937">
        <ele>374.21</ele>
        <time>2020-08-14T14:22:23.000Z</time>
      </trkpt>
      <trkpt lat="45.82082" lon="3.3897">
        <ele>374.1</ele>
        <time>2020-08-14T14:22:28.000Z</time>
      </trkpt>
      <trkpt lat="45.82067" lon="3.39006">
        <ele>373.91</ele>
        <time>2020-08-14T14:22:33.000Z</time>
      </trkpt>
      <trkpt lat="45.82049" lon="3.39039">
        <ele>373.74</ele>
        <time>2020-08-14T14:22:38.000Z</time>
      </trkpt>
      <trkpt lat="45.82032" lon="3.39074">
        <ele>373.54</ele>
        <time>2020-08-14T14:22:43.000Z</time>
      </trkpt>
      <trkpt lat="45.82016" lon="3.3911">
        <ele>373.31</ele>
        <time>2020-08-14T14:22:48.000Z</time>
      </trkpt>
      <trkpt lat="45.81999" lon="3.39146">
        <ele>372.95</ele>
        <time>2020-08-14T14:22:53.000Z</time>
      </trkpt>
      <trkpt lat="45.81982" lon="3.3918">
        <ele>372.53</ele>
        <time>2020-08-14T14:22:58.000Z</time>
      </trkpt>
      <trkpt lat="45.81963" lon="3.39213">
        <ele>372.13</ele>
        <time>2020-08-14T14:23:03.000Z</time>
      </trkpt>
      <trkpt lat="45.81946" lon="3.39238">
        <ele>371.77</ele>
        <time>2020-08-14T14:23:08.000Z</time>
      </trkpt>
      <trkpt lat="45.81924" lon="3.39257">
        <ele>371.38</ele>
        <time>2020-08-14T14:23:13.000Z</time>
      </trkpt>
      <trkpt lat="45.81912" lon="3.39273">
        <ele>371.16</ele>
        <time>2020-08-14T14:23:18.000Z</time>
      </trkpt>
      <trkpt lat="45.8192" lon="3.39263">
        <ele>370.87</ele>
        <time>2020-08-14T14:23:33.000Z</time>
      </trkpt>
      <trkpt lat="45.81931" lon="3.39253">
        <ele>370.65</ele>
        <time>2020-08-14T14:23:38.000Z</time>
      </trkpt>
      <trkpt lat="45.81944" lon="3.39242">
        <ele>370.45</ele>
        <time>2020-08-14T14:23:43.000Z</time>
      </trkpt>
      <trkpt lat="45.81957" lon="3.39234">
        <ele>370.28</ele>
        <time>2020-08-14T14:23:48.000Z</time>
      </trkpt>
      <trkpt lat="45.81974" lon="3.39237">
        <ele>370.1</ele>
        <time>2020-08-14T14:23:53.000Z</time>
      </trkpt>
      <trkpt lat="45.8199" lon="3.39237">
        <ele>369.95</ele>
        <time>2020-08-14T14:23:58.000Z</time>
      </trkpt>
      <trkpt lat="45.82001" lon="3.39237">
        <ele>369.82</ele>
        <time>2020-08-14T14:24:03.000Z</time>
      </trkpt>
      <trkpt lat="45.81992" lon="3.3923">
        <ele>369.95</ele>
        <time>2020-08-14T14:24:40.000Z</time>
      </trkpt>
      <trkpt lat="45.81979" lon="3.39225">
        <ele>370.17</ele>
        <time>2020-08-14T14:24:45.000Z</time>
      </trkpt>
      <trkpt lat="45.81964" lon="3.39236">
        <ele>371.04</ele>
        <time>2020-08-14T14:24:50.000Z</time>
      </trkpt>
      <trkpt lat="45.81947" lon="3.39253">
        <ele>372.13</ele>
        <time>2020-08-14T14:24:55.000Z</time>
      </trkpt>
      <trkpt lat="45.81936" lon="3.39259">
        <ele>372.28</ele>
        <time>2020-08-14T14:25:00.000Z</time>
      </trkpt>
      <trkpt lat="45.81932" lon="3.39283">
        <ele>372.7</ele>
        <time>2020-08-14T14:25:05.000Z</time>
      </trkpt>
      <trkpt lat="45.81925" lon="3.39314">
        <ele>373.72</ele>
        <time>2020-08-14T14:25:10.000Z</time>
      </trkpt>
      <trkpt lat="45.81917" lon="3.39348">
        <ele>373.9</ele>
        <time>2020-08-14T14:25:15.000Z</time>
      </trkpt>
      <trkpt lat="45.81911" lon="3.39385">
        <ele>373.75</ele>
        <time>2020-08-14T14:25:20.000Z</time>
      </trkpt>
      <trkpt lat="45.81905" lon="3.39423">
        <ele>373.55</ele>
        <time>2020-08-14T14:25:25.000Z</time>
      </trkpt>
      <trkpt lat="45.81897" lon="3.39464">
        <ele>373.47</ele>
        <time>2020-08-14T14:25:30.000Z</time>
      </trkpt>
      <trkpt lat="45.81891" lon="3.39505">
        <ele>373.51</ele>
        <time>2020-08-14T14:25:35.000Z</time>
      </trkpt>
      <trkpt lat="45.81884" lon="3.39548">
        <ele>373.58</ele>
        <time>2020-08-14T14:25:40.000Z</time>
      </trkpt>
      <trkpt lat="45.81882" lon="3.39595">
        <ele>373.56</ele>
        <time>2020-08-14T14:25:45.000Z</time>
      </trkpt>
      <trkpt lat="45.81886" lon="3.39642">
        <ele>373.17</ele>
        <time>2020-08-14T14:25:50.000Z</time>
      </trkpt>
      <trkpt lat="45.81884" lon="3.39687">
        <ele>373</ele>
        <time>2020-08-14T14:25:55.000Z</time>
      </trkpt>
      <trkpt lat="45.81873" lon="3.39724">
        <ele>373.44</ele>
        <time>2020-08-14T14:26:00.000Z</time>
      </trkpt>
      <trkpt lat="45.81864" lon="3.39751">
        <ele>373.89</ele>
        <time>2020-08-14T14:26:05.000Z</time>
      </trkpt>
      <trkpt lat="45.81857" lon="3.3977">
        <ele>373.96</ele>
        <time>2020-08-14T14:26:10.000Z</time>
      </trkpt>
      <trkpt lat="45.81852" lon="3.39788">
        <ele>373.99</ele>
        <time>2020-08-14T14:26:15.000Z</time>
      </trkpt>
      <trkpt lat="45.81848" lon="3.39805">
        <ele>374.05</ele>
        <time>2020-08-14T14:26:20.000Z</time>
      </trkpt>
      <trkpt lat="45.81846" lon="3.39818">
        <ele>374.12</ele>
        <time>2020-08-14T14:26:25.000Z</time>
      </trkpt>
      <trkpt lat="45.81845" lon="3.39831">
        <ele>374.27</ele>
        <time>2020-08-14T14:26:30.000Z</time>
      </trkpt>
      <trkpt lat="45.81842" lon="3.39846">
        <ele>374.56</ele>
        <time>2020-08-14T14:26:35.000Z</time>
      </trkpt>
      <trkpt lat="45.81839" lon="3.39866">
        <ele>374.86</ele>
        <time>2020-08-14T14:26:40.000Z</time>
      </trkpt>
      <trkpt lat="45.81837" lon="3.39888">
        <ele>375.22</ele>
        <time>2020-08-14T14:26:45.000Z</time>
      </trkpt>
      <trkpt lat="45.81833" lon="3.39916">
        <ele>377.72</ele>
        <time>2020-08-14T14:26:50.000Z</time>
      </trkpt>
      <trkpt lat="45.8183" lon="3.39951">
        <ele>379.54</ele>
        <time>2020-08-14T14:26:55.000Z</time>
      </trkpt>
      <trkpt lat="45.81826" lon="3.39982">
        <ele>380.68</ele>
        <time>2020-08-14T14:27:00.000Z</time>
      </trkpt>
      <trkpt lat="45.81823" lon="3.40014">
        <ele>381.32</ele>
        <time>2020-08-14T14:27:05.000Z</time>
      </trkpt>
      <trkpt lat="45.8182" lon="3.40043">
        <ele>381.62</ele>
        <time>2020-08-14T14:27:10.000Z</time>
      </trkpt>
      <trkpt lat="45.81817" lon="3.40071">
        <ele>381.74</ele>
        <time>2020-08-14T14:27:15.000Z</time>
      </trkpt>
      <trkpt lat="45.81819" lon="3.40099">
        <ele>381.75</ele>
        <time>2020-08-14T14:27:20.000Z</time>
      </trkpt>
      <trkpt lat="45.81822" lon="3.40126">
        <ele>381.65</ele>
        <time>2020-08-14T14:27:25.000Z</time>
      </trkpt>
      <trkpt lat="45.81828" lon="3.40151">
        <ele>381.63</ele>
        <time>2020-08-14T14:27:30.000Z</time>
      </trkpt>
      <trkpt lat="45.81831" lon="3.40177">
        <ele>381.77</ele>
        <time>2020-08-14T14:27:35.000Z</time>
      </trkpt>
      <trkpt lat="45.81836" lon="3.40204">
        <ele>381.87</ele>
        <time>2020-08-14T14:27:40.000Z</time>
      </trkpt>
      <trkpt lat="45.81842" lon="3.40235">
        <ele>381.83</ele>
        <time>2020-08-14T14:27:45.000Z</time>
      </trkpt>
      <trkpt lat="45.81848" lon="3.40269">
        <ele>381.26</ele>
        <time>2020-08-14T14:27:50.000Z</time>
      </trkpt>
      <trkpt lat="45.81856" lon="3.40304">
        <ele>380.86</ele>
        <time>2020-08-14T14:27:55.000Z</time>
      </trkpt>
      <trkpt lat="45.81862" lon="3.40341">
        <ele>380.39</ele>
        <time>2020-08-14T14:28:00.000Z</time>
      </trkpt>
      <trkpt lat="45.8187" lon="3.40379">
        <ele>380.01</ele>
        <time>2020-08-14T14:28:05.000Z</time>
      </trkpt>
      <trkpt lat="45.81877" lon="3.40418">
        <ele>379.93</ele>
        <time>2020-08-14T14:28:10.000Z</time>
      </trkpt>
      <trkpt lat="45.81881" lon="3.40455">
        <ele>379.79</ele>
        <time>2020-08-14T14:28:15.000Z</time>
      </trkpt>
      <trkpt lat="45.81888" lon="3.40493">
        <ele>379.85</ele>
        <time>2020-08-14T14:28:20.000Z</time>
      </trkpt>
      <trkpt lat="45.81895" lon="3.40528">
        <ele>380.01</ele>
        <time>2020-08-14T14:28:25.000Z</time>
      </trkpt>
      <trkpt lat="45.81902" lon="3.40567">
        <ele>380.1</ele>
        <time>2020-08-14T14:28:30.000Z</time>
      </trkpt>
      <trkpt lat="45.81907" lon="3.40607">
        <ele>380.19</ele>
        <time>2020-08-14T14:28:35.000Z</time>
      </trkpt>
      <trkpt lat="45.81907" lon="3.40645">
        <ele>380.59</ele>
        <time>2020-08-14T14:28:40.000Z</time>
      </trkpt>
      <trkpt lat="45.819" lon="3.40675">
        <ele>380.94</ele>
        <time>2020-08-14T14:28:45.000Z</time>
      </trkpt>
      <trkpt lat="45.81893" lon="3.40705">
        <ele>381.14</ele>
        <time>2020-08-14T14:28:50.000Z</time>
      </trkpt>
      <trkpt lat="45.81893" lon="3.40735">
        <ele>381.27</ele>
        <time>2020-08-14T14:28:55.000Z</time>
      </trkpt>
      <trkpt lat="45.81898" lon="3.40757">
        <ele>381.34</ele>
        <time>2020-08-14T14:29:00.000Z</time>
      </trkpt>
      <trkpt lat="45.81905" lon="3.40779">
        <ele>381.42</ele>
        <time>2020-08-14T14:29:05.000Z</time>
      </trkpt>
      <trkpt lat="45.81915" lon="3.40802">
        <ele>381.45</ele>
        <time>2020-08-14T14:29:10.000Z</time>
      </trkpt>
      <trkpt lat="45.81926" lon="3.40824">
        <ele>381.47</ele>
        <time>2020-08-14T14:29:15.000Z</time>
      </trkpt>
      <trkpt lat="45.81938" lon="3.40845">
        <ele>381.48</ele>
        <time>2020-08-14T14:29:20.000Z</time>
      </trkpt>
      <trkpt lat="45.81949" lon="3.40869">
        <ele>381.5</ele>
        <time>2020-08-14T14:29:25.000Z</time>
      </trkpt>
      <trkpt lat="45.81959" lon="3.40891">
        <ele>381.53</ele>
        <time>2020-08-14T14:29:30.000Z</time>
      </trkpt>
      <trkpt lat="45.81971" lon="3.40912">
        <ele>381.6</ele>
        <time>2020-08-14T14:29:35.000Z</time>
      </trkpt>
      <trkpt lat="45.81981" lon="3.40939">
        <ele>381.69</ele>
        <time>2020-08-14T14:29:40.000Z</time>
      </trkpt>
      <trkpt lat="45.81989" lon="3.40972">
        <ele>381.75</ele>
        <time>2020-08-14T14:29:45.000Z</time>
      </trkpt>
      <trkpt lat="45.81992" lon="3.41003">
        <ele>381.77</ele>
        <time>2020-08-14T14:29:50.000Z</time>
      </trkpt>
      <trkpt lat="45.81995" lon="3.41029">
        <ele>381.79</ele>
        <time>2020-08-14T14:29:55.000Z</time>
      </trkpt>
      <trkpt lat="45.81996" lon="3.41054">
        <ele>381.81</ele>
        <time>2020-08-14T14:30:00.000Z</time>
      </trkpt>
      <trkpt lat="45.81997" lon="3.41076">
        <ele>381.84</ele>
        <time>2020-08-14T14:30:05.000Z</time>
      </trkpt>
      <trkpt lat="45.81996" lon="3.41098">
        <ele>381.88</ele>
        <time>2020-08-14T14:30:10.000Z</time>
      </trkpt>
      <trkpt lat="45.81994" lon="3.41121">
        <ele>381.93</ele>
        <time>2020-08-14T14:30:15.000Z</time>
      </trkpt>
      <trkpt lat="45.8199" lon="3.41145">
        <ele>382</ele>
        <time>2020-08-14T14:30:20.000Z</time>
      </trkpt>
      <trkpt lat="45.81985" lon="3.41168">
        <ele>382.07</ele>
        <time>2020-08-14T14:30:25.000Z</time>
      </trkpt>
      <trkpt lat="45.81976" lon="3.4119">
        <ele>382.15</ele>
        <time>2020-08-14T14:30:30.000Z</time>
      </trkpt>
      <trkpt lat="45.81964" lon="3.41211">
        <ele>382.24</ele>
        <time>2020-08-14T14:30:35.000Z</time>
      </trkpt>
      <trkpt lat="45.81952" lon="3.41233">
        <ele>382.92</ele>
        <time>2020-08-14T14:30:39.999Z</time>
      </trkpt>
      <trkpt lat="45.81942" lon="3.41256">
        <ele>383.26</ele>
        <time>2020-08-14T14:30:44.999Z</time>
      </trkpt>
      <trkpt lat="45.81935" lon="3.41281">
        <ele>383.38</ele>
        <time>2020-08-14T14:30:49.999Z</time>
      </trkpt>
      <trkpt lat="45.81928" lon="3.41304">
        <ele>383.46</ele>
        <time>2020-08-14T14:30:54.999Z</time>
      </trkpt>
      <trkpt lat="45.8192" lon="3.41326">
        <ele>383.5</ele>
        <time>2020-08-14T14:30:59.999Z</time>
      </trkpt>
      <trkpt lat="45.81913" lon="3.41348">
        <ele>383.53</ele>
        <time>2020-08-14T14:31:04.999Z</time>
      </trkpt>
      <trkpt lat="45.81906" lon="3.41368">
        <ele>383.57</ele>
        <time>2020-08-14T14:31:09.999Z</time>
      </trkpt>
      <trkpt lat="45.81899" lon="3.41387">
        <ele>383.61</ele>
        <time>2020-08-14T14:31:14.999Z</time>
      </trkpt>
      <trkpt lat="45.81893" lon="3.41407">
        <ele>383.65</ele>
        <time>2020-08-14T14:31:19.999Z</time>
      </trkpt>
      <trkpt lat="45.81885" lon="3.41427">
        <ele>383.68</ele>
        <time>2020-08-14T14:31:24.999Z</time>
      </trkpt>
      <trkpt lat="45.81879" lon="3.41445">
        <ele>383.72</ele>
        <time>2020-08-14T14:31:29.999Z</time>
      </trkpt>
      <trkpt lat="45.81874" lon="3.41464">
        <ele>383.76</ele>
        <time>2020-08-14T14:31:34.999Z</time>
      </trkpt>
      <trkpt lat="45.81868" lon="3.41484">
        <ele>383.79</ele>
        <time>2020-08-14T14:31:39.999Z</time>
      </trkpt>
      <trkpt lat="45.81862" lon="3.41508">
        <ele>383.83</ele>
        <time>2020-08-14T14:31:44.999Z</time>
      </trkpt>
      <trkpt lat="45.81857" lon="3.41533">
        <ele>383.87</ele>
        <time>2020-08-14T14:31:49.999Z</time>
      </trkpt>
      <trkpt lat="45.81851" lon="3.41559">
        <ele>384.12</ele>
        <time>2020-08-14T14:31:54.999Z</time>
      </trkpt>
      <trkpt lat="45.8185" lon="3.41588">
        <ele>384.25</ele>
        <time>2020-08-14T14:31:59.999Z</time>
      </trkpt>
      <trkpt lat="45.81849" lon="3.41616">
        <ele>384.35</ele>
        <time>2020-08-14T14:32:04.999Z</time>
      </trkpt>
      <trkpt lat="45.81849" lon="3.41644">
        <ele>384.42</ele>
        <time>2020-08-14T14:32:09.999Z</time>
      </trkpt>
      <trkpt lat="45.81849" lon="3.4167">
        <ele>384.46</ele>
        <time>2020-08-14T14:32:14.999Z</time>
      </trkpt>
      <trkpt lat="45.81849" lon="3.41695">
        <ele>384.49</ele>
        <time>2020-08-14T14:32:19.999Z</time>
      </trkpt>
      <trkpt lat="45.81849" lon="3.41718">
        <ele>384.52</ele>
        <time>2020-08-14T14:32:24.999Z</time>
      </trkpt>
      <trkpt lat="45.81849" lon="3.4174">
        <ele>384.56</ele>
        <time>2020-08-14T14:32:29.999Z</time>
      </trkpt>
      <trkpt lat="45.81849" lon="3.41761">
        <ele>384.62</ele>
        <time>2020-08-14T14:32:34.999Z</time>
      </trkpt>
      <trkpt lat="45.81849" lon="3.41782">
        <ele>384.68</ele>
        <time>2020-08-14T14:32:39.999Z</time>
      </trkpt>
      <trkpt lat="45.81849" lon="3.41803">
        <ele>384.75</ele>
        <time>2020-08-14T14:32:44.999Z</time>
      </trkpt>
      <trkpt lat="45.81849" lon="3.41823">
        <ele>384.84</ele>
        <time>2020-08-14T14:32:49.999Z</time>
      </trkpt>
      <trkpt lat="45.81849" lon="3.41844">
        <ele>384.93</ele>
        <time>2020-08-14T14:32:54.999Z</time>
      </trkpt>
      <trkpt lat="45.81849" lon="3.41864">
        <ele>385.02</ele>
        <time>2020-08-14T14:32:59.999Z</time>
      </trkpt>
      <trkpt lat="45.81849" lon="3.41885">
        <ele>385.12</ele>
        <time>2020-08-14T14:33:04.999Z</time>
      </trkpt>
      <trkpt lat="45.81849" lon="3.41908">
        <ele>385.22</ele>
        <time>2020-08-14T14:33:09.999Z</time>
      </trkpt>
      <trkpt lat="45.81849" lon="3.41929">
        <ele>385.32</ele>
        <time>2020-08-14T14:33:14.999Z</time>
      </trkpt>
      <trkpt lat="45.81849" lon="3.41949">
        <ele>385.42</ele>
        <time>2020-08-14T14:33:19.999Z</time>
      </trkpt>
      <trkpt lat="45.81849" lon="3.41968">
        <ele>385.51</ele>
        <time>2020-08-14T14:33:24.999Z</time>
      </trkpt>
      <trkpt lat="45.8185" lon="3.41982">
        <ele>385.61</ele>
        <time>2020-08-14T14:33:29.999Z</time>
      </trkpt>
      <trkpt lat="45.8185" lon="3.41999">
        <ele>385.7</ele>
        <time>2020-08-14T14:33:34.999Z</time>
      </trkpt>
      <trkpt lat="45.81851" lon="3.42017">
        <ele>385.79</ele>
        <time>2020-08-14T14:33:39.999Z</time>
      </trkpt>
      <trkpt lat="45.81851" lon="3.42036">
        <ele>385.89</ele>
        <time>2020-08-14T14:33:44.999Z</time>
      </trkpt>
      <trkpt lat="45.81852" lon="3.42053">
        <ele>386</ele>
        <time>2020-08-14T14:33:49.999Z</time>
      </trkpt>
      <trkpt lat="45.81851" lon="3.42073">
        <ele>386.11</ele>
        <time>2020-08-14T14:33:54.999Z</time>
      </trkpt>
      <trkpt lat="45.8185" lon="3.42088">
        <ele>386.22</ele>
        <time>2020-08-14T14:33:59.999Z</time>
      </trkpt>
      <trkpt lat="45.8185" lon="3.42102">
        <ele>386.33</ele>
        <time>2020-08-14T14:34:04.999Z</time>
      </trkpt>
      <trkpt lat="45.81851" lon="3.42117">
        <ele>386.46</ele>
        <time>2020-08-14T14:34:10.999Z</time>
      </trkpt>
      <trkpt lat="45.81851" lon="3.42131">
        <ele>386.59</ele>
        <time>2020-08-14T14:34:16.999Z</time>
      </trkpt>
      <trkpt lat="45.81851" lon="3.42145">
        <ele>386.73</ele>
        <time>2020-08-14T14:34:22.999Z</time>
      </trkpt>
      <trkpt lat="45.81849" lon="3.42158">
        <ele>386.9</ele>
        <time>2020-08-14T14:34:29.999Z</time>
      </trkpt>
      <trkpt lat="45.81849" lon="3.42172">
        <ele>387.03</ele>
        <time>2020-08-14T14:34:34.999Z</time>
      </trkpt>
      <trkpt lat="45.81849" lon="3.42186">
        <ele>387.16</ele>
        <time>2020-08-14T14:34:39.999Z</time>
      </trkpt>
      <trkpt lat="45.81849" lon="3.42201">
        <ele>387.29</ele>
        <time>2020-08-14T14:34:44.999Z</time>
      </trkpt>
      <trkpt lat="45.81849" lon="3.42216">
        <ele>387.42</ele>
        <time>2020-08-14T14:34:49.999Z</time>
      </trkpt>
      <trkpt lat="45.8185" lon="3.42229">
        <ele>387.57</ele>
        <time>2020-08-14T14:34:54.999Z</time>
      </trkpt>
      <trkpt lat="45.8185" lon="3.42244">
        <ele>387.71</ele>
        <time>2020-08-14T14:34:59.999Z</time>
      </trkpt>
      <trkpt lat="45.81853" lon="3.42261">
        <ele>387.86</ele>
        <time>2020-08-14T14:35:04.999Z</time>
      </trkpt>
      <trkpt lat="45.81859" lon="3.42279">
        <ele>388</ele>
        <time>2020-08-14T14:35:09.999Z</time>
      </trkpt>
      <trkpt lat="45.81868" lon="3.42297">
        <ele>388.16</ele>
        <time>2020-08-14T14:35:14.999Z</time>
      </trkpt>
      <trkpt lat="45.81877" lon="3.42319">
        <ele>388.32</ele>
        <time>2020-08-14T14:35:19.999Z</time>
      </trkpt>
      <trkpt lat="45.81886" lon="3.42338">
        <ele>388.5</ele>
        <time>2020-08-14T14:35:24.999Z</time>
      </trkpt>
      <trkpt lat="45.81894" lon="3.4236">
        <ele>388.69</ele>
        <time>2020-08-14T14:35:29.999Z</time>
      </trkpt>
      <trkpt lat="45.819" lon="3.42383">
        <ele>388.87</ele>
        <time>2020-08-14T14:35:34.999Z</time>
      </trkpt>
      <trkpt lat="45.81904" lon="3.42406">
        <ele>389.04</ele>
        <time>2020-08-14T14:35:39.999Z</time>
      </trkpt>
      <trkpt lat="45.81909" lon="3.4243">
        <ele>389.21</ele>
        <time>2020-08-14T14:35:44.999Z</time>
      </trkpt>
      <trkpt lat="45.81914" lon="3.42454">
        <ele>389.38</ele>
        <time>2020-08-14T14:35:49.999Z</time>
      </trkpt>
      <trkpt lat="45.81918" lon="3.4248">
        <ele>389.56</ele>
        <time>2020-08-14T14:35:54.999Z</time>
      </trkpt>
      <trkpt lat="45.81919" lon="3.42505">
        <ele>390.01</ele>
        <time>2020-08-14T14:35:59.999Z</time>
      </trkpt>
      <trkpt lat="45.8192" lon="3.42524">
        <ele>390.15</ele>
        <time>2020-08-14T14:36:04.999Z</time>
      </trkpt>
      <trkpt lat="45.8192" lon="3.42543">
        <ele>390.29</ele>
        <time>2020-08-14T14:36:09.999Z</time>
      </trkpt>
      <trkpt lat="45.81921" lon="3.42563">
        <ele>390.44</ele>
        <time>2020-08-14T14:36:14.999Z</time>
      </trkpt>
      <trkpt lat="45.81924" lon="3.42584">
        <ele>390.6</ele>
        <time>2020-08-14T14:36:19.999Z</time>
      </trkpt>
      <trkpt lat="45.81927" lon="3.42603">
        <ele>390.76</ele>
        <time>2020-08-14T14:36:24.999Z</time>
      </trkpt>
      <trkpt lat="45.81931" lon="3.42622">
        <ele>390.93</ele>
        <time>2020-08-14T14:36:29.999Z</time>
      </trkpt>
      <trkpt lat="45.81933" lon="3.42647">
        <ele>391.11</ele>
        <time>2020-08-14T14:36:34.999Z</time>
      </trkpt>
      <trkpt lat="45.8194" lon="3.42669">
        <ele>391.3</ele>
        <time>2020-08-14T14:36:39.999Z</time>
      </trkpt>
      <trkpt lat="45.81944" lon="3.42692">
        <ele>391.49</ele>
        <time>2020-08-14T14:36:44.999Z</time>
      </trkpt>
      <trkpt lat="45.81949" lon="3.42718">
        <ele>391.68</ele>
        <time>2020-08-14T14:36:49.999Z</time>
      </trkpt>
      <trkpt lat="45.81952" lon="3.42744">
        <ele>391.88</ele>
        <time>2020-08-14T14:36:54.999Z</time>
      </trkpt>
      <trkpt lat="45.81955" lon="3.42769">
        <ele>392.09</ele>
        <time>2020-08-14T14:36:59.999Z</time>
      </trkpt>
      <trkpt lat="45.8196" lon="3.42794">
        <ele>392.29</ele>
        <time>2020-08-14T14:37:04.999Z</time>
      </trkpt>
      <trkpt lat="45.81966" lon="3.42818">
        <ele>392.5</ele>
        <time>2020-08-14T14:37:09.999Z</time>
      </trkpt>
      <trkpt lat="45.81972" lon="3.42839">
        <ele>392.71</ele>
        <time>2020-08-14T14:37:14.999Z</time>
      </trkpt>
      <trkpt lat="45.81979" lon="3.42859">
        <ele>392.93</ele>
        <time>2020-08-14T14:37:19.999Z</time>
      </trkpt>
      <trkpt lat="45.81986" lon="3.42883">
        <ele>393.15</ele>
        <time>2020-08-14T14:37:24.999Z</time>
      </trkpt>
      <trkpt lat="45.81994" lon="3.42909">
        <ele>394.03</ele>
        <time>2020-08-14T14:37:29.999Z</time>
      </trkpt>
      <trkpt lat="45.82001" lon="3.42935">
        <ele>394.95</ele>
        <time>2020-08-14T14:37:34.999Z</time>
      </trkpt>
      <trkpt lat="45.82008" lon="3.42961">
        <ele>395.31</ele>
        <time>2020-08-14T14:37:39.999Z</time>
      </trkpt>
      <trkpt lat="45.82016" lon="3.42989">
        <ele>395.65</ele>
        <time>2020-08-14T14:37:44.999Z</time>
      </trkpt>
      <trkpt lat="45.82024" lon="3.43017">
        <ele>395.99</ele>
        <time>2020-08-14T14:37:49.999Z</time>
      </trkpt>
      <trkpt lat="45.82032" lon="3.43042">
        <ele>396.13</ele>
        <time>2020-08-14T14:37:54.999Z</time>
      </trkpt>
      <trkpt lat="45.82041" lon="3.43066">
        <ele>396.18</ele>
        <time>2020-08-14T14:37:59.999Z</time>
      </trkpt>
      <trkpt lat="45.8205" lon="3.43087">
        <ele>396.25</ele>
        <time>2020-08-14T14:38:04.999Z</time>
      </trkpt>
      <trkpt lat="45.82057" lon="3.43114">
        <ele>396.44</ele>
        <time>2020-08-14T14:38:09.999Z</time>
      </trkpt>
      <trkpt lat="45.82067" lon="3.43139">
        <ele>396.64</ele>
        <time>2020-08-14T14:38:14.999Z</time>
      </trkpt>
      <trkpt lat="45.82076" lon="3.43162">
        <ele>396.72</ele>
        <time>2020-08-14T14:38:19.999Z</time>
      </trkpt>
      <trkpt lat="45.82084" lon="3.43187">
        <ele>396.8</ele>
        <time>2020-08-14T14:38:24.999Z</time>
      </trkpt>
      <trkpt lat="45.82094" lon="3.43209">
        <ele>396.91</ele>
        <time>2020-08-14T14:38:29.999Z</time>
      </trkpt>
      <trkpt lat="45.82099" lon="3.43229">
        <ele>397.03</ele>
        <time>2020-08-14T14:38:34.999Z</time>
      </trkpt>
      <trkpt lat="45.82104" lon="3.43246">
        <ele>397.18</ele>
        <time>2020-08-14T14:38:39.999Z</time>
      </trkpt>
      <trkpt lat="45.82109" lon="3.43263">
        <ele>397.33</ele>
        <time>2020-08-14T14:38:44.999Z</time>
      </trkpt>
      <trkpt lat="45.82118" lon="3.4329">
        <ele>398.14</ele>
        <time>2020-08-14T14:38:49.999Z</time>
      </trkpt>
      <trkpt lat="45.82134" lon="3.43321">
        <ele>398.85</ele>
        <time>2020-08-14T14:38:54.999Z</time>
      </trkpt>
      <trkpt lat="45.82156" lon="3.43353">
        <ele>399.19</ele>
        <time>2020-08-14T14:38:59.999Z</time>
      </trkpt>
      <trkpt lat="45.8217" lon="3.43394">
        <ele>399.37</ele>
        <time>2020-08-14T14:39:04.999Z</time>
      </trkpt>
      <trkpt lat="45.82185" lon="3.43427">
        <ele>399.51</ele>
        <time>2020-08-14T14:39:09.999Z</time>
      </trkpt>
      <trkpt lat="45.82202" lon="3.43458">
        <ele>399.64</ele>
        <time>2020-08-14T14:39:14.999Z</time>
      </trkpt>
      <trkpt lat="45.82221" lon="3.43488">
        <ele>399.77</ele>
        <time>2020-08-14T14:39:19.999Z</time>
      </trkpt>
      <trkpt lat="45.8224" lon="3.4352">
        <ele>399.91</ele>
        <time>2020-08-14T14:39:24.999Z</time>
      </trkpt>
      <trkpt lat="45.82259" lon="3.43552">
        <ele>400.07</ele>
        <time>2020-08-14T14:39:29.999Z</time>
      </trkpt>
      <trkpt lat="45.82277" lon="3.43585">
        <ele>400.24</ele>
        <time>2020-08-14T14:39:34.999Z</time>
      </trkpt>
      <trkpt lat="45.82294" lon="3.43618">
        <ele>400.42</ele>
        <time>2020-08-14T14:39:39.999Z</time>
      </trkpt>
      <trkpt lat="45.82309" lon="3.43647">
        <ele>400.56</ele>
        <time>2020-08-14T14:39:44.999Z</time>
      </trkpt>
      <trkpt lat="45.82321" lon="3.43675">
        <ele>400.69</ele>
        <time>2020-08-14T14:39:49.999Z</time>
      </trkpt>
      <trkpt lat="45.82307" lon="3.43697">
        <ele>400.81</ele>
        <time>2020-08-14T14:39:54.999Z</time>
      </trkpt>
      <trkpt lat="45.8229" lon="3.43715">
        <ele>400.97</ele>
        <time>2020-08-14T14:39:59.999Z</time>
      </trkpt>
      <trkpt lat="45.82275" lon="3.43733">
        <ele>401.12</ele>
        <time>2020-08-14T14:40:04.999Z</time>
      </trkpt>
      <trkpt lat="45.82264" lon="3.43757">
        <ele>401.26</ele>
        <time>2020-08-14T14:40:09.999Z</time>
      </trkpt>
      <trkpt lat="45.82257" lon="3.43783">
        <ele>401.44</ele>
        <time>2020-08-14T14:40:14.999Z</time>
      </trkpt>
      <trkpt lat="45.82249" lon="3.43808">
        <ele>401.47</ele>
        <time>2020-08-14T14:40:19.999Z</time>
      </trkpt>
      <trkpt lat="45.82241" lon="3.43833">
        <ele>401.69</ele>
        <time>2020-08-14T14:40:24.999Z</time>
      </trkpt>
      <trkpt lat="45.8223" lon="3.43856">
        <ele>401.88</ele>
        <time>2020-08-14T14:40:29.999Z</time>
      </trkpt>
      <trkpt lat="45.82217" lon="3.43882">
        <ele>402.03</ele>
        <time>2020-08-14T14:40:34.999Z</time>
      </trkpt>
      <trkpt lat="45.82203" lon="3.4391">
        <ele>402.17</ele>
        <time>2020-08-14T14:40:39.999Z</time>
      </trkpt>
      <trkpt lat="45.82182" lon="3.43927">
        <ele>402.34</ele>
        <time>2020-08-14T14:40:44.999Z</time>
      </trkpt>
      <trkpt lat="45.8216" lon="3.43935">
        <ele>402.5</ele>
        <time>2020-08-14T14:40:49.999Z</time>
      </trkpt>
      <trkpt lat="45.82138" lon="3.43941">
        <ele>402.68</ele>
        <time>2020-08-14T14:40:54.999Z</time>
      </trkpt>
      <trkpt lat="45.82116" lon="3.43949">
        <ele>403</ele>
        <time>2020-08-14T14:40:59.999Z</time>
      </trkpt>
      <trkpt lat="45.82095" lon="3.43956">
        <ele>403.41</ele>
        <time>2020-08-14T14:41:04.999Z</time>
      </trkpt>
      <trkpt lat="45.82075" lon="3.43962">
        <ele>403.86</ele>
        <time>2020-08-14T14:41:09.999Z</time>
      </trkpt>
      <trkpt lat="45.82054" lon="3.43969">
        <ele>404.27</ele>
        <time>2020-08-14T14:41:14.999Z</time>
      </trkpt>
      <trkpt lat="45.82034" lon="3.43974">
        <ele>404.67</ele>
        <time>2020-08-14T14:41:19.999Z</time>
      </trkpt>
      <trkpt lat="45.82014" lon="3.4398">
        <ele>405.12</ele>
        <time>2020-08-14T14:41:24.999Z</time>
      </trkpt>
      <trkpt lat="45.81994" lon="3.43986">
        <ele>405.57</ele>
        <time>2020-08-14T14:41:29.999Z</time>
      </trkpt>
      <trkpt lat="45.81973" lon="3.43992">
        <ele>405.98</ele>
        <time>2020-08-14T14:41:34.999Z</time>
      </trkpt>
      <trkpt lat="45.81953" lon="3.44001">
        <ele>406.35</ele>
        <time>2020-08-14T14:41:39.999Z</time>
      </trkpt>
      <trkpt lat="45.81934" lon="3.44017">
        <ele>406.68</ele>
        <time>2020-08-14T14:41:44.999Z</time>
      </trkpt>
      <trkpt lat="45.81917" lon="3.44039">
        <ele>406.9</ele>
        <time>2020-08-14T14:41:49.999Z</time>
      </trkpt>
      <trkpt lat="45.81902" lon="3.44062">
        <ele>407.07</ele>
        <time>2020-08-14T14:41:54.999Z</time>
      </trkpt>
      <trkpt lat="45.81887" lon="3.44085">
        <ele>407.22</ele>
        <time>2020-08-14T14:41:59.999Z</time>
      </trkpt>
      <trkpt lat="45.81872" lon="3.44107">
        <ele>407.34</ele>
        <time>2020-08-14T14:42:04.999Z</time>
      </trkpt>
      <trkpt lat="45.81856" lon="3.44129">
        <ele>407.46</ele>
        <time>2020-08-14T14:42:09.999Z</time>
      </trkpt>
      <trkpt lat="45.8184" lon="3.44153">
        <ele>407.57</ele>
        <time>2020-08-14T14:42:14.999Z</time>
      </trkpt>
      <trkpt lat="45.81823" lon="3.4418">
        <ele>407.66</ele>
        <time>2020-08-14T14:42:19.999Z</time>
      </trkpt>
      <trkpt lat="45.81811" lon="3.44216">
        <ele>407.75</ele>
        <time>2020-08-14T14:42:24.999Z</time>
      </trkpt>
      <trkpt lat="45.81806" lon="3.44259">
        <ele>407.92</ele>
        <time>2020-08-14T14:42:29.999Z</time>
      </trkpt>
      <trkpt lat="45.81808" lon="3.44308">
        <ele>408.13</ele>
        <time>2020-08-14T14:42:34.999Z</time>
      </trkpt>
      <trkpt lat="45.81822" lon="3.44355">
        <ele>408.03</ele>
        <time>2020-08-14T14:42:39.999Z</time>
      </trkpt>
      <trkpt lat="45.81837" lon="3.44394">
        <ele>407.92</ele>
        <time>2020-08-14T14:42:44.000Z</time>
      </trkpt>
      <trkpt lat="45.81842" lon="3.44446">
        <ele>407.71</ele>
        <time>2020-08-14T14:42:49.000Z</time>
      </trkpt>
      <trkpt lat="45.81827" lon="3.44486">
        <ele>407.86</ele>
        <time>2020-08-14T14:42:54.000Z</time>
      </trkpt>
      <trkpt lat="45.81829" lon="3.44528">
        <ele>408.66</ele>
        <time>2020-08-14T14:42:59.000Z</time>
      </trkpt>
      <trkpt lat="45.81841" lon="3.44561">
        <ele>410.17</ele>
        <time>2020-08-14T14:43:04.000Z</time>
      </trkpt>
      <trkpt lat="45.81851" lon="3.44589">
        <ele>412.66</ele>
        <time>2020-08-14T14:43:09.000Z</time>
      </trkpt>
      <trkpt lat="45.81856" lon="3.44621">
        <ele>414.36</ele>
        <time>2020-08-14T14:43:14.000Z</time>
      </trkpt>
      <trkpt lat="45.81852" lon="3.44654">
        <ele>415.32</ele>
        <time>2020-08-14T14:43:19.000Z</time>
      </trkpt>
      <trkpt lat="45.81837" lon="3.44682">
        <ele>415.5</ele>
        <time>2020-08-14T14:43:24.000Z</time>
      </trkpt>
      <trkpt lat="45.81821" lon="3.44709">
        <ele>415.25</ele>
        <time>2020-08-14T14:43:29.000Z</time>
      </trkpt>
      <trkpt lat="45.81807" lon="3.44738">
        <ele>414.95</ele>
        <time>2020-08-14T14:43:34.000Z</time>
      </trkpt>
      <trkpt lat="45.81791" lon="3.44767">
        <ele>413.93</ele>
        <time>2020-08-14T14:43:39.000Z</time>
      </trkpt>
      <trkpt lat="45.81758" lon="3.44784">
        <ele>413.02</ele>
        <time>2020-08-14T14:43:44.000Z</time>
      </trkpt>
      <trkpt lat="45.81718" lon="3.44825">
        <ele>412.47</ele>
        <time>2020-08-14T14:43:49.000Z</time>
      </trkpt>
      <trkpt lat="45.81708" lon="3.44879">
        <ele>411.73</ele>
        <time>2020-08-14T14:43:54.000Z</time>
      </trkpt>
      <trkpt lat="45.81729" lon="3.4492">
        <ele>412.52</ele>
        <time>2020-08-14T14:43:59.000Z</time>
      </trkpt>
      <trkpt lat="45.81744" lon="3.4495">
        <ele>413.14</ele>
        <time>2020-08-14T14:44:04.000Z</time>
      </trkpt>
      <trkpt lat="45.81745" lon="3.44984">
        <ele>412.86</ele>
        <time>2020-08-14T14:44:09.000Z</time>
      </trkpt>
      <trkpt lat="45.81738" lon="3.45031">
        <ele>412.15</ele>
        <time>2020-08-14T14:44:14.000Z</time>
      </trkpt>
      <trkpt lat="45.81753" lon="3.45079">
        <ele>411.62</ele>
        <time>2020-08-14T14:44:19.000Z</time>
      </trkpt>
      <trkpt lat="45.81779" lon="3.45107">
        <ele>410.92</ele>
        <time>2020-08-14T14:44:24.000Z</time>
      </trkpt>
      <trkpt lat="45.81798" lon="3.45132">
        <ele>409.73</ele>
        <time>2020-08-14T14:44:29.000Z</time>
      </trkpt>
      <trkpt lat="45.81808" lon="3.45149">
        <ele>409.74</ele>
        <time>2020-08-14T14:44:34.000Z</time>
      </trkpt>
      <trkpt lat="45.81812" lon="3.4516">
        <ele>409.82</ele>
        <time>2020-08-14T14:44:39.000Z</time>
      </trkpt>
      <trkpt lat="45.81816" lon="3.45174">
        <ele>409.97</ele>
        <time>2020-08-14T14:44:44.000Z</time>
      </trkpt>
      <trkpt lat="45.8182" lon="3.45187">
        <ele>410.22</ele>
        <time>2020-08-14T14:44:49.000Z</time>
      </trkpt>
      <trkpt lat="45.81822" lon="3.452">
        <ele>410.56</ele>
        <time>2020-08-14T14:44:54.000Z</time>
      </trkpt>
      <trkpt lat="45.81824" lon="3.45213">
        <ele>411.04</ele>
        <time>2020-08-14T14:45:00.000Z</time>
      </trkpt>
      <trkpt lat="45.81826" lon="3.45226">
        <ele>411.56</ele>
        <time>2020-08-14T14:45:06.000Z</time>
      </trkpt>
      <trkpt lat="45.8183" lon="3.4524">
        <ele>412.1</ele>
        <time>2020-08-14T14:45:13.000Z</time>
      </trkpt>
      <trkpt lat="45.81833" lon="3.45254">
        <ele>412.55</ele>
        <time>2020-08-14T14:45:19.000Z</time>
      </trkpt>
      <trkpt lat="45.81835" lon="3.45266">
        <ele>412.96</ele>
        <time>2020-08-14T14:45:24.000Z</time>
      </trkpt>
      <trkpt lat="45.8184" lon="3.45279">
        <ele>413.39</ele>
        <time>2020-08-14T14:45:30.000Z</time>
      </trkpt>
      <trkpt lat="45.81845" lon="3.45293">
        <ele>413.68</ele>
        <time>2020-08-14T14:45:35.000Z</time>
      </trkpt>
      <trkpt lat="45.81853" lon="3.45307">
        <ele>413.94</ele>
        <time>2020-08-14T14:45:40.000Z</time>
      </trkpt>
      <trkpt lat="45.81862" lon="3.45324">
        <ele>414.13</ele>
        <time>2020-08-14T14:45:45.000Z</time>
      </trkpt>
      <trkpt lat="45.81872" lon="3.45345">
        <ele>414.28</ele>
        <time>2020-08-14T14:45:50.000Z</time>
      </trkpt>
      <trkpt lat="45.81884" lon="3.45367">
        <ele>414.71</ele>
        <time>2020-08-14T14:45:55.000Z</time>
      </trkpt>
      <trkpt lat="45.81897" lon="3.45392">
        <ele>414.63</ele>
        <time>2020-08-14T14:46:00.000Z</time>
      </trkpt>
      <trkpt lat="45.81911" lon="3.45418">
        <ele>414.49</ele>
        <time>2020-08-14T14:46:05.000Z</time>
      </trkpt>
      <trkpt lat="45.81925" lon="3.45446">
        <ele>414.4</ele>
        <time>2020-08-14T14:46:10.000Z</time>
      </trkpt>
      <trkpt lat="45.8194" lon="3.45475">
        <ele>414.29</ele>
        <time>2020-08-14T14:46:15.000Z</time>
      </trkpt>
      <trkpt lat="45.81954" lon="3.45507">
        <ele>414.24</ele>
        <time>2020-08-14T14:46:20.000Z</time>
      </trkpt>
      <trkpt lat="45.81967" lon="3.45537">
        <ele>414.24</ele>
        <time>2020-08-14T14:46:25.000Z</time>
      </trkpt>
      <trkpt lat="45.8198" lon="3.45566">
        <ele>414.32</ele>
        <time>2020-08-14T14:46:30.000Z</time>
      </trkpt>
      <trkpt lat="45.81992" lon="3.45592">
        <ele>414.45</ele>
        <time>2020-08-14T14:46:35.000Z</time>
      </trkpt>
      <trkpt lat="45.82003" lon="3.45618">
        <ele>414.52</ele>
        <time>2020-08-14T14:46:40.000Z</time>
      </trkpt>
      <trkpt lat="45.82012" lon="3.45647">
        <ele>414.46</ele>
        <time>2020-08-14T14:46:45.000Z</time>
      </trkpt>
      <trkpt lat="45.82021" lon="3.45671">
        <ele>414.48</ele>
        <time>2020-08-14T14:46:50.000Z</time>
      </trkpt>
      <trkpt lat="45.8203" lon="3.45696">
        <ele>414.54</ele>
        <time>2020-08-14T14:46:55.000Z</time>
      </trkpt>
      <trkpt lat="45.8204" lon="3.45721">
        <ele>414.6</ele>
        <time>2020-08-14T14:47:00.000Z</time>
      </trkpt>
      <trkpt lat="45.8205" lon="3.45748">
        <ele>414.64</ele>
        <time>2020-08-14T14:47:05.000Z</time>
      </trkpt>
      <trkpt lat="45.82061" lon="3.45773">
        <ele>414.64</ele>
        <time>2020-08-14T14:47:10.000Z</time>
      </trkpt>
      <trkpt lat="45.82072" lon="3.458">
        <ele>414.62</ele>
        <time>2020-08-14T14:47:15.000Z</time>
      </trkpt>
      <trkpt lat="45.82084" lon="3.45827">
        <ele>414.63</ele>
        <time>2020-08-14T14:47:20.000Z</time>
      </trkpt>
      <trkpt lat="45.82095" lon="3.45852">
        <ele>414.66</ele>
        <time>2020-08-14T14:47:25.000Z</time>
      </trkpt>
      <trkpt lat="45.82104" lon="3.45878">
        <ele>414.7</ele>
        <time>2020-08-14T14:47:30.000Z</time>
      </trkpt>
      <trkpt lat="45.82107" lon="3.45905">
        <ele>414.66</ele>
        <time>2020-08-14T14:47:35.000Z</time>
      </trkpt>
      <trkpt lat="45.82112" lon="3.45923">
        <ele>414.64</ele>
        <time>2020-08-14T14:47:40.000Z</time>
      </trkpt>
      <trkpt lat="45.82128" lon="3.45933">
        <ele>414.61</ele>
        <time>2020-08-14T14:47:45.000Z</time>
      </trkpt>
      <trkpt lat="45.82143" lon="3.45944">
        <ele>414.57</ele>
        <time>2020-08-14T14:47:50.000Z</time>
      </trkpt>
      <trkpt lat="45.82149" lon="3.45968">
        <ele>414.32</ele>
        <time>2020-08-14T14:47:55.000Z</time>
      </trkpt>
      <trkpt lat="45.82155" lon="3.45994">
        <ele>414.13</ele>
        <time>2020-08-14T14:48:00.000Z</time>
      </trkpt>
      <trkpt lat="45.82164" lon="3.46021">
        <ele>414.06</ele>
        <time>2020-08-14T14:48:05.000Z</time>
      </trkpt>
      <trkpt lat="45.82175" lon="3.4605">
        <ele>414.09</ele>
        <time>2020-08-14T14:48:10.000Z</time>
      </trkpt>
      <trkpt lat="45.82185" lon="3.46078">
        <ele>414.09</ele>
        <time>2020-08-14T14:48:15.000Z</time>
      </trkpt>
      <trkpt lat="45.82192" lon="3.46107">
        <ele>414.08</ele>
        <time>2020-08-14T14:48:20.000Z</time>
      </trkpt>
      <trkpt lat="45.82195" lon="3.46138">
        <ele>414.06</ele>
        <time>2020-08-14T14:48:25.000Z</time>
      </trkpt>
      <trkpt lat="45.82195" lon="3.46172">
        <ele>414.01</ele>
        <time>2020-08-14T14:48:30.000Z</time>
      </trkpt>
      <trkpt lat="45.82195" lon="3.46207">
        <ele>414.02</ele>
        <time>2020-08-14T14:48:35.000Z</time>
      </trkpt>
      <trkpt lat="45.82197" lon="3.46244">
        <ele>414.03</ele>
        <time>2020-08-14T14:48:40.000Z</time>
      </trkpt>
      <trkpt lat="45.82202" lon="3.4628">
        <ele>414.08</ele>
        <time>2020-08-14T14:48:45.000Z</time>
      </trkpt>
      <trkpt lat="45.8221" lon="3.46314">
        <ele>414.15</ele>
        <time>2020-08-14T14:48:50.000Z</time>
      </trkpt>
      <trkpt lat="45.82218" lon="3.46346">
        <ele>414.15</ele>
        <time>2020-08-14T14:48:55.000Z</time>
      </trkpt>
      <trkpt lat="45.82226" lon="3.46375">
        <ele>414.07</ele>
        <time>2020-08-14T14:49:00.000Z</time>
      </trkpt>
      <trkpt lat="45.82232" lon="3.46405">
        <ele>414.04</ele>
        <time>2020-08-14T14:49:05.000Z</time>
      </trkpt>
      <trkpt lat="45.8224" lon="3.46433">
        <ele>414.02</ele>
        <time>2020-08-14T14:49:10.000Z</time>
      </trkpt>
      <trkpt lat="45.82246" lon="3.46462">
        <ele>414.03</ele>
        <time>2020-08-14T14:49:15.000Z</time>
      </trkpt>
      <trkpt lat="45.82254" lon="3.46494">
        <ele>414.04</ele>
        <time>2020-08-14T14:49:20.000Z</time>
      </trkpt>
      <trkpt lat="45.82261" lon="3.46525">
        <ele>414.06</ele>
        <time>2020-08-14T14:49:25.000Z</time>
      </trkpt>
      <trkpt lat="45.82268" lon="3.46555">
        <ele>414.06</ele>
        <time>2020-08-14T14:49:30.000Z</time>
      </trkpt>
      <trkpt lat="45.82274" lon="3.46588">
        <ele>414.03</ele>
        <time>2020-08-14T14:49:35.000Z</time>
      </trkpt>
      <trkpt lat="45.82279" lon="3.46619">
        <ele>414.01</ele>
        <time>2020-08-14T14:49:40.000Z</time>
      </trkpt>
      <trkpt lat="45.82284" lon="3.46651">
        <ele>413.97</ele>
        <time>2020-08-14T14:49:45.000Z</time>
      </trkpt>
      <trkpt lat="45.82289" lon="3.46683">
        <ele>413.91</ele>
        <time>2020-08-14T14:49:50.000Z</time>
      </trkpt>
      <trkpt lat="45.82295" lon="3.46716">
        <ele>413.84</ele>
        <time>2020-08-14T14:49:55.000Z</time>
      </trkpt>
      <trkpt lat="45.82303" lon="3.46751">
        <ele>413.75</ele>
        <time>2020-08-14T14:50:00.000Z</time>
      </trkpt>
      <trkpt lat="45.82315" lon="3.46782">
        <ele>413.67</ele>
        <time>2020-08-14T14:50:05.000Z</time>
      </trkpt>
      <trkpt lat="45.8233" lon="3.46813">
        <ele>413.59</ele>
        <time>2020-08-14T14:50:10.000Z</time>
      </trkpt>
      <trkpt lat="45.82347" lon="3.46845">
        <ele>413.55</ele>
        <time>2020-08-14T14:50:15.000Z</time>
      </trkpt>
      <trkpt lat="45.82362" lon="3.46876">
        <ele>413.5</ele>
        <time>2020-08-14T14:50:20.000Z</time>
      </trkpt>
      <trkpt lat="45.82377" lon="3.46907">
        <ele>413.49</ele>
        <time>2020-08-14T14:50:25.000Z</time>
      </trkpt>
      <trkpt lat="45.82389" lon="3.46938">
        <ele>413.52</ele>
        <time>2020-08-14T14:50:30.000Z</time>
      </trkpt>
      <trkpt lat="45.82396" lon="3.46972">
        <ele>413.51</ele>
        <time>2020-08-14T14:50:35.000Z</time>
      </trkpt>
      <trkpt lat="45.824" lon="3.47009">
        <ele>413.46</ele>
        <time>2020-08-14T14:50:40.000Z</time>
      </trkpt>
      <trkpt lat="45.82405" lon="3.47042">
        <ele>413.39</ele>
        <time>2020-08-14T14:50:45.000Z</time>
      </trkpt>
      <trkpt lat="45.82412" lon="3.47078">
        <ele>413.32</ele>
        <time>2020-08-14T14:50:50.000Z</time>
      </trkpt>
      <trkpt lat="45.8242" lon="3.47115">
        <ele>413.23</ele>
        <time>2020-08-14T14:50:55.000Z</time>
      </trkpt>
      <trkpt lat="45.82439" lon="3.47155">
        <ele>413.13</ele>
        <time>2020-08-14T14:51:00.000Z</time>
      </trkpt>
      <trkpt lat="45.82472" lon="3.47189">
        <ele>412.98</ele>
        <time>2020-08-14T14:51:05.000Z</time>
      </trkpt>
      <trkpt lat="45.82505" lon="3.47222">
        <ele>412.85</ele>
        <time>2020-08-14T14:51:10.000Z</time>
      </trkpt>
      <trkpt lat="45.82532" lon="3.47254">
        <ele>412.56</ele>
        <time>2020-08-14T14:51:15.000Z</time>
      </trkpt>
      <trkpt lat="45.82558" lon="3.4729">
        <ele>412.39</ele>
        <time>2020-08-14T14:51:20.000Z</time>
      </trkpt>
      <trkpt lat="45.8258" lon="3.47331">
        <ele>412.33</ele>
        <time>2020-08-14T14:51:25.000Z</time>
      </trkpt>
      <trkpt lat="45.82602" lon="3.4737">
        <ele>412.01</ele>
        <time>2020-08-14T14:51:30.000Z</time>
      </trkpt>
      <trkpt lat="45.82628" lon="3.47405">
        <ele>411.67</ele>
        <time>2020-08-14T14:51:35.000Z</time>
      </trkpt>
      <trkpt lat="45.82654" lon="3.47438">
        <ele>411.33</ele>
        <time>2020-08-14T14:51:40.000Z</time>
      </trkpt>
      <trkpt lat="45.82681" lon="3.47467">
        <ele>411.04</ele>
        <time>2020-08-14T14:51:45.000Z</time>
      </trkpt>
      <trkpt lat="45.82705" lon="3.47495">
        <ele>410.9</ele>
        <time>2020-08-14T14:51:50.000Z</time>
      </trkpt>
      <trkpt lat="45.8273" lon="3.47518">
        <ele>410.46</ele>
        <time>2020-08-14T14:51:55.000Z</time>
      </trkpt>
      <trkpt lat="45.82755" lon="3.47541">
        <ele>409.89</ele>
        <time>2020-08-14T14:52:00.000Z</time>
      </trkpt>
      <trkpt lat="45.8278" lon="3.47561">
        <ele>409.55</ele>
        <time>2020-08-14T14:52:05.000Z</time>
      </trkpt>
      <trkpt lat="45.82807" lon="3.47578">
        <ele>409.37</ele>
        <time>2020-08-14T14:52:10.000Z</time>
      </trkpt>
      <trkpt lat="45.82831" lon="3.47592">
        <ele>409.72</ele>
        <time>2020-08-14T14:52:15.000Z</time>
      </trkpt>
      <trkpt lat="45.82855" lon="3.47607">
        <ele>409.92</ele>
        <time>2020-08-14T14:52:20.000Z</time>
      </trkpt>
      <trkpt lat="45.82877" lon="3.47621">
        <ele>410.22</ele>
        <time>2020-08-14T14:52:25.000Z</time>
      </trkpt>
      <trkpt lat="45.82899" lon="3.47635">
        <ele>410.54</ele>
        <time>2020-08-14T14:52:30.000Z</time>
      </trkpt>
      <trkpt lat="45.82922" lon="3.4765">
        <ele>410.66</ele>
        <time>2020-08-14T14:52:35.000Z</time>
      </trkpt>
      <trkpt lat="45.82947" lon="3.47667">
        <ele>410.53</ele>
        <time>2020-08-14T14:52:40.000Z</time>
      </trkpt>
      <trkpt lat="45.82965" lon="3.47695">
        <ele>410.47</ele>
        <time>2020-08-14T14:52:45.000Z</time>
      </trkpt>
      <trkpt lat="45.82976" lon="3.47725">
        <ele>410.62</ele>
        <time>2020-08-14T14:52:50.000Z</time>
      </trkpt>
      <trkpt lat="45.82984" lon="3.47754">
        <ele>410.46</ele>
        <time>2020-08-14T14:52:55.000Z</time>
      </trkpt>
      <trkpt lat="45.82992" lon="3.47783">
        <ele>410.25</ele>
        <time>2020-08-14T14:53:00.000Z</time>
      </trkpt>
      <trkpt lat="45.83007" lon="3.47814">
        <ele>409.77</ele>
        <time>2020-08-14T14:53:05.000Z</time>
      </trkpt>
      <trkpt lat="45.83031" lon="3.47836">
        <ele>409.25</ele>
        <time>2020-08-14T14:53:10.000Z</time>
      </trkpt>
      <trkpt lat="45.83036" lon="3.47867">
        <ele>408.17</ele>
        <time>2020-08-14T14:53:15.000Z</time>
      </trkpt>
      <trkpt lat="45.83029" lon="3.4791">
        <ele>407.43</ele>
        <time>2020-08-14T14:53:20.000Z</time>
      </trkpt>
      <trkpt lat="45.83021" lon="3.47959">
        <ele>406.94</ele>
        <time>2020-08-14T14:53:25.000Z</time>
      </trkpt>
      <trkpt lat="45.83013" lon="3.4801">
        <ele>406.49</ele>
        <time>2020-08-14T14:53:30.000Z</time>
      </trkpt>
      <trkpt lat="45.83006" lon="3.48065">
        <ele>406.01</ele>
        <time>2020-08-14T14:53:35.000Z</time>
      </trkpt>
      <trkpt lat="45.83002" lon="3.48123">
        <ele>405.63</ele>
        <time>2020-08-14T14:53:40.000Z</time>
      </trkpt>
      <trkpt lat="45.83002" lon="3.48188">
        <ele>405</ele>
        <time>2020-08-14T14:53:45.000Z</time>
      </trkpt>
      <trkpt lat="45.83015" lon="3.48254">
        <ele>404.34</ele>
        <time>2020-08-14T14:53:50.000Z</time>
      </trkpt>
      <trkpt lat="45.8303" lon="3.48316">
        <ele>403.9</ele>
        <time>2020-08-14T14:53:55.000Z</time>
      </trkpt>
      <trkpt lat="45.83053" lon="3.48369">
        <ele>403.43</ele>
        <time>2020-08-14T14:54:00.000Z</time>
      </trkpt>
      <trkpt lat="45.83082" lon="3.48411">
        <ele>402.94</ele>
        <time>2020-08-14T14:54:05.000Z</time>
      </trkpt>
      <trkpt lat="45.83114" lon="3.48444">
        <ele>401.47</ele>
        <time>2020-08-14T14:54:10.000Z</time>
      </trkpt>
      <trkpt lat="45.83146" lon="3.48471">
        <ele>399.62</ele>
        <time>2020-08-14T14:54:15.000Z</time>
      </trkpt>
      <trkpt lat="45.83177" lon="3.485">
        <ele>398.03</ele>
        <time>2020-08-14T14:54:20.000Z</time>
      </trkpt>
      <trkpt lat="45.83212" lon="3.48523">
        <ele>397.66</ele>
        <time>2020-08-14T14:54:25.000Z</time>
      </trkpt>
      <trkpt lat="45.8325" lon="3.48548">
        <ele>397.59</ele>
        <time>2020-08-14T14:54:30.000Z</time>
      </trkpt>
      <trkpt lat="45.83289" lon="3.48573">
        <ele>397.45</ele>
        <time>2020-08-14T14:54:35.000Z</time>
      </trkpt>
      <trkpt lat="45.83326" lon="3.48605">
        <ele>397.04</ele>
        <time>2020-08-14T14:54:40.000Z</time>
      </trkpt>
      <trkpt lat="45.83358" lon="3.4865">
        <ele>396.64</ele>
        <time>2020-08-14T14:54:45.000Z</time>
      </trkpt>
      <trkpt lat="45.83388" lon="3.48691">
        <ele>396.09</ele>
        <time>2020-08-14T14:54:50.000Z</time>
      </trkpt>
      <trkpt lat="45.83424" lon="3.48718">
        <ele>395.48</ele>
        <time>2020-08-14T14:54:55.000Z</time>
      </trkpt>
      <trkpt lat="45.83463" lon="3.48742">
        <ele>395.22</ele>
        <time>2020-08-14T14:54:59.999Z</time>
      </trkpt>
      <trkpt lat="45.83499" lon="3.48771">
        <ele>395.05</ele>
        <time>2020-08-14T14:55:04.999Z</time>
      </trkpt>
      <trkpt lat="45.83532" lon="3.48805">
        <ele>393.96</ele>
        <time>2020-08-14T14:55:09.999Z</time>
      </trkpt>
      <trkpt lat="45.83559" lon="3.48845">
        <ele>391.66</ele>
        <time>2020-08-14T14:55:14.999Z</time>
      </trkpt>
      <trkpt lat="45.83585" lon="3.4889">
        <ele>389.32</ele>
        <time>2020-08-14T14:55:19.999Z</time>
      </trkpt>
      <trkpt lat="45.83609" lon="3.48938">
        <ele>386.81</ele>
        <time>2020-08-14T14:55:24.999Z</time>
      </trkpt>
      <trkpt lat="45.83628" lon="3.48986">
        <ele>385.19</ele>
        <time>2020-08-14T14:55:29.999Z</time>
      </trkpt>
      <trkpt lat="45.83643" lon="3.49032">
        <ele>383.95</ele>
        <time>2020-08-14T14:55:34.999Z</time>
      </trkpt>
      <trkpt lat="45.83655" lon="3.49081">
        <ele>382.97</ele>
        <time>2020-08-14T14:55:39.999Z</time>
      </trkpt>
      <trkpt lat="45.83667" lon="3.49128">
        <ele>382.19</ele>
        <time>2020-08-14T14:55:44.999Z</time>
      </trkpt>
      <trkpt lat="45.83675" lon="3.49174">
        <ele>380.97</ele>
        <time>2020-08-14T14:55:49.999Z</time>
      </trkpt>
      <trkpt lat="45.83685" lon="3.49216">
        <ele>379.06</ele>
        <time>2020-08-14T14:55:54.999Z</time>
      </trkpt>
      <trkpt lat="45.83694" lon="3.49257">
        <ele>377.15</ele>
        <time>2020-08-14T14:55:59.999Z</time>
      </trkpt>
      <trkpt lat="45.83704" lon="3.49297">
        <ele>375.42</ele>
        <time>2020-08-14T14:56:04.999Z</time>
      </trkpt>
      <trkpt lat="45.83714" lon="3.49334">
        <ele>373.97</ele>
        <time>2020-08-14T14:56:09.999Z</time>
      </trkpt>
      <trkpt lat="45.83724" lon="3.49374">
        <ele>372.63</ele>
        <time>2020-08-14T14:56:14.999Z</time>
      </trkpt>
      <trkpt lat="45.83735" lon="3.49417">
        <ele>371.25</ele>
        <time>2020-08-14T14:56:19.999Z</time>
      </trkpt>
      <trkpt lat="45.83747" lon="3.49467">
        <ele>370.13</ele>
        <time>2020-08-14T14:56:24.999Z</time>
      </trkpt>
      <trkpt lat="45.83758" lon="3.49518">
        <ele>369.44</ele>
        <time>2020-08-14T14:56:29.999Z</time>
      </trkpt>
      <trkpt lat="45.83768" lon="3.49563">
        <ele>368.64</ele>
        <time>2020-08-14T14:56:34.999Z</time>
      </trkpt>
      <trkpt lat="45.83779" lon="3.49605">
        <ele>367.66</ele>
        <time>2020-08-14T14:56:39.999Z</time>
      </trkpt>
      <trkpt lat="45.8379" lon="3.49645">
        <ele>366.55</ele>
        <time>2020-08-14T14:56:44.999Z</time>
      </trkpt>
      <trkpt lat="45.83802" lon="3.49686">
        <ele>365.45</ele>
        <time>2020-08-14T14:56:49.999Z</time>
      </trkpt>
      <trkpt lat="45.83814" lon="3.49729">
        <ele>364.48</ele>
        <time>2020-08-14T14:56:54.999Z</time>
      </trkpt>
      <trkpt lat="45.83828" lon="3.49772">
        <ele>363.71</ele>
        <time>2020-08-14T14:56:59.999Z</time>
      </trkpt>
      <trkpt lat="45.83837" lon="3.49809">
        <ele>363.33</ele>
        <time>2020-08-14T14:57:04.999Z</time>
      </trkpt>
      <trkpt lat="45.83842" lon="3.49829">
        <ele>363.29</ele>
        <time>2020-08-14T14:57:09.999Z</time>
      </trkpt>
      <trkpt lat="45.83845" lon="3.4985">
        <ele>363.14</ele>
        <time>2020-08-14T14:57:14.999Z</time>
      </trkpt>
      <trkpt lat="45.83851" lon="3.49873">
        <ele>362.91</ele>
        <time>2020-08-14T14:57:19.999Z</time>
      </trkpt>
      <trkpt lat="45.83857" lon="3.499">
        <ele>361.78</ele>
        <time>2020-08-14T14:57:24.999Z</time>
      </trkpt>
      <trkpt lat="45.83863" lon="3.49925">
        <ele>361.26</ele>
        <time>2020-08-14T14:57:29.999Z</time>
      </trkpt>
      <trkpt lat="45.83867" lon="3.49946">
        <ele>360.98</ele>
        <time>2020-08-14T14:57:34.999Z</time>
      </trkpt>
      <trkpt lat="45.83874" lon="3.49971">
        <ele>360.61</ele>
        <time>2020-08-14T14:57:39.999Z</time>
      </trkpt>
      <trkpt lat="45.83879" lon="3.49993">
        <ele>360.3</ele>
        <time>2020-08-14T14:57:44.999Z</time>
      </trkpt>
      <trkpt lat="45.83883" lon="3.50012">
        <ele>359.99</ele>
        <time>2020-08-14T14:57:49.999Z</time>
      </trkpt>
      <trkpt lat="45.83888" lon="3.50032">
        <ele>359.67</ele>
        <time>2020-08-14T14:57:54.999Z</time>
      </trkpt>
      <trkpt lat="45.83892" lon="3.50049">
        <ele>359.41</ele>
        <time>2020-08-14T14:57:59.999Z</time>
      </trkpt>
      <trkpt lat="45.83897" lon="3.5007">
        <ele>359.18</ele>
        <time>2020-08-14T14:58:04.999Z</time>
      </trkpt>
      <trkpt lat="45.83902" lon="3.50092">
        <ele>359.01</ele>
        <time>2020-08-14T14:58:09.999Z</time>
      </trkpt>
      <trkpt lat="45.83909" lon="3.50115">
        <ele>358.9</ele>
        <time>2020-08-14T14:58:14.999Z</time>
      </trkpt>
      <trkpt lat="45.83916" lon="3.50141">
        <ele>358.39</ele>
        <time>2020-08-14T14:58:19.999Z</time>
      </trkpt>
      <trkpt lat="45.83923" lon="3.50169">
        <ele>358.19</ele>
        <time>2020-08-14T14:58:24.999Z</time>
      </trkpt>
      <trkpt lat="45.8393" lon="3.502">
        <ele>357.57</ele>
        <time>2020-08-14T14:58:29.999Z</time>
      </trkpt>
      <trkpt lat="45.83937" lon="3.50232">
        <ele>357.01</ele>
        <time>2020-08-14T14:58:34.999Z</time>
      </trkpt>
      <trkpt lat="45.83947" lon="3.50267">
        <ele>356.39</ele>
        <time>2020-08-14T14:58:39.999Z</time>
      </trkpt>
      <trkpt lat="45.83956" lon="3.50303">
        <ele>355.84</ele>
        <time>2020-08-14T14:58:44.999Z</time>
      </trkpt>
      <trkpt lat="45.83964" lon="3.50337">
        <ele>355.45</ele>
        <time>2020-08-14T14:58:49.999Z</time>
      </trkpt>
      <trkpt lat="45.83972" lon="3.50372">
        <ele>355.15</ele>
        <time>2020-08-14T14:58:54.999Z</time>
      </trkpt>
      <trkpt lat="45.83982" lon="3.5041">
        <ele>354.95</ele>
        <time>2020-08-14T14:58:59.999Z</time>
      </trkpt>
      <trkpt lat="45.83993" lon="3.50452">
        <ele>354.53</ele>
        <time>2020-08-14T14:59:04.999Z</time>
      </trkpt>
      <trkpt lat="45.84003" lon="3.50495">
        <ele>354.14</ele>
        <time>2020-08-14T14:59:09.999Z</time>
      </trkpt>
      <trkpt lat="45.84012" lon="3.50537">
        <ele>354.12</ele>
        <time>2020-08-14T14:59:14.999Z</time>
      </trkpt>
      <trkpt lat="45.84018" lon="3.50569">
        <ele>354.18</ele>
        <time>2020-08-14T14:59:19.999Z</time>
      </trkpt>
      <trkpt lat="45.84022" lon="3.50585">
        <ele>354.18</ele>
        <time>2020-08-14T14:59:24.999Z</time>
      </trkpt>
      <trkpt lat="45.84019" lon="3.50602">
        <ele>354.15</ele>
        <time>2020-08-14T14:59:35.999Z</time>
      </trkpt>
      <trkpt lat="45.84015" lon="3.50627">
        <ele>353.81</ele>
        <time>2020-08-14T14:59:40.999Z</time>
      </trkpt>
      <trkpt lat="45.84023" lon="3.50657">
        <ele>353.15</ele>
        <time>2020-08-14T14:59:45.999Z</time>
      </trkpt>
      <trkpt lat="45.84031" lon="3.50689">
        <ele>352.92</ele>
        <time>2020-08-14T14:59:50.999Z</time>
      </trkpt>
      <trkpt lat="45.84042" lon="3.50718">
        <ele>352.83</ele>
        <time>2020-08-14T14:59:55.999Z</time>
      </trkpt>
      <trkpt lat="45.84057" lon="3.50746">
        <ele>352.86</ele>
        <time>2020-08-14T15:00:00.999Z</time>
      </trkpt>
      <trkpt lat="45.8407" lon="3.50774">
        <ele>353.2</ele>
        <time>2020-08-14T15:00:05.999Z</time>
      </trkpt>
      <trkpt lat="45.84079" lon="3.50804">
        <ele>353.44</ele>
        <time>2020-08-14T15:00:10.999Z</time>
      </trkpt>
      <trkpt lat="45.84087" lon="3.50834">
        <ele>353.51</ele>
        <time>2020-08-14T15:00:15.999Z</time>
      </trkpt>
      <trkpt lat="45.84095" lon="3.50863">
        <ele>353.57</ele>
        <time>2020-08-14T15:00:20.999Z</time>
      </trkpt>
      <trkpt lat="45.84102" lon="3.50892">
        <ele>353.67</ele>
        <time>2020-08-14T15:00:25.999Z</time>
      </trkpt>
      <trkpt lat="45.84108" lon="3.5092">
        <ele>353.69</ele>
        <time>2020-08-14T15:00:30.999Z</time>
      </trkpt>
      <trkpt lat="45.84115" lon="3.5095">
        <ele>353.88</ele>
        <time>2020-08-14T15:00:35.999Z</time>
      </trkpt>
      <trkpt lat="45.84123" lon="3.50981">
        <ele>354.12</ele>
        <time>2020-08-14T15:00:40.999Z</time>
      </trkpt>
      <trkpt lat="45.84131" lon="3.51011">
        <ele>354.46</ele>
        <time>2020-08-14T15:00:45.999Z</time>
      </trkpt>
      <trkpt lat="45.84139" lon="3.5104">
        <ele>354.86</ele>
        <time>2020-08-14T15:00:50.999Z</time>
      </trkpt>
      <trkpt lat="45.84147" lon="3.5107">
        <ele>355.14</ele>
        <time>2020-08-14T15:00:55.999Z</time>
      </trkpt>
      <trkpt lat="45.84155" lon="3.51099">
        <ele>355.36</ele>
        <time>2020-08-14T15:01:00.999Z</time>
      </trkpt>
      <trkpt lat="45.84162" lon="3.51128">
        <ele>355.55</ele>
        <time>2020-08-14T15:01:05.999Z</time>
      </trkpt>
      <trkpt lat="45.84169" lon="3.51156">
        <ele>355.65</ele>
        <time>2020-08-14T15:01:10.999Z</time>
      </trkpt>
      <trkpt lat="45.84177" lon="3.51186">
        <ele>355.66</ele>
        <time>2020-08-14T15:01:15.999Z</time>
      </trkpt>
      <trkpt lat="45.84185" lon="3.51217">
        <ele>355.58</ele>
        <time>2020-08-14T15:01:20.999Z</time>
      </trkpt>
      <trkpt lat="45.84193" lon="3.51249">
        <ele>355.51</ele>
        <time>2020-08-14T15:01:25.999Z</time>
      </trkpt>
      <trkpt lat="45.842" lon="3.5128">
        <ele>355.44</ele>
        <time>2020-08-14T15:01:30.999Z</time>
      </trkpt>
      <trkpt lat="45.84209" lon="3.5131">
        <ele>355.28</ele>
        <time>2020-08-14T15:01:35.999Z</time>
      </trkpt>
      <trkpt lat="45.84217" lon="3.51343">
        <ele>355.14</ele>
        <time>2020-08-14T15:01:40.999Z</time>
      </trkpt>
      <trkpt lat="45.84225" lon="3.51375">
        <ele>355.25</ele>
        <time>2020-08-14T15:01:45.999Z</time>
      </trkpt>
      <trkpt lat="45.84232" lon="3.51405">
        <ele>355.47</ele>
        <time>2020-08-14T15:01:50.999Z</time>
      </trkpt>
      <trkpt lat="45.84239" lon="3.51435">
        <ele>355.61</ele>
        <time>2020-08-14T15:01:55.999Z</time>
      </trkpt>
      <trkpt lat="45.84245" lon="3.51463">
        <ele>355.81</ele>
        <time>2020-08-14T15:02:00.999Z</time>
      </trkpt>
      <trkpt lat="45.84252" lon="3.51491">
        <ele>355.99</ele>
        <time>2020-08-14T15:02:05.999Z</time>
      </trkpt>
      <trkpt lat="45.84259" lon="3.51518">
        <ele>355.87</ele>
        <time>2020-08-14T15:02:10.999Z</time>
      </trkpt>
      <trkpt lat="45.84267" lon="3.51542">
        <ele>355.74</ele>
        <time>2020-08-14T15:02:15.999Z</time>
      </trkpt>
      <trkpt lat="45.84275" lon="3.51567">
        <ele>355.73</ele>
        <time>2020-08-14T15:02:20.999Z</time>
      </trkpt>
      <trkpt lat="45.84284" lon="3.51592">
        <ele>355.58</ele>
        <time>2020-08-14T15:02:25.999Z</time>
      </trkpt>
      <trkpt lat="45.84295" lon="3.51617">
        <ele>355.38</ele>
        <time>2020-08-14T15:02:30.999Z</time>
      </trkpt>
      <trkpt lat="45.84305" lon="3.51643">
        <ele>355.3</ele>
        <time>2020-08-14T15:02:35.999Z</time>
      </trkpt>
      <trkpt lat="45.84314" lon="3.5167">
        <ele>355.21</ele>
        <time>2020-08-14T15:02:40.999Z</time>
      </trkpt>
      <trkpt lat="45.84325" lon="3.51698">
        <ele>355.18</ele>
        <time>2020-08-14T15:02:45.999Z</time>
      </trkpt>
      <trkpt lat="45.84335" lon="3.51726">
        <ele>355.14</ele>
        <time>2020-08-14T15:02:50.999Z</time>
      </trkpt>
      <trkpt lat="45.84345" lon="3.51753">
        <ele>355.1</ele>
        <time>2020-08-14T15:02:55.999Z</time>
      </trkpt>
      <trkpt lat="45.84356" lon="3.5178">
        <ele>355.05</ele>
        <time>2020-08-14T15:03:00.999Z</time>
      </trkpt>
      <trkpt lat="45.84366" lon="3.51805">
        <ele>355.04</ele>
        <time>2020-08-14T15:03:05.999Z</time>
      </trkpt>
      <trkpt lat="45.84376" lon="3.51831">
        <ele>355.02</ele>
        <time>2020-08-14T15:03:10.999Z</time>
      </trkpt>
      <trkpt lat="45.84386" lon="3.51857">
        <ele>355.01</ele>
        <time>2020-08-14T15:03:15.999Z</time>
      </trkpt>
      <trkpt lat="45.84396" lon="3.51884">
        <ele>354.99</ele>
        <time>2020-08-14T15:03:20.999Z</time>
      </trkpt>
      <trkpt lat="45.84406" lon="3.51911">
        <ele>354.95</ele>
        <time>2020-08-14T15:03:25.999Z</time>
      </trkpt>
      <trkpt lat="45.84416" lon="3.51939">
        <ele>354.91</ele>
        <time>2020-08-14T15:03:30.999Z</time>
      </trkpt>
      <trkpt lat="45.84426" lon="3.51967">
        <ele>354.81</ele>
        <time>2020-08-14T15:03:35.999Z</time>
      </trkpt>
      <trkpt lat="45.84436" lon="3.51998">
        <ele>354.77</ele>
        <time>2020-08-14T15:03:40.999Z</time>
      </trkpt>
      <trkpt lat="45.84446" lon="3.5203">
        <ele>354.74</ele>
        <time>2020-08-14T15:03:45.999Z</time>
      </trkpt>
      <trkpt lat="45.84456" lon="3.52062">
        <ele>354.68</ele>
        <time>2020-08-14T15:03:50.999Z</time>
      </trkpt>
      <trkpt lat="45.84467" lon="3.52093">
        <ele>354.61</ele>
        <time>2020-08-14T15:03:55.999Z</time>
      </trkpt>
      <trkpt lat="45.84478" lon="3.52124">
        <ele>354.56</ele>
        <time>2020-08-14T15:04:00.999Z</time>
      </trkpt>
      <trkpt lat="45.84487" lon="3.52159">
        <ele>354.48</ele>
        <time>2020-08-14T15:04:05.999Z</time>
      </trkpt>
      <trkpt lat="45.84499" lon="3.52195">
        <ele>354.41</ele>
        <time>2020-08-14T15:04:10.999Z</time>
      </trkpt>
      <trkpt lat="45.84509" lon="3.52228">
        <ele>354.31</ele>
        <time>2020-08-14T15:04:15.999Z</time>
      </trkpt>
      <trkpt lat="45.84519" lon="3.5226">
        <ele>354.21</ele>
        <time>2020-08-14T15:04:20.999Z</time>
      </trkpt>
      <trkpt lat="45.84529" lon="3.5229">
        <ele>354.12</ele>
        <time>2020-08-14T15:04:25.999Z</time>
      </trkpt>
      <trkpt lat="45.84538" lon="3.52319">
        <ele>354.07</ele>
        <time>2020-08-14T15:04:30.999Z</time>
      </trkpt>
      <trkpt lat="45.84548" lon="3.5235">
        <ele>354.08</ele>
        <time>2020-08-14T15:04:35.999Z</time>
      </trkpt>
      <trkpt lat="45.84557" lon="3.52378">
        <ele>354.05</ele>
        <time>2020-08-14T15:04:40.999Z</time>
      </trkpt>
      <trkpt lat="45.84566" lon="3.52407">
        <ele>353.98</ele>
        <time>2020-08-14T15:04:45.999Z</time>
      </trkpt>
      <trkpt lat="45.84575" lon="3.52436">
        <ele>353.88</ele>
        <time>2020-08-14T15:04:50.999Z</time>
      </trkpt>
      <trkpt lat="45.84585" lon="3.52467">
        <ele>353.79</ele>
        <time>2020-08-14T15:04:55.999Z</time>
      </trkpt>
      <trkpt lat="45.84595" lon="3.52498">
        <ele>353.71</ele>
        <time>2020-08-14T15:05:00.999Z</time>
      </trkpt>
      <trkpt lat="45.84605" lon="3.52531">
        <ele>353.69</ele>
        <time>2020-08-14T15:05:05.999Z</time>
      </trkpt>
      <trkpt lat="45.84614" lon="3.5256">
        <ele>353.7</ele>
        <time>2020-08-14T15:05:10.999Z</time>
      </trkpt>
      <trkpt lat="45.84624" lon="3.52589">
        <ele>353.73</ele>
        <time>2020-08-14T15:05:15.999Z</time>
      </trkpt>
      <trkpt lat="45.84633" lon="3.52617">
        <ele>353.72</ele>
        <time>2020-08-14T15:05:20.999Z</time>
      </trkpt>
      <trkpt lat="45.84642" lon="3.52646">
        <ele>353.72</ele>
        <time>2020-08-14T15:05:25.999Z</time>
      </trkpt>
      <trkpt lat="45.8465" lon="3.52672">
        <ele>353.73</ele>
        <time>2020-08-14T15:05:30.999Z</time>
      </trkpt>
      <trkpt lat="45.84658" lon="3.52697">
        <ele>353.75</ele>
        <time>2020-08-14T15:05:35.999Z</time>
      </trkpt>
      <trkpt lat="45.84665" lon="3.52723">
        <ele>353.8</ele>
        <time>2020-08-14T15:05:40.999Z</time>
      </trkpt>
      <trkpt lat="45.84673" lon="3.52751">
        <ele>353.87</ele>
        <time>2020-08-14T15:05:45.999Z</time>
      </trkpt>
      <trkpt lat="45.84682" lon="3.52777">
        <ele>353.93</ele>
        <time>2020-08-14T15:05:50.999Z</time>
      </trkpt>
      <trkpt lat="45.84691" lon="3.52806">
        <ele>353.98</ele>
        <time>2020-08-14T15:05:55.999Z</time>
      </trkpt>
      <trkpt lat="45.84699" lon="3.52834">
        <ele>354.07</ele>
        <time>2020-08-14T15:06:00.999Z</time>
      </trkpt>
      <trkpt lat="45.84709" lon="3.52864">
        <ele>354.16</ele>
        <time>2020-08-14T15:06:05.999Z</time>
      </trkpt>
      <trkpt lat="45.84717" lon="3.52894">
        <ele>354.24</ele>
        <time>2020-08-14T15:06:10.999Z</time>
      </trkpt>
      <trkpt lat="45.84726" lon="3.52923">
        <ele>354.3</ele>
        <time>2020-08-14T15:06:15.999Z</time>
      </trkpt>
      <trkpt lat="45.84735" lon="3.52952">
        <ele>354.34</ele>
        <time>2020-08-14T15:06:20.999Z</time>
      </trkpt>
      <trkpt lat="45.84744" lon="3.52981">
        <ele>354.36</ele>
        <time>2020-08-14T15:06:25.999Z</time>
      </trkpt>
      <trkpt lat="45.84753" lon="3.5301">
        <ele>354.39</ele>
        <time>2020-08-14T15:06:30.999Z</time>
      </trkpt>
      <trkpt lat="45.84762" lon="3.53039">
        <ele>354.46</ele>
        <time>2020-08-14T15:06:35.999Z</time>
      </trkpt>
      <trkpt lat="45.8477" lon="3.53067">
        <ele>354.56</ele>
        <time>2020-08-14T15:06:40.999Z</time>
      </trkpt>
      <trkpt lat="45.84778" lon="3.53096">
        <ele>354.61</ele>
        <time>2020-08-14T15:06:45.999Z</time>
      </trkpt>
      <trkpt lat="45.84787" lon="3.53125">
        <ele>354.64</ele>
        <time>2020-08-14T15:06:50.999Z</time>
      </trkpt>
      <trkpt lat="45.84795" lon="3.53154">
        <ele>354.65</ele>
        <time>2020-08-14T15:06:55.999Z</time>
      </trkpt>
      <trkpt lat="45.84804" lon="3.53181">
        <ele>354.69</ele>
        <time>2020-08-14T15:07:00.999Z</time>
      </trkpt>
      <trkpt lat="45.84813" lon="3.5321">
        <ele>354.74</ele>
        <time>2020-08-14T15:07:05.999Z</time>
      </trkpt>
      <trkpt lat="45.8482" lon="3.53234">
        <ele>354.77</ele>
        <time>2020-08-14T15:07:10.000Z</time>
      </trkpt>
      <trkpt lat="45.84828" lon="3.53264">
        <ele>354.8</ele>
        <time>2020-08-14T15:07:15.000Z</time>
      </trkpt>
      <trkpt lat="45.84838" lon="3.53295">
        <ele>354.86</ele>
        <time>2020-08-14T15:07:20.000Z</time>
      </trkpt>
      <trkpt lat="45.84847" lon="3.53325">
        <ele>354.91</ele>
        <time>2020-08-14T15:07:25.000Z</time>
      </trkpt>
      <trkpt lat="45.84855" lon="3.53353">
        <ele>354.97</ele>
        <time>2020-08-14T15:07:30.000Z</time>
      </trkpt>
      <trkpt lat="45.84863" lon="3.53381">
        <ele>355.02</ele>
        <time>2020-08-14T15:07:35.000Z</time>
      </trkpt>
      <trkpt lat="45.84871" lon="3.53409">
        <ele>355.06</ele>
        <time>2020-08-14T15:07:40.000Z</time>
      </trkpt>
      <trkpt lat="45.84878" lon="3.53435">
        <ele>355.07</ele>
        <time>2020-08-14T15:07:45.000Z</time>
      </trkpt>
      <trkpt lat="45.84886" lon="3.5346">
        <ele>355.1</ele>
        <time>2020-08-14T15:07:50.000Z</time>
      </trkpt>
      <trkpt lat="45.84895" lon="3.53486">
        <ele>355.12</ele>
        <time>2020-08-14T15:07:55.000Z</time>
      </trkpt>
      <trkpt lat="45.84902" lon="3.53512">
        <ele>355.13</ele>
        <time>2020-08-14T15:08:00.000Z</time>
      </trkpt>
      <trkpt lat="45.8491" lon="3.53538">
        <ele>355.15</ele>
        <time>2020-08-14T15:08:05.000Z</time>
      </trkpt>
      <trkpt lat="45.84918" lon="3.53565">
        <ele>355.17</ele>
        <time>2020-08-14T15:08:10.000Z</time>
      </trkpt>
      <trkpt lat="45.84927" lon="3.53594">
        <ele>355.19</ele>
        <time>2020-08-14T15:08:15.000Z</time>
      </trkpt>
      <trkpt lat="45.84935" lon="3.53622">
        <ele>355.2</ele>
        <time>2020-08-14T15:08:20.000Z</time>
      </trkpt>
      <trkpt lat="45.84944" lon="3.5365">
        <ele>355.22</ele>
        <time>2020-08-14T15:08:25.000Z</time>
      </trkpt>
      <trkpt lat="45.84952" lon="3.53677">
        <ele>355.27</ele>
        <time>2020-08-14T15:08:30.000Z</time>
      </trkpt>
      <trkpt lat="45.84961" lon="3.53704">
        <ele>355.32</ele>
        <time>2020-08-14T15:08:35.000Z</time>
      </trkpt>
      <trkpt lat="45.84969" lon="3.53729">
        <ele>355.35</ele>
        <time>2020-08-14T15:08:40.000Z</time>
      </trkpt>
      <trkpt lat="45.84977" lon="3.53755">
        <ele>355.38</ele>
        <time>2020-08-14T15:08:45.000Z</time>
      </trkpt>
      <trkpt lat="45.84984" lon="3.53781">
        <ele>355.39</ele>
        <time>2020-08-14T15:08:50.000Z</time>
      </trkpt>
      <trkpt lat="45.8499" lon="3.53803">
        <ele>355.4</ele>
        <time>2020-08-14T15:08:55.000Z</time>
      </trkpt>
      <trkpt lat="45.85" lon="3.53823">
        <ele>355.43</ele>
        <time>2020-08-14T15:09:00.000Z</time>
      </trkpt>
      <trkpt lat="45.85008" lon="3.53848">
        <ele>355.49</ele>
        <time>2020-08-14T15:09:05.000Z</time>
      </trkpt>
      <trkpt lat="45.85027" lon="3.53851">
        <ele>355.56</ele>
        <time>2020-08-14T15:09:10.000Z</time>
      </trkpt>
      <trkpt lat="45.85046" lon="3.53848">
        <ele>355.58</ele>
        <time>2020-08-14T15:09:15.000Z</time>
      </trkpt>
      <trkpt lat="45.85061" lon="3.53851">
        <ele>355.61</ele>
        <time>2020-08-14T15:09:20.000Z</time>
      </trkpt>
      <trkpt lat="45.85077" lon="3.53846">
        <ele>355.64</ele>
        <time>2020-08-14T15:09:25.000Z</time>
      </trkpt>
      <trkpt lat="45.85092" lon="3.53837">
        <ele>355.66</ele>
        <time>2020-08-14T15:09:30.000Z</time>
      </trkpt>
      <trkpt lat="45.85109" lon="3.53828">
        <ele>355.69</ele>
        <time>2020-08-14T15:09:35.000Z</time>
      </trkpt>
      <trkpt lat="45.85126" lon="3.53828">
        <ele>355.77</ele>
        <time>2020-08-14T15:09:40.000Z</time>
      </trkpt>
      <trkpt lat="45.85135" lon="3.53857">
        <ele>355.96</ele>
        <time>2020-08-14T15:09:45.000Z</time>
      </trkpt>
      <trkpt lat="45.85145" lon="3.5389">
        <ele>356.05</ele>
        <time>2020-08-14T15:09:50.000Z</time>
      </trkpt>
      <trkpt lat="45.85154" lon="3.53919">
        <ele>356.06</ele>
        <time>2020-08-14T15:09:55.000Z</time>
      </trkpt>
      <trkpt lat="45.85166" lon="3.53948">
        <ele>356.05</ele>
        <time>2020-08-14T15:10:00.000Z</time>
      </trkpt>
      <trkpt lat="45.85179" lon="3.53973">
        <ele>356.03</ele>
        <time>2020-08-14T15:10:05.000Z</time>
      </trkpt>
      <trkpt lat="45.85185" lon="3.54001">
        <ele>356.05</ele>
        <time>2020-08-14T15:10:10.000Z</time>
      </trkpt>
      <trkpt lat="45.85191" lon="3.54028">
        <ele>356.07</ele>
        <time>2020-08-14T15:10:15.000Z</time>
      </trkpt>
      <trkpt lat="45.85197" lon="3.54056">
        <ele>356.16</ele>
        <time>2020-08-14T15:10:20.000Z</time>
      </trkpt>
      <trkpt lat="45.85202" lon="3.54083">
        <ele>356.17</ele>
        <time>2020-08-14T15:10:25.000Z</time>
      </trkpt>
      <trkpt lat="45.85206" lon="3.54105">
        <ele>356.19</ele>
        <time>2020-08-14T15:10:30.000Z</time>
      </trkpt>
      <trkpt lat="45.85209" lon="3.5412">
        <ele>356.21</ele>
        <time>2020-08-14T15:10:35.000Z</time>
      </trkpt>
      <trkpt lat="45.85211" lon="3.54135">
        <ele>356.29</ele>
        <time>2020-08-14T15:10:50.000Z</time>
      </trkpt>
      <trkpt lat="45.85214" lon="3.54156">
        <ele>356.35</ele>
        <time>2020-08-14T15:10:55.000Z</time>
      </trkpt>
      <trkpt lat="45.8523" lon="3.54156">
        <ele>356.41</ele>
        <time>2020-08-14T15:11:00.000Z</time>
      </trkpt>
      <trkpt lat="45.85243" lon="3.54161">
        <ele>356.47</ele>
        <time>2020-08-14T15:11:05.000Z</time>
      </trkpt>
      <trkpt lat="45.85256" lon="3.54169">
        <ele>356.55</ele>
        <time>2020-08-14T15:11:10.000Z</time>
      </trkpt>
      <trkpt lat="45.85266" lon="3.54174">
        <ele>356.62</ele>
        <time>2020-08-14T15:11:15.000Z</time>
      </trkpt>
      <trkpt lat="45.85276" lon="3.54181">
        <ele>356.7</ele>
        <time>2020-08-14T15:11:20.000Z</time>
      </trkpt>
      <trkpt lat="45.85284" lon="3.54185">
        <ele>356.78</ele>
        <time>2020-08-14T15:11:25.000Z</time>
      </trkpt>
      <trkpt lat="45.85295" lon="3.54186">
        <ele>356.86</ele>
        <time>2020-08-14T15:11:31.000Z</time>
      </trkpt>
      <trkpt lat="45.85305" lon="3.5419">
        <ele>356.95</ele>
        <time>2020-08-14T15:11:37.000Z</time>
      </trkpt>
      <trkpt lat="45.85315" lon="3.54194">
        <ele>357.04</ele>
        <time>2020-08-14T15:11:43.000Z</time>
      </trkpt>
      <trkpt lat="45.85324" lon="3.542">
        <ele>357.12</ele>
        <time>2020-08-14T15:11:49.000Z</time>
      </trkpt>
      <trkpt lat="45.85334" lon="3.54204">
        <ele>357.22</ele>
        <time>2020-08-14T15:11:56.000Z</time>
      </trkpt>
      <trkpt lat="45.85344" lon="3.54206">
        <ele>357.3</ele>
        <time>2020-08-14T15:12:02.000Z</time>
      </trkpt>
      <trkpt lat="45.85353" lon="3.5421">
        <ele>357.38</ele>
        <time>2020-08-14T15:12:07.000Z</time>
      </trkpt>
      <trkpt lat="45.85361" lon="3.54216">
        <ele>357.55</ele>
        <time>2020-08-14T15:12:20.000Z</time>
      </trkpt>
      <trkpt lat="45.8537" lon="3.54221">
        <ele>357.69</ele>
        <time>2020-08-14T15:12:30.000Z</time>
      </trkpt>
      <trkpt lat="45.85378" lon="3.54225">
        <ele>357.83</ele>
        <time>2020-08-14T15:12:40.000Z</time>
      </trkpt>
      <trkpt lat="45.85387" lon="3.54222">
        <ele>357.95</ele>
        <time>2020-08-14T15:12:48.000Z</time>
      </trkpt>
      <trkpt lat="45.85395" lon="3.54229">
        <ele>360.56</ele>
        <time>2020-08-14T15:16:29.000Z</time>
      </trkpt>
      <trkpt lat="45.85405" lon="3.54231">
        <ele>361.35</ele>
        <time>2020-08-14T15:16:40.000Z</time>
      </trkpt>
      <trkpt lat="45.85413" lon="3.54238">
        <ele>361.94</ele>
        <time>2020-08-14T15:16:49.000Z</time>
      </trkpt>
      <trkpt lat="45.85421" lon="3.54245">
        <ele>362.24</ele>
        <time>2020-08-14T15:16:54.000Z</time>
      </trkpt>
      <trkpt lat="45.8543" lon="3.54253">
        <ele>363.01</ele>
        <time>2020-08-14T15:17:08.000Z</time>
      </trkpt>
      <trkpt lat="45.85438" lon="3.54261">
        <ele>363.35</ele>
        <time>2020-08-14T15:17:15.000Z</time>
      </trkpt>
      <trkpt lat="45.85447" lon="3.54267">
        <ele>363.89</ele>
        <time>2020-08-14T15:17:26.000Z</time>
      </trkpt>
      <trkpt lat="45.85456" lon="3.54273">
        <ele>364.47</ele>
        <time>2020-08-14T15:17:38.000Z</time>
      </trkpt>
      <trkpt lat="45.85463" lon="3.54282">
        <ele>365.2</ele>
        <time>2020-08-14T15:17:55.000Z</time>
      </trkpt>
      <trkpt lat="45.85472" lon="3.54289">
        <ele>365.6</ele>
        <time>2020-08-14T15:18:04.000Z</time>
      </trkpt>
      <trkpt lat="45.85479" lon="3.54296">
        <ele>365.92</ele>
        <time>2020-08-14T15:18:11.000Z</time>
      </trkpt>
      <trkpt lat="45.85489" lon="3.54297">
        <ele>367.08</ele>
        <time>2020-08-14T15:18:53.000Z</time>
      </trkpt>
      <trkpt lat="45.85497" lon="3.54303">
        <ele>367.6</ele>
        <time>2020-08-14T15:19:01.000Z</time>
      </trkpt>
      <trkpt lat="45.85505" lon="3.5431">
        <ele>368.24</ele>
        <time>2020-08-14T15:19:11.000Z</time>
      </trkpt>
      <trkpt lat="45.85514" lon="3.54316">
        <ele>368.88</ele>
        <time>2020-08-14T15:19:21.000Z</time>
      </trkpt>
      <trkpt lat="45.85521" lon="3.54324">
        <ele>369.52</ele>
        <time>2020-08-14T15:19:30.999Z</time>
      </trkpt>
      <trkpt lat="45.85527" lon="3.54335">
        <ele>370.22</ele>
        <time>2020-08-14T15:19:41.999Z</time>
      </trkpt>
      <trkpt lat="45.85535" lon="3.54344">
        <ele>371.04</ele>
        <time>2020-08-14T15:19:54.999Z</time>
      </trkpt>
      <trkpt lat="45.85541" lon="3.54353">
        <ele>371.71</ele>
        <time>2020-08-14T15:20:05.999Z</time>
      </trkpt>
      <trkpt lat="45.8555" lon="3.54361">
        <ele>372.34</ele>
        <time>2020-08-14T15:20:16.999Z</time>
      </trkpt>
      <trkpt lat="45.85557" lon="3.54369">
        <ele>372.9</ele>
        <time>2020-08-14T15:20:26.999Z</time>
      </trkpt>
      <trkpt lat="45.85567" lon="3.54371">
        <ele>373.44</ele>
        <time>2020-08-14T15:20:36.999Z</time>
      </trkpt>
      <trkpt lat="45.85573" lon="3.54381">
        <ele>374.44</ele>
        <time>2020-08-14T15:21:10.999Z</time>
      </trkpt>
      <trkpt lat="45.85578" lon="3.54393">
        <ele>375.17</ele>
        <time>2020-08-14T15:21:20.999Z</time>
      </trkpt>
      <trkpt lat="45.85589" lon="3.54397">
        <ele>375.99</ele>
        <time>2020-08-14T15:21:32.999Z</time>
      </trkpt>
      <trkpt lat="45.85598" lon="3.54396">
        <ele>376.6</ele>
        <time>2020-08-14T15:21:41.999Z</time>
      </trkpt>
      <trkpt lat="45.85601" lon="3.54383">
        <ele>377.74</ele>
        <time>2020-08-14T15:22:18.999Z</time>
      </trkpt>
      <trkpt lat="45.85601" lon="3.5437">
        <ele>378.53</ele>
        <time>2020-08-14T15:22:27.999Z</time>
      </trkpt>
      <trkpt lat="45.85598" lon="3.54357">
        <ele>379.6</ele>
        <time>2020-08-14T15:22:39.999Z</time>
      </trkpt>
      <trkpt lat="45.85599" lon="3.54344">
        <ele>380.45</ele>
        <time>2020-08-14T15:22:48.999Z</time>
      </trkpt>
      <trkpt lat="45.85604" lon="3.54333">
        <ele>381.93</ele>
        <time>2020-08-14T15:23:02.999Z</time>
      </trkpt>
      <trkpt lat="45.85611" lon="3.54325">
        <ele>382.57</ele>
        <time>2020-08-14T15:23:08.999Z</time>
      </trkpt>
      <trkpt lat="45.85617" lon="3.54313">
        <ele>383.12</ele>
        <time>2020-08-14T15:23:13.999Z</time>
      </trkpt>
      <trkpt lat="45.85623" lon="3.54302">
        <ele>383.94</ele>
        <time>2020-08-14T15:23:20.999Z</time>
      </trkpt>
      <trkpt lat="45.85629" lon="3.54292">
        <ele>384.95</ele>
        <time>2020-08-14T15:23:28.999Z</time>
      </trkpt>
      <trkpt lat="45.85639" lon="3.54287">
        <ele>386.17</ele>
        <time>2020-08-14T15:23:37.999Z</time>
      </trkpt>
      <trkpt lat="45.85648" lon="3.54289">
        <ele>387.56</ele>
        <time>2020-08-14T15:23:47.999Z</time>
      </trkpt>
      <trkpt lat="45.85655" lon="3.54298">
        <ele>389.28</ele>
        <time>2020-08-14T15:24:00.999Z</time>
      </trkpt>
      <trkpt lat="45.85662" lon="3.54308">
        <ele>390.48</ele>
        <time>2020-08-14T15:24:08.999Z</time>
      </trkpt>
      <trkpt lat="45.85669" lon="3.54317">
        <ele>392.57</ele>
        <time>2020-08-14T15:24:43.999Z</time>
      </trkpt>
      <trkpt lat="45.85674" lon="3.54329">
        <ele>393.64</ele>
        <time>2020-08-14T15:24:49.999Z</time>
      </trkpt>
      <trkpt lat="45.85681" lon="3.54339">
        <ele>394.8</ele>
        <time>2020-08-14T15:24:56.999Z</time>
      </trkpt>
      <trkpt lat="45.85683" lon="3.54353">
        <ele>395.89</ele>
        <time>2020-08-14T15:25:03.999Z</time>
      </trkpt>
      <trkpt lat="45.85686" lon="3.54367">
        <ele>396.9</ele>
        <time>2020-08-14T15:25:10.999Z</time>
      </trkpt>
      <trkpt lat="45.85693" lon="3.54379">
        <ele>397.94</ele>
        <time>2020-08-14T15:25:18.999Z</time>
      </trkpt>
      <trkpt lat="45.85698" lon="3.54391">
        <ele>398.65</ele>
        <time>2020-08-14T15:25:24.999Z</time>
      </trkpt>
      <trkpt lat="45.85703" lon="3.54404">
        <ele>399.44</ele>
        <time>2020-08-14T15:25:31.999Z</time>
      </trkpt>
      <trkpt lat="45.85707" lon="3.54416">
        <ele>400.49</ele>
        <time>2020-08-14T15:25:41.999Z</time>
      </trkpt>
      <trkpt lat="45.85709" lon="3.5443">
        <ele>401.21</ele>
        <time>2020-08-14T15:25:48.999Z</time>
      </trkpt>
      <trkpt lat="45.85708" lon="3.54444">
        <ele>401.93</ele>
        <time>2020-08-14T15:25:55.999Z</time>
      </trkpt>
      <trkpt lat="45.85705" lon="3.54457">
        <ele>402.92</ele>
        <time>2020-08-14T15:26:04.999Z</time>
      </trkpt>
      <trkpt lat="45.85702" lon="3.54469">
        <ele>404.07</ele>
        <time>2020-08-14T15:26:13.999Z</time>
      </trkpt>
      <trkpt lat="45.85698" lon="3.54481">
        <ele>405.15</ele>
        <time>2020-08-14T15:26:20.999Z</time>
      </trkpt>
      <trkpt lat="45.85691" lon="3.54492">
        <ele>406.54</ele>
        <time>2020-08-14T15:26:27.999Z</time>
      </trkpt>
      <trkpt lat="45.85687" lon="3.54505">
        <ele>408.44</ele>
        <time>2020-08-14T15:26:35.999Z</time>
      </trkpt>
      <trkpt lat="45.85684" lon="3.54519">
        <ele>409.89</ele>
        <time>2020-08-14T15:26:41.999Z</time>
      </trkpt>
      <trkpt lat="45.85686" lon="3.54533">
        <ele>411.75</ele>
        <time>2020-08-14T15:26:49.999Z</time>
      </trkpt>
      <trkpt lat="45.85692" lon="3.54544">
        <ele>413.72</ele>
        <time>2020-08-14T15:26:58.999Z</time>
      </trkpt>
      <trkpt lat="45.85695" lon="3.54559">
        <ele>415.22</ele>
        <time>2020-08-14T15:27:05.999Z</time>
      </trkpt>
      <trkpt lat="45.85689" lon="3.54571">
        <ele>416.74</ele>
        <time>2020-08-14T15:27:12.999Z</time>
      </trkpt>
      <trkpt lat="45.85681" lon="3.5458">
        <ele>418.04</ele>
        <time>2020-08-14T15:27:18.999Z</time>
      </trkpt>
      <trkpt lat="45.85674" lon="3.54587">
        <ele>419.3</ele>
        <time>2020-08-14T15:27:24.999Z</time>
      </trkpt>
      <trkpt lat="45.85665" lon="3.54591">
        <ele>420.51</ele>
        <time>2020-08-14T15:27:30.999Z</time>
      </trkpt>
      <trkpt lat="45.85654" lon="3.54594">
        <ele>421.5</ele>
        <time>2020-08-14T15:27:35.999Z</time>
      </trkpt>
      <trkpt lat="45.85644" lon="3.54596">
        <ele>422.47</ele>
        <time>2020-08-14T15:27:40.999Z</time>
      </trkpt>
      <trkpt lat="45.85635" lon="3.546">
        <ele>423.57</ele>
        <time>2020-08-14T15:27:46.999Z</time>
      </trkpt>
      <trkpt lat="45.85625" lon="3.546">
        <ele>424.45</ele>
        <time>2020-08-14T15:27:51.999Z</time>
      </trkpt>
      <trkpt lat="45.85616" lon="3.54604">
        <ele>425.46</ele>
        <time>2020-08-14T15:27:57.999Z</time>
      </trkpt>
      <trkpt lat="45.85608" lon="3.54611">
        <ele>426.41</ele>
        <time>2020-08-14T15:28:03.999Z</time>
      </trkpt>
      <trkpt lat="45.85599" lon="3.54618">
        <ele>427.17</ele>
        <time>2020-08-14T15:28:08.999Z</time>
      </trkpt>
      <trkpt lat="45.85589" lon="3.54622">
        <ele>428.35</ele>
        <time>2020-08-14T15:28:16.999Z</time>
      </trkpt>
      <trkpt lat="45.85579" lon="3.54626">
        <ele>429.22</ele>
        <time>2020-08-14T15:28:22.999Z</time>
      </trkpt>
      <trkpt lat="45.85572" lon="3.54632">
        <ele>429.95</ele>
        <time>2020-08-14T15:28:27.999Z</time>
      </trkpt>
      <trkpt lat="45.85561" lon="3.54643">
        <ele>430.66</ele>
        <time>2020-08-14T15:28:32.999Z</time>
      </trkpt>
      <trkpt lat="45.85546" lon="3.54657">
        <ele>431.4</ele>
        <time>2020-08-14T15:28:37.999Z</time>
      </trkpt>
      <trkpt lat="45.85533" lon="3.54668">
        <ele>432.15</ele>
        <time>2020-08-14T15:28:42.999Z</time>
      </trkpt>
      <trkpt lat="45.85519" lon="3.54682">
        <ele>432.92</ele>
        <time>2020-08-14T15:28:47.999Z</time>
      </trkpt>
      <trkpt lat="45.85503" lon="3.54699">
        <ele>433.67</ele>
        <time>2020-08-14T15:28:52.999Z</time>
      </trkpt>
      <trkpt lat="45.85496" lon="3.54717">
        <ele>434.39</ele>
        <time>2020-08-14T15:28:57.999Z</time>
      </trkpt>
      <trkpt lat="45.85496" lon="3.54733">
        <ele>435.09</ele>
        <time>2020-08-14T15:29:02.999Z</time>
      </trkpt>
      <trkpt lat="45.85498" lon="3.5475">
        <ele>435.79</ele>
        <time>2020-08-14T15:29:07.999Z</time>
      </trkpt>
      <trkpt lat="45.85501" lon="3.54766">
        <ele>436.46</ele>
        <time>2020-08-14T15:29:12.999Z</time>
      </trkpt>
      <trkpt lat="45.85501" lon="3.54782">
        <ele>437.08</ele>
        <time>2020-08-14T15:29:17.999Z</time>
      </trkpt>
      <trkpt lat="45.85508" lon="3.54802">
        <ele>437.67</ele>
        <time>2020-08-14T15:29:22.999Z</time>
      </trkpt>
      <trkpt lat="45.85513" lon="3.54816">
        <ele>438.23</ele>
        <time>2020-08-14T15:29:27.999Z</time>
      </trkpt>
      <trkpt lat="45.85525" lon="3.54824">
        <ele>438.77</ele>
        <time>2020-08-14T15:29:32.999Z</time>
      </trkpt>
      <trkpt lat="45.85533" lon="3.5484">
        <ele>439.29</ele>
        <time>2020-08-14T15:29:37.999Z</time>
      </trkpt>
      <trkpt lat="45.85542" lon="3.54838">
        <ele>439.84</ele>
        <time>2020-08-14T15:29:42.999Z</time>
      </trkpt>
      <trkpt lat="45.8555" lon="3.54829">
        <ele>440.74</ele>
        <time>2020-08-14T15:29:48.999Z</time>
      </trkpt>
      <trkpt lat="45.85562" lon="3.54829">
        <ele>441.4</ele>
        <time>2020-08-14T15:29:53.999Z</time>
      </trkpt>
      <trkpt lat="45.85571" lon="3.54833">
        <ele>442.05</ele>
        <time>2020-08-14T15:30:00.999Z</time>
      </trkpt>
      <trkpt lat="45.8558" lon="3.54829">
        <ele>444.03</ele>
        <time>2020-08-14T15:30:19.999Z</time>
      </trkpt>
      <trkpt lat="45.85589" lon="3.54824">
        <ele>445.24</ele>
        <time>2020-08-14T15:30:29.999Z</time>
      </trkpt>
      <trkpt lat="45.85597" lon="3.54819">
        <ele>446.28</ele>
        <time>2020-08-14T15:30:39.999Z</time>
      </trkpt>
      <trkpt lat="45.85605" lon="3.54815">
        <ele>447.14</ele>
        <time>2020-08-14T15:30:47.999Z</time>
      </trkpt>
      <trkpt lat="45.85613" lon="3.54807">
        <ele>448.12</ele>
        <time>2020-08-14T15:30:57.999Z</time>
      </trkpt>
      <trkpt lat="45.85622" lon="3.548">
        <ele>448.66</ele>
        <time>2020-08-14T15:31:03.999Z</time>
      </trkpt>
      <trkpt lat="45.85631" lon="3.54797">
        <ele>449.48</ele>
        <time>2020-08-14T15:31:14.999Z</time>
      </trkpt>
      <trkpt lat="45.8564" lon="3.54794">
        <ele>450.31</ele>
        <time>2020-08-14T15:31:26.999Z</time>
      </trkpt>
      <trkpt lat="45.85649" lon="3.54791">
        <ele>450.79</ele>
        <time>2020-08-14T15:31:35.000Z</time>
      </trkpt>
      <trkpt lat="45.85657" lon="3.54785">
        <ele>451.32</ele>
        <time>2020-08-14T15:31:43.000Z</time>
      </trkpt>
      <trkpt lat="45.85659" lon="3.54772">
        <ele>452.46</ele>
        <time>2020-08-14T15:32:27.000Z</time>
      </trkpt>
      <trkpt lat="45.85666" lon="3.54762">
        <ele>455.75</ele>
        <time>2020-08-14T15:33:35.000Z</time>
      </trkpt>
      <trkpt lat="45.85671" lon="3.54746">
        <ele>456.67</ele>
        <time>2020-08-14T15:33:40.000Z</time>
      </trkpt>
      <trkpt lat="45.85678" lon="3.54735">
        <ele>457.74</ele>
        <time>2020-08-14T15:33:46.000Z</time>
      </trkpt>
      <trkpt lat="45.85687" lon="3.54722">
        <ele>458.59</ele>
        <time>2020-08-14T15:33:51.000Z</time>
      </trkpt>
      <trkpt lat="45.85697" lon="3.54727">
        <ele>459.39</ele>
        <time>2020-08-14T15:33:56.000Z</time>
      </trkpt>
      <trkpt lat="45.85704" lon="3.54735">
        <ele>460.34</ele>
        <time>2020-08-14T15:34:02.000Z</time>
      </trkpt>
      <trkpt lat="45.8571" lon="3.54747">
        <ele>461.4</ele>
        <time>2020-08-14T15:34:09.000Z</time>
      </trkpt>
      <trkpt lat="45.85717" lon="3.54757">
        <ele>462.42</ele>
        <time>2020-08-14T15:34:16.000Z</time>
      </trkpt>
      <trkpt lat="45.85722" lon="3.54768">
        <ele>463.25</ele>
        <time>2020-08-14T15:34:22.000Z</time>
      </trkpt>
      <trkpt lat="45.85725" lon="3.54781">
        <ele>464.28</ele>
        <time>2020-08-14T15:34:30.000Z</time>
      </trkpt>
      <trkpt lat="45.85725" lon="3.54797">
        <ele>465.25</ele>
        <time>2020-08-14T15:34:38.000Z</time>
      </trkpt>
      <trkpt lat="45.85729" lon="3.5481">
        <ele>466.04</ele>
        <time>2020-08-14T15:34:45.000Z</time>
      </trkpt>
      <trkpt lat="45.85725" lon="3.54794">
        <ele>471.66</ele>
        <time>2020-08-14T15:37:18.000Z</time>
      </trkpt>
      <trkpt lat="45.85721" lon="3.54766">
        <ele>472.27</ele>
        <time>2020-08-14T15:37:23.000Z</time>
      </trkpt>
      <trkpt lat="45.85716" lon="3.54745">
        <ele>473.61</ele>
        <time>2020-08-14T15:37:28.000Z</time>
      </trkpt>
      <trkpt lat="45.85699" lon="3.54721">
        <ele>476.88</ele>
        <time>2020-08-14T15:37:33.000Z</time>
      </trkpt>
      <trkpt lat="45.85686" lon="3.5471">
        <ele>477.16</ele>
        <time>2020-08-14T15:37:38.000Z</time>
      </trkpt>
      <trkpt lat="45.85673" lon="3.54726">
        <ele>477.3</ele>
        <time>2020-08-14T15:37:43.000Z</time>
      </trkpt>
      <trkpt lat="45.85667" lon="3.54748">
        <ele>477.43</ele>
        <time>2020-08-14T15:37:48.000Z</time>
      </trkpt>
      <trkpt lat="45.85663" lon="3.54776">
        <ele>477.74</ele>
        <time>2020-08-14T15:37:53.000Z</time>
      </trkpt>
      <trkpt lat="45.85665" lon="3.5481">
        <ele>478.57</ele>
        <time>2020-08-14T15:37:58.000Z</time>
      </trkpt>
      <trkpt lat="45.85668" lon="3.54849">
        <ele>478.91</ele>
        <time>2020-08-14T15:38:03.000Z</time>
      </trkpt>
      <trkpt lat="45.85671" lon="3.54885">
        <ele>479.05</ele>
        <time>2020-08-14T15:38:08.000Z</time>
      </trkpt>
      <trkpt lat="45.85672" lon="3.54914">
        <ele>479.07</ele>
        <time>2020-08-14T15:38:13.000Z</time>
      </trkpt>
      <trkpt lat="45.85668" lon="3.54927">
        <ele>479.08</ele>
        <time>2020-08-14T15:38:19.000Z</time>
      </trkpt>
      <trkpt lat="45.85668" lon="3.5494">
        <ele>479.1</ele>
        <time>2020-08-14T15:38:26.000Z</time>
      </trkpt>
      <trkpt lat="45.85672" lon="3.54952">
        <ele>479.13</ele>
        <time>2020-08-14T15:38:32.000Z</time>
      </trkpt>
      <trkpt lat="45.85682" lon="3.54958">
        <ele>479.14</ele>
        <time>2020-08-14T15:38:37.000Z</time>
      </trkpt>
      <trkpt lat="45.85692" lon="3.54967">
        <ele>479.16</ele>
        <time>2020-08-14T15:38:42.000Z</time>
      </trkpt>
      <trkpt lat="45.85703" lon="3.54977">
        <ele>479.17</ele>
        <time>2020-08-14T15:38:47.000Z</time>
      </trkpt>
      <trkpt lat="45.85711" lon="3.54985">
        <ele>479.19</ele>
        <time>2020-08-14T15:38:52.000Z</time>
      </trkpt>
      <trkpt lat="45.85722" lon="3.54989">
        <ele>479.21</ele>
        <time>2020-08-14T15:38:57.000Z</time>
      </trkpt>
      <trkpt lat="45.85733" lon="3.54992">
        <ele>479.23</ele>
        <time>2020-08-14T15:39:02.000Z</time>
      </trkpt>
      <trkpt lat="45.85744" lon="3.54996">
        <ele>479.25</ele>
        <time>2020-08-14T15:39:07.000Z</time>
      </trkpt>
      <trkpt lat="45.85756" lon="3.55">
        <ele>479.26</ele>
        <time>2020-08-14T15:39:12.000Z</time>
      </trkpt>
      <trkpt lat="45.85766" lon="3.55002">
        <ele>479.28</ele>
        <time>2020-08-14T15:39:17.000Z</time>
      </trkpt>
      <trkpt lat="45.85778" lon="3.55004">
        <ele>479.3</ele>
        <time>2020-08-14T15:39:22.000Z</time>
      </trkpt>
      <trkpt lat="45.85791" lon="3.55003">
        <ele>479.32</ele>
        <time>2020-08-14T15:39:27.000Z</time>
      </trkpt>
      <trkpt lat="45.85803" lon="3.55002">
        <ele>479.34</ele>
        <time>2020-08-14T15:39:32.000Z</time>
      </trkpt>
      <trkpt lat="45.85816" lon="3.55">
        <ele>479.36</ele>
        <time>2020-08-14T15:39:37.000Z</time>
      </trkpt>
      <trkpt lat="45.85831" lon="3.54996">
        <ele>479.39</ele>
        <time>2020-08-14T15:39:42.000Z</time>
      </trkpt>
      <trkpt lat="45.85845" lon="3.54992">
        <ele>479.41</ele>
        <time>2020-08-14T15:39:47.000Z</time>
      </trkpt>
      <trkpt lat="45.85859" lon="3.54987">
        <ele>479.42</ele>
        <time>2020-08-14T15:39:52.000Z</time>
      </trkpt>
      <trkpt lat="45.85871" lon="3.54982">
        <ele>479.43</ele>
        <time>2020-08-14T15:39:57.000Z</time>
      </trkpt>
      <trkpt lat="45.85884" lon="3.54982">
        <ele>479.44</ele>
        <time>2020-08-14T15:40:02.000Z</time>
      </trkpt>
      <trkpt lat="45.85898" lon="3.54982">
        <ele>479.45</ele>
        <time>2020-08-14T15:40:07.000Z</time>
      </trkpt>
      <trkpt lat="45.85912" lon="3.54984">
        <ele>479.47</ele>
        <time>2020-08-14T15:40:12.000Z</time>
      </trkpt>
      <trkpt lat="45.85925" lon="3.54986">
        <ele>479.48</ele>
        <time>2020-08-14T15:40:17.000Z</time>
      </trkpt>
      <trkpt lat="45.85937" lon="3.54989">
        <ele>479.5</ele>
        <time>2020-08-14T15:40:22.000Z</time>
      </trkpt>
      <trkpt lat="45.85949" lon="3.54991">
        <ele>479.52</ele>
        <time>2020-08-14T15:40:27.000Z</time>
      </trkpt>
      <trkpt lat="45.85962" lon="3.55">
        <ele>479.56</ele>
        <time>2020-08-14T15:40:32.000Z</time>
      </trkpt>
      <trkpt lat="45.8597" lon="3.55012">
        <ele>479.6</ele>
        <time>2020-08-14T15:40:37.000Z</time>
      </trkpt>
      <trkpt lat="45.85978" lon="3.55022">
        <ele>479.65</ele>
        <time>2020-08-14T15:40:42.000Z</time>
      </trkpt>
      <trkpt lat="45.85984" lon="3.55035">
        <ele>479.7</ele>
        <time>2020-08-14T15:40:47.000Z</time>
      </trkpt>
      <trkpt lat="45.85982" lon="3.55049">
        <ele>479.77</ele>
        <time>2020-08-14T15:40:52.000Z</time>
      </trkpt>
      <trkpt lat="45.85975" lon="3.55061">
        <ele>479.84</ele>
        <time>2020-08-14T15:40:57.000Z</time>
      </trkpt>
      <trkpt lat="45.85965" lon="3.55067">
        <ele>479.93</ele>
        <time>2020-08-14T15:41:02.000Z</time>
      </trkpt>
      <trkpt lat="45.85956" lon="3.55074">
        <ele>480.05</ele>
        <time>2020-08-14T15:41:08.000Z</time>
      </trkpt>
      <trkpt lat="45.85949" lon="3.55085">
        <ele>480.17</ele>
        <time>2020-08-14T15:41:13.000Z</time>
      </trkpt>
      <trkpt lat="45.85945" lon="3.55098">
        <ele>480.29</ele>
        <time>2020-08-14T15:41:18.000Z</time>
      </trkpt>
      <trkpt lat="45.85941" lon="3.55111">
        <ele>480.42</ele>
        <time>2020-08-14T15:41:23.000Z</time>
      </trkpt>
      <trkpt lat="45.8594" lon="3.55125">
        <ele>480.56</ele>
        <time>2020-08-14T15:41:28.000Z</time>
      </trkpt>
      <trkpt lat="45.85939" lon="3.55139">
        <ele>480.71</ele>
        <time>2020-08-14T15:41:33.000Z</time>
      </trkpt>
      <trkpt lat="45.85939" lon="3.55153">
        <ele>480.85</ele>
        <time>2020-08-14T15:41:38.000Z</time>
      </trkpt>
      <trkpt lat="45.85939" lon="3.55166">
        <ele>481</ele>
        <time>2020-08-14T15:41:43.000Z</time>
      </trkpt>
      <trkpt lat="45.8594" lon="3.5518">
        <ele>481.15</ele>
        <time>2020-08-14T15:41:48.000Z</time>
      </trkpt>
      <trkpt lat="45.85943" lon="3.55193">
        <ele>481.31</ele>
        <time>2020-08-14T15:41:53.000Z</time>
      </trkpt>
      <trkpt lat="45.85947" lon="3.55207">
        <ele>481.47</ele>
        <time>2020-08-14T15:41:58.000Z</time>
      </trkpt>
      <trkpt lat="45.85948" lon="3.55221">
        <ele>481.65</ele>
        <time>2020-08-14T15:42:03.000Z</time>
      </trkpt>
      <trkpt lat="45.85947" lon="3.55234">
        <ele>481.83</ele>
        <time>2020-08-14T15:42:08.000Z</time>
      </trkpt>
      <trkpt lat="45.85946" lon="3.55248">
        <ele>482.01</ele>
        <time>2020-08-14T15:42:13.000Z</time>
      </trkpt>
      <trkpt lat="45.85944" lon="3.55263">
        <ele>482.24</ele>
        <time>2020-08-14T15:42:19.000Z</time>
      </trkpt>
      <trkpt lat="45.85945" lon="3.55278">
        <ele>482.48</ele>
        <time>2020-08-14T15:42:25.000Z</time>
      </trkpt>
      <trkpt lat="45.85945" lon="3.55291">
        <ele>482.73</ele>
        <time>2020-08-14T15:42:31.000Z</time>
      </trkpt>
      <trkpt lat="45.85947" lon="3.55306">
        <ele>482.98</ele>
        <time>2020-08-14T15:42:37.000Z</time>
      </trkpt>
      <trkpt lat="45.85949" lon="3.5532">
        <ele>483.24</ele>
        <time>2020-08-14T15:42:43.000Z</time>
      </trkpt>
      <trkpt lat="45.85949" lon="3.55335">
        <ele>483.51</ele>
        <time>2020-08-14T15:42:49.000Z</time>
      </trkpt>
      <trkpt lat="45.85951" lon="3.55349">
        <ele>483.79</ele>
        <time>2020-08-14T15:42:55.000Z</time>
      </trkpt>
      <trkpt lat="45.85951" lon="3.55363">
        <ele>484.07</ele>
        <time>2020-08-14T15:43:01.000Z</time>
      </trkpt>
      <trkpt lat="45.85951" lon="3.55376">
        <ele>484.35</ele>
        <time>2020-08-14T15:43:07.000Z</time>
      </trkpt>
      <trkpt lat="45.85956" lon="3.55388">
        <ele>484.63</ele>
        <time>2020-08-14T15:43:13.000Z</time>
      </trkpt>
      <trkpt lat="45.85966" lon="3.55397">
        <ele>484.85</ele>
        <time>2020-08-14T15:43:18.000Z</time>
      </trkpt>
      <trkpt lat="45.85975" lon="3.55403">
        <ele>485.07</ele>
        <time>2020-08-14T15:43:23.000Z</time>
      </trkpt>
      <trkpt lat="45.85983" lon="3.55398">
        <ele>485.31</ele>
        <time>2020-08-14T15:43:29.000Z</time>
      </trkpt>
      <trkpt lat="45.85991" lon="3.55392">
        <ele>485.5</ele>
        <time>2020-08-14T15:43:34.000Z</time>
      </trkpt>
      <trkpt lat="45.86001" lon="3.55387">
        <ele>485.68</ele>
        <time>2020-08-14T15:43:39.000Z</time>
      </trkpt>
      <trkpt lat="45.86011" lon="3.55383">
        <ele>485.85</ele>
        <time>2020-08-14T15:43:44.000Z</time>
      </trkpt>
      <trkpt lat="45.86021" lon="3.5538">
        <ele>486.01</ele>
        <time>2020-08-14T15:43:48.999Z</time>
      </trkpt>
      <trkpt lat="45.86031" lon="3.55378">
        <ele>486.17</ele>
        <time>2020-08-14T15:43:53.999Z</time>
      </trkpt>
      <trkpt lat="45.86041" lon="3.55373">
        <ele>486.32</ele>
        <time>2020-08-14T15:43:58.999Z</time>
      </trkpt>
      <trkpt lat="45.8605" lon="3.5537">
        <ele>486.49</ele>
        <time>2020-08-14T15:44:04.999Z</time>
      </trkpt>
      <trkpt lat="45.86059" lon="3.55369">
        <ele>486.63</ele>
        <time>2020-08-14T15:44:09.999Z</time>
      </trkpt>
      <trkpt lat="45.86069" lon="3.55364">
        <ele>486.76</ele>
        <time>2020-08-14T15:44:14.999Z</time>
      </trkpt>
      <trkpt lat="45.86079" lon="3.55359">
        <ele>486.92</ele>
        <time>2020-08-14T15:44:19.999Z</time>
      </trkpt>
      <trkpt lat="45.86088" lon="3.55356">
        <ele>487.08</ele>
        <time>2020-08-14T15:44:24.999Z</time>
      </trkpt>
      <trkpt lat="45.86097" lon="3.55351">
        <ele>487.25</ele>
        <time>2020-08-14T15:44:29.999Z</time>
      </trkpt>
      <trkpt lat="45.86107" lon="3.55343">
        <ele>487.42</ele>
        <time>2020-08-14T15:44:34.999Z</time>
      </trkpt>
      <trkpt lat="45.86118" lon="3.55339">
        <ele>487.61</ele>
        <time>2020-08-14T15:44:39.999Z</time>
      </trkpt>
      <trkpt lat="45.86129" lon="3.55337">
        <ele>487.81</ele>
        <time>2020-08-14T15:44:44.999Z</time>
      </trkpt>
      <trkpt lat="45.86141" lon="3.55342">
        <ele>488.01</ele>
        <time>2020-08-14T15:44:49.999Z</time>
      </trkpt>
      <trkpt lat="45.86151" lon="3.55348">
        <ele>488.21</ele>
        <time>2020-08-14T15:44:54.999Z</time>
      </trkpt>
      <trkpt lat="45.8616" lon="3.55357">
        <ele>488.44</ele>
        <time>2020-08-14T15:45:00.999Z</time>
      </trkpt>
      <trkpt lat="45.86169" lon="3.55362">
        <ele>488.62</ele>
        <time>2020-08-14T15:45:05.999Z</time>
      </trkpt>
      <trkpt lat="45.86179" lon="3.55368">
        <ele>488.8</ele>
        <time>2020-08-14T15:45:10.999Z</time>
      </trkpt>
      <trkpt lat="45.86189" lon="3.55373">
        <ele>488.97</ele>
        <time>2020-08-14T15:45:15.999Z</time>
      </trkpt>
      <trkpt lat="45.86199" lon="3.55376">
        <ele>489.14</ele>
        <time>2020-08-14T15:45:20.999Z</time>
      </trkpt>
      <trkpt lat="45.8621" lon="3.55377">
        <ele>489.36</ele>
        <time>2020-08-14T15:45:26.999Z</time>
      </trkpt>
      <trkpt lat="45.86221" lon="3.55378">
        <ele>489.55</ele>
        <time>2020-08-14T15:45:31.999Z</time>
      </trkpt>
      <trkpt lat="45.86231" lon="3.55381">
        <ele>489.75</ele>
        <time>2020-08-14T15:45:36.999Z</time>
      </trkpt>
      <trkpt lat="45.8624" lon="3.55384">
        <ele>489.96</ele>
        <time>2020-08-14T15:45:41.999Z</time>
      </trkpt>
      <trkpt lat="45.8625" lon="3.55388">
        <ele>490.2</ele>
        <time>2020-08-14T15:45:47.999Z</time>
      </trkpt>
      <trkpt lat="45.8626" lon="3.55395">
        <ele>490.46</ele>
        <time>2020-08-14T15:45:53.999Z</time>
      </trkpt>
      <trkpt lat="45.86268" lon="3.55404">
        <ele>490.69</ele>
        <time>2020-08-14T15:45:58.999Z</time>
      </trkpt>
      <trkpt lat="45.86276" lon="3.55412">
        <ele>490.94</ele>
        <time>2020-08-14T15:46:03.999Z</time>
      </trkpt>
      <trkpt lat="45.86283" lon="3.55424">
        <ele>491.2</ele>
        <time>2020-08-14T15:46:08.999Z</time>
      </trkpt>
      <trkpt lat="45.8629" lon="3.55436">
        <ele>491.48</ele>
        <time>2020-08-14T15:46:13.999Z</time>
      </trkpt>
      <trkpt lat="45.86296" lon="3.55447">
        <ele>491.78</ele>
        <time>2020-08-14T15:46:18.999Z</time>
      </trkpt>
      <trkpt lat="45.86304" lon="3.55456">
        <ele>492.09</ele>
        <time>2020-08-14T15:46:23.999Z</time>
      </trkpt>
      <trkpt lat="45.86312" lon="3.55465">
        <ele>492.4</ele>
        <time>2020-08-14T15:46:28.999Z</time>
      </trkpt>
      <trkpt lat="45.8632" lon="3.55474">
        <ele>492.71</ele>
        <time>2020-08-14T15:46:33.999Z</time>
      </trkpt>
      <trkpt lat="45.86328" lon="3.55482">
        <ele>493.02</ele>
        <time>2020-08-14T15:46:38.999Z</time>
      </trkpt>
      <trkpt lat="45.86333" lon="3.55493">
        <ele>493.33</ele>
        <time>2020-08-14T15:46:43.999Z</time>
      </trkpt>
      <trkpt lat="45.86338" lon="3.55504">
        <ele>493.64</ele>
        <time>2020-08-14T15:46:48.999Z</time>
      </trkpt>
      <trkpt lat="45.86338" lon="3.55518">
        <ele>493.96</ele>
        <time>2020-08-14T15:46:53.999Z</time>
      </trkpt>
      <trkpt lat="45.86336" lon="3.55535">
        <ele>494.29</ele>
        <time>2020-08-14T15:46:58.999Z</time>
      </trkpt>
      <trkpt lat="45.86335" lon="3.55552">
        <ele>494.62</ele>
        <time>2020-08-14T15:47:03.999Z</time>
      </trkpt>
      <trkpt lat="45.86334" lon="3.55567">
        <ele>494.93</ele>
        <time>2020-08-14T15:47:08.999Z</time>
      </trkpt>
      <trkpt lat="45.8633" lon="3.5558">
        <ele>495.26</ele>
        <time>2020-08-14T15:47:13.999Z</time>
      </trkpt>
      <trkpt lat="45.86325" lon="3.55591">
        <ele>495.59</ele>
        <time>2020-08-14T15:47:18.999Z</time>
      </trkpt>
      <trkpt lat="45.86319" lon="3.55602">
        <ele>495.92</ele>
        <time>2020-08-14T15:47:23.999Z</time>
      </trkpt>
      <trkpt lat="45.86314" lon="3.55615">
        <ele>496.26</ele>
        <time>2020-08-14T15:47:28.999Z</time>
      </trkpt>
      <trkpt lat="45.86309" lon="3.5563">
        <ele>496.59</ele>
        <time>2020-08-14T15:47:33.999Z</time>
      </trkpt>
      <trkpt lat="45.86307" lon="3.55647">
        <ele>497</ele>
        <time>2020-08-14T15:47:39.999Z</time>
      </trkpt>
      <trkpt lat="45.86303" lon="3.55662">
        <ele>497.34</ele>
        <time>2020-08-14T15:47:44.999Z</time>
      </trkpt>
      <trkpt lat="45.863" lon="3.55678">
        <ele>497.68</ele>
        <time>2020-08-14T15:47:49.999Z</time>
      </trkpt>
      <trkpt lat="45.863" lon="3.55693">
        <ele>498.01</ele>
        <time>2020-08-14T15:47:54.999Z</time>
      </trkpt>
      <trkpt lat="45.863" lon="3.55707">
        <ele>498.33</ele>
        <time>2020-08-14T15:47:59.999Z</time>
      </trkpt>
      <trkpt lat="45.86301" lon="3.55722">
        <ele>498.72</ele>
        <time>2020-08-14T15:48:05.999Z</time>
      </trkpt>
      <trkpt lat="45.86304" lon="3.55734">
        <ele>499.04</ele>
        <time>2020-08-14T15:48:10.999Z</time>
      </trkpt>
      <trkpt lat="45.86308" lon="3.55746">
        <ele>499.38</ele>
        <time>2020-08-14T15:48:15.999Z</time>
      </trkpt>
      <trkpt lat="45.86311" lon="3.55758">
        <ele>499.72</ele>
        <time>2020-08-14T15:48:20.999Z</time>
      </trkpt>
      <trkpt lat="45.86316" lon="3.55769">
        <ele>500.08</ele>
        <time>2020-08-14T15:48:25.999Z</time>
      </trkpt>
      <trkpt lat="45.86321" lon="3.5578">
        <ele>500.44</ele>
        <time>2020-08-14T15:48:30.999Z</time>
      </trkpt>
      <trkpt lat="45.86321" lon="3.55795">
        <ele>500.89</ele>
        <time>2020-08-14T15:48:36.999Z</time>
      </trkpt>
      <trkpt lat="45.86318" lon="3.55809">
        <ele>501.42</ele>
        <time>2020-08-14T15:48:43.999Z</time>
      </trkpt>
      <trkpt lat="45.86313" lon="3.5582">
        <ele>501.91</ele>
        <time>2020-08-14T15:48:49.999Z</time>
      </trkpt>
      <trkpt lat="45.86306" lon="3.5583">
        <ele>502.36</ele>
        <time>2020-08-14T15:48:54.999Z</time>
      </trkpt>
      <trkpt lat="45.86297" lon="3.55844">
        <ele>502.83</ele>
        <time>2020-08-14T15:48:59.999Z</time>
      </trkpt>
      <trkpt lat="45.86289" lon="3.55855">
        <ele>503.33</ele>
        <time>2020-08-14T15:49:04.999Z</time>
      </trkpt>
      <trkpt lat="45.86281" lon="3.55866">
        <ele>503.95</ele>
        <time>2020-08-14T15:49:10.999Z</time>
      </trkpt>
      <trkpt lat="45.86275" lon="3.55876">
        <ele>504.48</ele>
        <time>2020-08-14T15:49:15.999Z</time>
      </trkpt>
      <trkpt lat="45.86269" lon="3.55889">
        <ele>505.24</ele>
        <time>2020-08-14T15:49:22.999Z</time>
      </trkpt>
      <trkpt lat="45.86265" lon="3.55902">
        <ele>505.88</ele>
        <time>2020-08-14T15:49:28.999Z</time>
      </trkpt>
      <trkpt lat="45.86262" lon="3.55916">
        <ele>506.53</ele>
        <time>2020-08-14T15:49:34.999Z</time>
      </trkpt>
      <trkpt lat="45.8626" lon="3.55932">
        <ele>507.18</ele>
        <time>2020-08-14T15:49:40.999Z</time>
      </trkpt>
      <trkpt lat="45.86262" lon="3.55945">
        <ele>507.74</ele>
        <time>2020-08-14T15:49:45.999Z</time>
      </trkpt>
      <trkpt lat="45.86268" lon="3.55958">
        <ele>508.42</ele>
        <time>2020-08-14T15:49:51.999Z</time>
      </trkpt>
      <trkpt lat="45.86278" lon="3.5597">
        <ele>509.01</ele>
        <time>2020-08-14T15:49:56.999Z</time>
      </trkpt>
      <trkpt lat="45.86285" lon="3.55982">
        <ele>509.62</ele>
        <time>2020-08-14T15:50:01.999Z</time>
      </trkpt>
      <trkpt lat="45.86293" lon="3.55992">
        <ele>510.24</ele>
        <time>2020-08-14T15:50:06.999Z</time>
      </trkpt>
      <trkpt lat="45.86299" lon="3.56002">
        <ele>510.86</ele>
        <time>2020-08-14T15:50:11.999Z</time>
      </trkpt>
      <trkpt lat="45.86307" lon="3.56012">
        <ele>511.49</ele>
        <time>2020-08-14T15:50:16.999Z</time>
      </trkpt>
      <trkpt lat="45.86316" lon="3.56019">
        <ele>512.1</ele>
        <time>2020-08-14T15:50:21.999Z</time>
      </trkpt>
      <trkpt lat="45.86325" lon="3.56026">
        <ele>512.82</ele>
        <time>2020-08-14T15:50:27.999Z</time>
      </trkpt>
      <trkpt lat="45.86335" lon="3.56032">
        <ele>513.42</ele>
        <time>2020-08-14T15:50:32.999Z</time>
      </trkpt>
      <trkpt lat="45.86343" lon="3.56038">
        <ele>514.02</ele>
        <time>2020-08-14T15:50:37.999Z</time>
      </trkpt>
      <trkpt lat="45.86352" lon="3.56044">
        <ele>514.75</ele>
        <time>2020-08-14T15:50:43.999Z</time>
      </trkpt>
      <trkpt lat="45.86361" lon="3.56048">
        <ele>515.48</ele>
        <time>2020-08-14T15:50:49.999Z</time>
      </trkpt>
      <trkpt lat="45.86371" lon="3.56053">
        <ele>516.22</ele>
        <time>2020-08-14T15:50:55.999Z</time>
      </trkpt>
      <trkpt lat="45.86381" lon="3.56057">
        <ele>516.95</ele>
        <time>2020-08-14T15:51:01.999Z</time>
      </trkpt>
      <trkpt lat="45.8639" lon="3.56062">
        <ele>517.67</ele>
        <time>2020-08-14T15:51:07.999Z</time>
      </trkpt>
      <trkpt lat="45.86401" lon="3.56066">
        <ele>518.38</ele>
        <time>2020-08-14T15:51:13.999Z</time>
      </trkpt>
      <trkpt lat="45.86409" lon="3.56073">
        <ele>519.08</ele>
        <time>2020-08-14T15:51:19.999Z</time>
      </trkpt>
      <trkpt lat="45.86418" lon="3.56081">
        <ele>519.89</ele>
        <time>2020-08-14T15:51:26.999Z</time>
      </trkpt>
      <trkpt lat="45.86427" lon="3.56086">
        <ele>520.58</ele>
        <time>2020-08-14T15:51:32.999Z</time>
      </trkpt>
      <trkpt lat="45.86435" lon="3.56091">
        <ele>521.24</ele>
        <time>2020-08-14T15:51:38.999Z</time>
      </trkpt>
      <trkpt lat="45.86443" lon="3.56099">
        <ele>521.87</ele>
        <time>2020-08-14T15:51:44.999Z</time>
      </trkpt>
      <trkpt lat="45.86452" lon="3.56106">
        <ele>522.5</ele>
        <time>2020-08-14T15:51:50.999Z</time>
      </trkpt>
      <trkpt lat="45.86461" lon="3.56112">
        <ele>523.1</ele>
        <time>2020-08-14T15:51:56.999Z</time>
      </trkpt>
      <trkpt lat="45.8647" lon="3.56116">
        <ele>523.68</ele>
        <time>2020-08-14T15:52:02.999Z</time>
      </trkpt>
      <trkpt lat="45.86479" lon="3.5612">
        <ele>524.23</ele>
        <time>2020-08-14T15:52:08.999Z</time>
      </trkpt>
      <trkpt lat="45.86489" lon="3.56123">
        <ele>524.68</ele>
        <time>2020-08-14T15:52:13.999Z</time>
      </trkpt>
      <trkpt lat="45.86499" lon="3.56124">
        <ele>525.22</ele>
        <time>2020-08-14T15:52:19.999Z</time>
      </trkpt>
      <trkpt lat="45.86509" lon="3.56124">
        <ele>525.74</ele>
        <time>2020-08-14T15:52:25.999Z</time>
      </trkpt>
      <trkpt lat="45.86517" lon="3.5612">
        <ele>526.17</ele>
        <time>2020-08-14T15:52:30.999Z</time>
      </trkpt>
      <trkpt lat="45.86528" lon="3.56115">
        <ele>526.6</ele>
        <time>2020-08-14T15:52:35.999Z</time>
      </trkpt>
      <trkpt lat="45.8654" lon="3.56118">
        <ele>527.02</ele>
        <time>2020-08-14T15:52:40.999Z</time>
      </trkpt>
      <trkpt lat="45.86548" lon="3.56126">
        <ele>527.42</ele>
        <time>2020-08-14T15:52:45.999Z</time>
      </trkpt>
      <trkpt lat="45.86558" lon="3.56132">
        <ele>527.83</ele>
        <time>2020-08-14T15:52:50.999Z</time>
      </trkpt>
      <trkpt lat="45.86567" lon="3.56137">
        <ele>528.32</ele>
        <time>2020-08-14T15:52:56.999Z</time>
      </trkpt>
      <trkpt lat="45.86577" lon="3.56136">
        <ele>528.8</ele>
        <time>2020-08-14T15:53:02.999Z</time>
      </trkpt>
      <trkpt lat="45.86587" lon="3.5613">
        <ele>529.21</ele>
        <time>2020-08-14T15:53:07.999Z</time>
      </trkpt>
      <trkpt lat="45.86596" lon="3.56127">
        <ele>529.62</ele>
        <time>2020-08-14T15:53:12.999Z</time>
      </trkpt>
      <trkpt lat="45.86606" lon="3.56131">
        <ele>530.1</ele>
        <time>2020-08-14T15:53:18.999Z</time>
      </trkpt>
      <trkpt lat="45.86614" lon="3.56138">
        <ele>530.56</ele>
        <time>2020-08-14T15:53:24.999Z</time>
      </trkpt>
      <trkpt lat="45.86622" lon="3.56145">
        <ele>531.03</ele>
        <time>2020-08-14T15:53:30.999Z</time>
      </trkpt>
      <trkpt lat="45.86632" lon="3.56148">
        <ele>531.49</ele>
        <time>2020-08-14T15:53:36.999Z</time>
      </trkpt>
      <trkpt lat="45.86641" lon="3.56149">
        <ele>531.88</ele>
        <time>2020-08-14T15:53:41.999Z</time>
      </trkpt>
      <trkpt lat="45.86649" lon="3.56157">
        <ele>532.27</ele>
        <time>2020-08-14T15:53:46.999Z</time>
      </trkpt>
      <trkpt lat="45.86657" lon="3.56164">
        <ele>532.64</ele>
        <time>2020-08-14T15:53:51.999Z</time>
      </trkpt>
      <trkpt lat="45.86664" lon="3.56173">
        <ele>533.01</ele>
        <time>2020-08-14T15:53:56.999Z</time>
      </trkpt>
      <trkpt lat="45.86671" lon="3.56185">
        <ele>533.46</ele>
        <time>2020-08-14T15:54:02.999Z</time>
      </trkpt>
      <trkpt lat="45.86677" lon="3.56195">
        <ele>533.93</ele>
        <time>2020-08-14T15:54:08.999Z</time>
      </trkpt>
      <trkpt lat="45.86685" lon="3.56204">
        <ele>534.4</ele>
        <time>2020-08-14T15:54:14.999Z</time>
      </trkpt>
      <trkpt lat="45.86691" lon="3.56215">
        <ele>534.87</ele>
        <time>2020-08-14T15:54:20.999Z</time>
      </trkpt>
      <trkpt lat="45.86696" lon="3.56226">
        <ele>535.34</ele>
        <time>2020-08-14T15:54:26.999Z</time>
      </trkpt>
      <trkpt lat="45.86701" lon="3.56239">
        <ele>535.86</ele>
        <time>2020-08-14T15:54:33.999Z</time>
      </trkpt>
      <trkpt lat="45.86708" lon="3.56249">
        <ele>536.33</ele>
        <time>2020-08-14T15:54:39.999Z</time>
      </trkpt>
      <trkpt lat="45.86711" lon="3.56261">
        <ele>536.74</ele>
        <time>2020-08-14T15:54:44.999Z</time>
      </trkpt>
      <trkpt lat="45.8671" lon="3.56275">
        <ele>537.24</ele>
        <time>2020-08-14T15:54:50.999Z</time>
      </trkpt>
      <trkpt lat="45.86705" lon="3.56286">
        <ele>537.64</ele>
        <time>2020-08-14T15:54:55.999Z</time>
      </trkpt>
      <trkpt lat="45.86697" lon="3.56295">
        <ele>538.19</ele>
        <time>2020-08-14T15:55:02.999Z</time>
      </trkpt>
      <trkpt lat="45.86688" lon="3.56302">
        <ele>538.82</ele>
        <time>2020-08-14T15:55:10.999Z</time>
      </trkpt>
      <trkpt lat="45.8668" lon="3.56299">
        <ele>539.2</ele>
        <time>2020-08-14T15:55:15.999Z</time>
      </trkpt>
      <trkpt lat="45.86671" lon="3.56296">
        <ele>539.79</ele>
        <time>2020-08-14T15:55:23.999Z</time>
      </trkpt>
      <trkpt lat="45.86661" lon="3.56293">
        <ele>540.15</ele>
        <time>2020-08-14T15:55:28.999Z</time>
      </trkpt>
      <trkpt lat="45.86651" lon="3.56293">
        <ele>540.65</ele>
        <time>2020-08-14T15:55:35.999Z</time>
      </trkpt>
      <trkpt lat="45.8664" lon="3.56296">
        <ele>541.13</ele>
        <time>2020-08-14T15:55:42.999Z</time>
      </trkpt>
      <trkpt lat="45.8663" lon="3.56299">
        <ele>541.71</ele>
        <time>2020-08-14T15:55:50.999Z</time>
      </trkpt>
      <trkpt lat="45.86621" lon="3.56306">
        <ele>542.26</ele>
        <time>2020-08-14T15:55:58.000Z</time>
      </trkpt>
      <trkpt lat="45.86613" lon="3.56314">
        <ele>542.76</ele>
        <time>2020-08-14T15:56:04.000Z</time>
      </trkpt>
      <trkpt lat="45.86606" lon="3.56323">
        <ele>543.37</ele>
        <time>2020-08-14T15:56:11.000Z</time>
      </trkpt>
      <trkpt lat="45.86598" lon="3.5633">
        <ele>544.09</ele>
        <time>2020-08-14T15:56:19.000Z</time>
      </trkpt>
      <trkpt lat="45.86591" lon="3.56339">
        <ele>544.56</ele>
        <time>2020-08-14T15:56:24.000Z</time>
      </trkpt>
      <trkpt lat="45.86579" lon="3.56351">
        <ele>545.03</ele>
        <time>2020-08-14T15:56:29.000Z</time>
      </trkpt>
      <trkpt lat="45.86572" lon="3.56363">
        <ele>545.49</ele>
        <time>2020-08-14T15:56:34.000Z</time>
      </trkpt>
      <trkpt lat="45.86566" lon="3.56373">
        <ele>546.12</ele>
        <time>2020-08-14T15:56:41.000Z</time>
      </trkpt>
      <trkpt lat="45.86559" lon="3.56383">
        <ele>546.83</ele>
        <time>2020-08-14T15:56:49.000Z</time>
      </trkpt>
      <trkpt lat="45.86552" lon="3.56393">
        <ele>547.27</ele>
        <time>2020-08-14T15:56:54.000Z</time>
      </trkpt>
      <trkpt lat="45.86545" lon="3.56406">
        <ele>547.71</ele>
        <time>2020-08-14T15:56:59.000Z</time>
      </trkpt>
      <trkpt lat="45.86538" lon="3.56416">
        <ele>548.29</ele>
        <time>2020-08-14T15:57:06.000Z</time>
      </trkpt>
      <trkpt lat="45.86533" lon="3.56427">
        <ele>548.79</ele>
        <time>2020-08-14T15:57:12.000Z</time>
      </trkpt>
      <trkpt lat="45.86525" lon="3.56438">
        <ele>549.35</ele>
        <time>2020-08-14T15:57:19.000Z</time>
      </trkpt>
      <trkpt lat="45.8652" lon="3.56452">
        <ele>549.74</ele>
        <time>2020-08-14T15:57:24.000Z</time>
      </trkpt>
      <trkpt lat="45.86517" lon="3.56465">
        <ele>550.21</ele>
        <time>2020-08-14T15:57:30.000Z</time>
      </trkpt>
      <trkpt lat="45.86514" lon="3.56478">
        <ele>550.66</ele>
        <time>2020-08-14T15:57:36.000Z</time>
      </trkpt>
      <trkpt lat="45.86512" lon="3.56492">
        <ele>551.19</ele>
        <time>2020-08-14T15:57:43.000Z</time>
      </trkpt>
      <trkpt lat="45.86513" lon="3.56505">
        <ele>551.56</ele>
        <time>2020-08-14T15:57:48.000Z</time>
      </trkpt>
      <trkpt lat="45.86515" lon="3.56518">
        <ele>552</ele>
        <time>2020-08-14T15:57:54.000Z</time>
      </trkpt>
      <trkpt lat="45.86523" lon="3.56527">
        <ele>552.5</ele>
        <time>2020-08-14T15:58:01.000Z</time>
      </trkpt>
      <trkpt lat="45.86532" lon="3.5653">
        <ele>552.92</ele>
        <time>2020-08-14T15:58:07.000Z</time>
      </trkpt>
      <trkpt lat="45.86542" lon="3.56528">
        <ele>553.38</ele>
        <time>2020-08-14T15:58:14.000Z</time>
      </trkpt>
      <trkpt lat="45.86552" lon="3.56525">
        <ele>553.76</ele>
        <time>2020-08-14T15:58:20.000Z</time>
      </trkpt>
      <trkpt lat="45.86562" lon="3.56521">
        <ele>554.18</ele>
        <time>2020-08-14T15:58:27.000Z</time>
      </trkpt>
      <trkpt lat="45.86573" lon="3.56521">
        <ele>554.57</ele>
        <time>2020-08-14T15:58:34.000Z</time>
      </trkpt>
      <trkpt lat="45.86584" lon="3.56523">
        <ele>554.9</ele>
        <time>2020-08-14T15:58:40.000Z</time>
      </trkpt>
      <trkpt lat="45.86594" lon="3.56525">
        <ele>555.21</ele>
        <time>2020-08-14T15:58:46.000Z</time>
      </trkpt>
      <trkpt lat="45.86605" lon="3.56527">
        <ele>555.51</ele>
        <time>2020-08-14T15:58:52.000Z</time>
      </trkpt>
      <trkpt lat="45.86615" lon="3.5653">
        <ele>555.84</ele>
        <time>2020-08-14T15:58:59.000Z</time>
      </trkpt>
      <trkpt lat="45.86624" lon="3.56537">
        <ele>556.07</ele>
        <time>2020-08-14T15:59:04.000Z</time>
      </trkpt>
      <trkpt lat="45.8663" lon="3.56546">
        <ele>556.33</ele>
        <time>2020-08-14T15:59:10.000Z</time>
      </trkpt>
      <trkpt lat="45.86637" lon="3.56557">
        <ele>556.54</ele>
        <time>2020-08-14T15:59:15.000Z</time>
      </trkpt>
      <trkpt lat="45.86642" lon="3.56569">
        <ele>556.74</ele>
        <time>2020-08-14T15:59:20.000Z</time>
      </trkpt>
      <trkpt lat="45.86647" lon="3.56582">
        <ele>556.99</ele>
        <time>2020-08-14T15:59:26.000Z</time>
      </trkpt>
      <trkpt lat="45.86651" lon="3.56594">
        <ele>557.44</ele>
        <time>2020-08-14T15:59:36.000Z</time>
      </trkpt>
      <trkpt lat="45.86656" lon="3.56607">
        <ele>557.78</ele>
        <time>2020-08-14T15:59:43.000Z</time>
      </trkpt>
      <trkpt lat="45.86663" lon="3.56619">
        <ele>558.08</ele>
        <time>2020-08-14T15:59:49.000Z</time>
      </trkpt>
      <trkpt lat="45.86672" lon="3.56624">
        <ele>558.39</ele>
        <time>2020-08-14T15:59:55.000Z</time>
      </trkpt>
      <trkpt lat="45.86681" lon="3.56626">
        <ele>558.71</ele>
        <time>2020-08-14T16:00:01.000Z</time>
      </trkpt>
      <trkpt lat="45.86692" lon="3.56627">
        <ele>558.98</ele>
        <time>2020-08-14T16:00:06.000Z</time>
      </trkpt>
      <trkpt lat="45.86702" lon="3.56627">
        <ele>559.31</ele>
        <time>2020-08-14T16:00:12.000Z</time>
      </trkpt>
      <trkpt lat="45.86712" lon="3.56628">
        <ele>559.63</ele>
        <time>2020-08-14T16:00:18.000Z</time>
      </trkpt>
      <trkpt lat="45.86721" lon="3.56626">
        <ele>559.94</ele>
        <time>2020-08-14T16:00:24.000Z</time>
      </trkpt>
      <trkpt lat="45.8673" lon="3.56627">
        <ele>560.25</ele>
        <time>2020-08-14T16:00:30.000Z</time>
      </trkpt>
      <trkpt lat="45.86741" lon="3.56627">
        <ele>560.56</ele>
        <time>2020-08-14T16:00:36.000Z</time>
      </trkpt>
      <trkpt lat="45.8675" lon="3.56629">
        <ele>560.87</ele>
        <time>2020-08-14T16:00:42.000Z</time>
      </trkpt>
      <trkpt lat="45.86761" lon="3.56632">
        <ele>561.13</ele>
        <time>2020-08-14T16:00:47.000Z</time>
      </trkpt>
      <trkpt lat="45.86771" lon="3.56635">
        <ele>561.45</ele>
        <time>2020-08-14T16:00:53.000Z</time>
      </trkpt>
      <trkpt lat="45.86781" lon="3.56637">
        <ele>561.78</ele>
        <time>2020-08-14T16:00:59.000Z</time>
      </trkpt>
      <trkpt lat="45.8679" lon="3.56638">
        <ele>562.05</ele>
        <time>2020-08-14T16:01:04.000Z</time>
      </trkpt>
      <trkpt lat="45.86801" lon="3.56637">
        <ele>562.44</ele>
        <time>2020-08-14T16:01:11.000Z</time>
      </trkpt>
      <trkpt lat="45.86811" lon="3.56635">
        <ele>562.83</ele>
        <time>2020-08-14T16:01:18.000Z</time>
      </trkpt>
      <trkpt lat="45.86822" lon="3.56635">
        <ele>563.17</ele>
        <time>2020-08-14T16:01:24.000Z</time>
      </trkpt>
      <trkpt lat="45.86832" lon="3.56633">
        <ele>563.51</ele>
        <time>2020-08-14T16:01:30.000Z</time>
      </trkpt>
      <trkpt lat="45.86843" lon="3.56632">
        <ele>563.81</ele>
        <time>2020-08-14T16:01:35.000Z</time>
      </trkpt>
      <trkpt lat="45.86853" lon="3.56637">
        <ele>564.18</ele>
        <time>2020-08-14T16:01:41.000Z</time>
      </trkpt>
      <trkpt lat="45.86859" lon="3.56647">
        <ele>564.62</ele>
        <time>2020-08-14T16:01:48.000Z</time>
      </trkpt>
      <trkpt lat="45.86869" lon="3.56653">
        <ele>565.21</ele>
        <time>2020-08-14T16:01:57.000Z</time>
      </trkpt>
      <trkpt lat="45.8688" lon="3.56656">
        <ele>565.53</ele>
        <time>2020-08-14T16:02:02.000Z</time>
      </trkpt>
      <trkpt lat="45.8689" lon="3.56662">
        <ele>565.86</ele>
        <time>2020-08-14T16:02:07.000Z</time>
      </trkpt>
      <trkpt lat="45.86898" lon="3.56671">
        <ele>566.31</ele>
        <time>2020-08-14T16:02:14.000Z</time>
      </trkpt>
      <trkpt lat="45.86906" lon="3.56678">
        <ele>566.7</ele>
        <time>2020-08-14T16:02:20.000Z</time>
      </trkpt>
      <trkpt lat="45.86915" lon="3.56684">
        <ele>567.17</ele>
        <time>2020-08-14T16:02:27.000Z</time>
      </trkpt>
      <trkpt lat="45.86924" lon="3.5669">
        <ele>567.51</ele>
        <time>2020-08-14T16:02:32.000Z</time>
      </trkpt>
      <trkpt lat="45.86931" lon="3.56699">
        <ele>567.92</ele>
        <time>2020-08-14T16:02:38.000Z</time>
      </trkpt>
      <trkpt lat="45.86939" lon="3.56708">
        <ele>568.4</ele>
        <time>2020-08-14T16:02:45.000Z</time>
      </trkpt>
      <trkpt lat="45.86947" lon="3.56717">
        <ele>568.74</ele>
        <time>2020-08-14T16:02:50.000Z</time>
      </trkpt>
      <trkpt lat="45.86956" lon="3.56726">
        <ele>569.08</ele>
        <time>2020-08-14T16:02:55.000Z</time>
      </trkpt>
      <trkpt lat="45.86965" lon="3.56736">
        <ele>569.42</ele>
        <time>2020-08-14T16:03:00.000Z</time>
      </trkpt>
      <trkpt lat="45.86973" lon="3.56743">
        <ele>569.75</ele>
        <time>2020-08-14T16:03:05.000Z</time>
      </trkpt>
      <trkpt lat="45.86982" lon="3.56747">
        <ele>570.08</ele>
        <time>2020-08-14T16:03:10.000Z</time>
      </trkpt>
      <trkpt lat="45.86992" lon="3.56748">
        <ele>570.49</ele>
        <time>2020-08-14T16:03:16.000Z</time>
      </trkpt>
      <trkpt lat="45.87002" lon="3.56747">
        <ele>570.85</ele>
        <time>2020-08-14T16:03:21.000Z</time>
      </trkpt>
      <trkpt lat="45.87011" lon="3.56744">
        <ele>571.27</ele>
        <time>2020-08-14T16:03:27.000Z</time>
      </trkpt>
      <trkpt lat="45.8702" lon="3.56741">
        <ele>571.78</ele>
        <time>2020-08-14T16:03:34.000Z</time>
      </trkpt>
      <trkpt lat="45.8703" lon="3.5674">
        <ele>572.13</ele>
        <time>2020-08-14T16:03:39.000Z</time>
      </trkpt>
      <trkpt lat="45.8704" lon="3.56739">
        <ele>572.47</ele>
        <time>2020-08-14T16:03:44.000Z</time>
      </trkpt>
      <trkpt lat="45.87049" lon="3.56737">
        <ele>572.81</ele>
        <time>2020-08-14T16:03:49.000Z</time>
      </trkpt>
      <trkpt lat="45.87058" lon="3.56738">
        <ele>573.21</ele>
        <time>2020-08-14T16:03:55.000Z</time>
      </trkpt>
      <trkpt lat="45.87068" lon="3.5674">
        <ele>573.55</ele>
        <time>2020-08-14T16:04:00.000Z</time>
      </trkpt>
      <trkpt lat="45.87076" lon="3.56746">
        <ele>573.97</ele>
        <time>2020-08-14T16:04:06.000Z</time>
      </trkpt>
      <trkpt lat="45.87087" lon="3.56755">
        <ele>574.33</ele>
        <time>2020-08-14T16:04:11.000Z</time>
      </trkpt>
      <trkpt lat="45.87096" lon="3.5676">
        <ele>574.68</ele>
        <time>2020-08-14T16:04:16.000Z</time>
      </trkpt>
      <trkpt lat="45.87104" lon="3.56768">
        <ele>575.18</ele>
        <time>2020-08-14T16:04:23.000Z</time>
      </trkpt>
      <trkpt lat="45.8711" lon="3.56779">
        <ele>575.62</ele>
        <time>2020-08-14T16:04:29.000Z</time>
      </trkpt>
      <trkpt lat="45.87116" lon="3.56789">
        <ele>576.28</ele>
        <time>2020-08-14T16:04:38.000Z</time>
      </trkpt>
      <trkpt lat="45.87123" lon="3.56798">
        <ele>576.65</ele>
        <time>2020-08-14T16:04:43.000Z</time>
      </trkpt>
      <trkpt lat="45.87129" lon="3.56812">
        <ele>577.04</ele>
        <time>2020-08-14T16:04:48.000Z</time>
      </trkpt>
      <trkpt lat="45.87135" lon="3.56825">
        <ele>577.5</ele>
        <time>2020-08-14T16:04:54.000Z</time>
      </trkpt>
      <trkpt lat="45.87142" lon="3.56836">
        <ele>577.97</ele>
        <time>2020-08-14T16:05:00.000Z</time>
      </trkpt>
      <trkpt lat="45.87146" lon="3.56847">
        <ele>578.45</ele>
        <time>2020-08-14T16:05:06.000Z</time>
      </trkpt>
      <trkpt lat="45.87151" lon="3.56859">
        <ele>578.92</ele>
        <time>2020-08-14T16:05:12.000Z</time>
      </trkpt>
      <trkpt lat="45.87156" lon="3.56871">
        <ele>579.39</ele>
        <time>2020-08-14T16:05:18.000Z</time>
      </trkpt>
      <trkpt lat="45.87162" lon="3.56882">
        <ele>579.78</ele>
        <time>2020-08-14T16:05:23.000Z</time>
      </trkpt>
      <trkpt lat="45.87169" lon="3.56891">
        <ele>580.32</ele>
        <time>2020-08-14T16:05:30.000Z</time>
      </trkpt>
      <trkpt lat="45.87178" lon="3.56899">
        <ele>580.85</ele>
        <time>2020-08-14T16:05:37.000Z</time>
      </trkpt>
      <trkpt lat="45.87186" lon="3.56907">
        <ele>581.38</ele>
        <time>2020-08-14T16:05:44.000Z</time>
      </trkpt>
      <trkpt lat="45.87195" lon="3.56915">
        <ele>581.81</ele>
        <time>2020-08-14T16:05:50.000Z</time>
      </trkpt>
      <trkpt lat="45.87207" lon="3.56926">
        <ele>582.15</ele>
        <time>2020-08-14T16:05:55.000Z</time>
      </trkpt>
      <trkpt lat="45.87216" lon="3.56933">
        <ele>582.49</ele>
        <time>2020-08-14T16:06:00.000Z</time>
      </trkpt>
      <trkpt lat="45.87225" lon="3.5694">
        <ele>582.89</ele>
        <time>2020-08-14T16:06:06.000Z</time>
      </trkpt>
      <trkpt lat="45.87238" lon="3.56951">
        <ele>583.22</ele>
        <time>2020-08-14T16:06:11.000Z</time>
      </trkpt>
      <trkpt lat="45.87247" lon="3.5696">
        <ele>583.55</ele>
        <time>2020-08-14T16:06:16.000Z</time>
      </trkpt>
      <trkpt lat="45.87257" lon="3.56972">
        <ele>583.88</ele>
        <time>2020-08-14T16:06:21.000Z</time>
      </trkpt>
      <trkpt lat="45.87266" lon="3.56987">
        <ele>584.22</ele>
        <time>2020-08-14T16:06:26.000Z</time>
      </trkpt>
      <trkpt lat="45.87275" lon="3.57009">
        <ele>584.58</ele>
        <time>2020-08-14T16:06:31.000Z</time>
      </trkpt>
      <trkpt lat="45.8728" lon="3.57028">
        <ele>584.92</ele>
        <time>2020-08-14T16:06:36.000Z</time>
      </trkpt>
      <trkpt lat="45.87287" lon="3.57045">
        <ele>585.26</ele>
        <time>2020-08-14T16:06:41.000Z</time>
      </trkpt>
      <trkpt lat="45.87294" lon="3.57056">
        <ele>585.6</ele>
        <time>2020-08-14T16:06:46.000Z</time>
      </trkpt>
      <trkpt lat="45.87303" lon="3.57073">
        <ele>585.94</ele>
        <time>2020-08-14T16:06:51.000Z</time>
      </trkpt>
      <trkpt lat="45.87313" lon="3.57087">
        <ele>586.29</ele>
        <time>2020-08-14T16:06:56.000Z</time>
      </trkpt>
      <trkpt lat="45.87325" lon="3.571">
        <ele>586.63</ele>
        <time>2020-08-14T16:07:01.000Z</time>
      </trkpt>
      <trkpt lat="45.87332" lon="3.57111">
        <ele>586.97</ele>
        <time>2020-08-14T16:07:06.000Z</time>
      </trkpt>
      <trkpt lat="45.87335" lon="3.57125">
        <ele>587.32</ele>
        <time>2020-08-14T16:07:11.000Z</time>
      </trkpt>
      <trkpt lat="45.87337" lon="3.57145">
        <ele>587.68</ele>
        <time>2020-08-14T16:07:16.000Z</time>
      </trkpt>
      <trkpt lat="45.87339" lon="3.57158">
        <ele>588.04</ele>
        <time>2020-08-14T16:07:21.000Z</time>
      </trkpt>
      <trkpt lat="45.87343" lon="3.57173">
        <ele>588.41</ele>
        <time>2020-08-14T16:07:26.000Z</time>
      </trkpt>
      <trkpt lat="45.87348" lon="3.57183">
        <ele>588.79</ele>
        <time>2020-08-14T16:07:31.000Z</time>
      </trkpt>
      <trkpt lat="45.87356" lon="3.5719">
        <ele>589.2</ele>
        <time>2020-08-14T16:07:36.000Z</time>
      </trkpt>
      <trkpt lat="45.87366" lon="3.57197">
        <ele>589.62</ele>
        <time>2020-08-14T16:07:41.000Z</time>
      </trkpt>
      <trkpt lat="45.87375" lon="3.57201">
        <ele>590.15</ele>
        <time>2020-08-14T16:07:47.000Z</time>
      </trkpt>
      <trkpt lat="45.87384" lon="3.57208">
        <ele>590.69</ele>
        <time>2020-08-14T16:07:53.000Z</time>
      </trkpt>
      <trkpt lat="45.87395" lon="3.57215">
        <ele>591.17</ele>
        <time>2020-08-14T16:07:58.000Z</time>
      </trkpt>
      <trkpt lat="45.87403" lon="3.57224">
        <ele>591.71</ele>
        <time>2020-08-14T16:08:03.000Z</time>
      </trkpt>
      <trkpt lat="45.87408" lon="3.57237">
        <ele>592.52</ele>
        <time>2020-08-14T16:08:10.000Z</time>
      </trkpt>
      <trkpt lat="45.87407" lon="3.57251">
        <ele>593.27</ele>
        <time>2020-08-14T16:08:15.999Z</time>
      </trkpt>
      <trkpt lat="45.87414" lon="3.57259">
        <ele>599.14</ele>
        <time>2020-08-14T16:13:18.999Z</time>
      </trkpt>
      <trkpt lat="45.87419" lon="3.5727">
        <ele>600.48</ele>
        <time>2020-08-14T16:13:24.999Z</time>
      </trkpt>
      <trkpt lat="45.87422" lon="3.57283">
        <ele>601.93</ele>
        <time>2020-08-14T16:13:31.999Z</time>
      </trkpt>
      <trkpt lat="45.87426" lon="3.57296">
        <ele>603.07</ele>
        <time>2020-08-14T16:13:37.999Z</time>
      </trkpt>
      <trkpt lat="45.87432" lon="3.57307">
        <ele>604.34</ele>
        <time>2020-08-14T16:13:44.999Z</time>
      </trkpt>
      <trkpt lat="45.87437" lon="3.57322">
        <ele>605.21</ele>
        <time>2020-08-14T16:13:49.999Z</time>
      </trkpt>
      <trkpt lat="45.8744" lon="3.57335">
        <ele>606.19</ele>
        <time>2020-08-14T16:13:55.999Z</time>
      </trkpt>
      <trkpt lat="45.87444" lon="3.57347">
        <ele>606.96</ele>
        <time>2020-08-14T16:14:00.999Z</time>
      </trkpt>
      <trkpt lat="45.87446" lon="3.5736">
        <ele>607.69</ele>
        <time>2020-08-14T16:14:05.999Z</time>
      </trkpt>
      <trkpt lat="45.8745" lon="3.57373">
        <ele>608.5</ele>
        <time>2020-08-14T16:14:11.999Z</time>
      </trkpt>
      <trkpt lat="45.87455" lon="3.57386">
        <ele>609.14</ele>
        <time>2020-08-14T16:14:16.999Z</time>
      </trkpt>
      <trkpt lat="45.8746" lon="3.57398">
        <ele>609.74</ele>
        <time>2020-08-14T16:14:21.999Z</time>
      </trkpt>
      <trkpt lat="45.87464" lon="3.57411">
        <ele>610.42</ele>
        <time>2020-08-14T16:14:27.999Z</time>
      </trkpt>
      <trkpt lat="45.87471" lon="3.57421">
        <ele>610.95</ele>
        <time>2020-08-14T16:14:32.999Z</time>
      </trkpt>
      <trkpt lat="45.87477" lon="3.57433">
        <ele>611.47</ele>
        <time>2020-08-14T16:14:37.999Z</time>
      </trkpt>
      <trkpt lat="45.87484" lon="3.57441">
        <ele>611.96</ele>
        <time>2020-08-14T16:14:42.999Z</time>
      </trkpt>
      <trkpt lat="45.87494" lon="3.57453">
        <ele>612.43</ele>
        <time>2020-08-14T16:14:47.999Z</time>
      </trkpt>
      <trkpt lat="45.87501" lon="3.57463">
        <ele>612.97</ele>
        <time>2020-08-14T16:14:53.999Z</time>
      </trkpt>
      <trkpt lat="45.87511" lon="3.57468">
        <ele>613.39</ele>
        <time>2020-08-14T16:14:58.999Z</time>
      </trkpt>
      <trkpt lat="45.87521" lon="3.5747">
        <ele>613.78</ele>
        <time>2020-08-14T16:15:03.999Z</time>
      </trkpt>
      <trkpt lat="45.8753" lon="3.5747">
        <ele>614.15</ele>
        <time>2020-08-14T16:15:08.999Z</time>
      </trkpt>
      <trkpt lat="45.8754" lon="3.57465">
        <ele>614.57</ele>
        <time>2020-08-14T16:15:14.999Z</time>
      </trkpt>
      <trkpt lat="45.87549" lon="3.57461">
        <ele>614.9</ele>
        <time>2020-08-14T16:15:19.999Z</time>
      </trkpt>
      <trkpt lat="45.87557" lon="3.57454">
        <ele>615.21</ele>
        <time>2020-08-14T16:15:24.999Z</time>
      </trkpt>
      <trkpt lat="45.87565" lon="3.57444">
        <ele>615.54</ele>
        <time>2020-08-14T16:15:30.999Z</time>
      </trkpt>
      <trkpt lat="45.8757" lon="3.57434">
        <ele>615.91</ele>
        <time>2020-08-14T16:15:37.999Z</time>
      </trkpt>
      <trkpt lat="45.87573" lon="3.5742">
        <ele>616.25</ele>
        <time>2020-08-14T16:15:44.999Z</time>
      </trkpt>
      <trkpt lat="45.87574" lon="3.57406">
        <ele>616.52</ele>
        <time>2020-08-14T16:15:50.999Z</time>
      </trkpt>
      <trkpt lat="45.87575" lon="3.5739">
        <ele>616.74</ele>
        <time>2020-08-14T16:15:55.999Z</time>
      </trkpt>
      <trkpt lat="45.87577" lon="3.57372">
        <ele>616.95</ele>
        <time>2020-08-14T16:16:00.999Z</time>
      </trkpt>
      <trkpt lat="45.8758" lon="3.5736">
        <ele>617.22</ele>
        <time>2020-08-14T16:16:06.999Z</time>
      </trkpt>
      <trkpt lat="45.87582" lon="3.57346">
        <ele>617.54</ele>
        <time>2020-08-14T16:16:13.999Z</time>
      </trkpt>
      <trkpt lat="45.87587" lon="3.57333">
        <ele>617.82</ele>
        <time>2020-08-14T16:16:19.999Z</time>
      </trkpt>
      <trkpt lat="45.87594" lon="3.57323">
        <ele>618.06</ele>
        <time>2020-08-14T16:16:24.999Z</time>
      </trkpt>
      <trkpt lat="45.87601" lon="3.57312">
        <ele>618.3</ele>
        <time>2020-08-14T16:16:29.999Z</time>
      </trkpt>
      <trkpt lat="45.8761" lon="3.57306">
        <ele>618.6</ele>
        <time>2020-08-14T16:16:35.999Z</time>
      </trkpt>
      <trkpt lat="45.87619" lon="3.573">
        <ele>618.91</ele>
        <time>2020-08-14T16:16:41.999Z</time>
      </trkpt>
      <trkpt lat="45.87628" lon="3.57294">
        <ele>619.27</ele>
        <time>2020-08-14T16:16:48.999Z</time>
      </trkpt>
      <trkpt lat="45.87635" lon="3.57285">
        <ele>619.52</ele>
        <time>2020-08-14T16:16:53.999Z</time>
      </trkpt>
      <trkpt lat="45.87642" lon="3.57276">
        <ele>619.77</ele>
        <time>2020-08-14T16:16:58.999Z</time>
      </trkpt>
      <trkpt lat="45.87647" lon="3.57263">
        <ele>620.06</ele>
        <time>2020-08-14T16:17:04.999Z</time>
      </trkpt>
      <trkpt lat="45.87645" lon="3.57243">
        <ele>620.29</ele>
        <time>2020-08-14T16:17:09.999Z</time>
      </trkpt>
      <trkpt lat="45.87641" lon="3.5723">
        <ele>620.56</ele>
        <time>2020-08-14T16:17:14.999Z</time>
      </trkpt>
      <trkpt lat="45.87634" lon="3.5722">
        <ele>620.84</ele>
        <time>2020-08-14T16:17:19.999Z</time>
      </trkpt>
      <trkpt lat="45.87626" lon="3.57212">
        <ele>621.12</ele>
        <time>2020-08-14T16:17:24.999Z</time>
      </trkpt>
      <trkpt lat="45.87619" lon="3.57205">
        <ele>621.47</ele>
        <time>2020-08-14T16:17:30.999Z</time>
      </trkpt>
      <trkpt lat="45.8761" lon="3.57195">
        <ele>621.77</ele>
        <time>2020-08-14T16:17:35.999Z</time>
      </trkpt>
      <trkpt lat="45.87604" lon="3.57182">
        <ele>622.15</ele>
        <time>2020-08-14T16:17:41.999Z</time>
      </trkpt>
      <trkpt lat="45.87605" lon="3.57169">
        <ele>622.47</ele>
        <time>2020-08-14T16:17:46.999Z</time>
      </trkpt>
      <trkpt lat="45.87608" lon="3.57156">
        <ele>622.8</ele>
        <time>2020-08-14T16:17:51.999Z</time>
      </trkpt>
      <trkpt lat="45.87612" lon="3.57144">
        <ele>623.16</ele>
        <time>2020-08-14T16:17:57.999Z</time>
      </trkpt>
      <trkpt lat="45.87619" lon="3.57135">
        <ele>623.45</ele>
        <time>2020-08-14T16:18:02.999Z</time>
      </trkpt>
      <trkpt lat="45.87627" lon="3.57124">
        <ele>623.73</ele>
        <time>2020-08-14T16:18:07.999Z</time>
      </trkpt>
      <trkpt lat="45.87635" lon="3.57118">
        <ele>624.07</ele>
        <time>2020-08-14T16:18:13.999Z</time>
      </trkpt>
      <trkpt lat="45.87645" lon="3.5712">
        <ele>624.41</ele>
        <time>2020-08-14T16:18:19.999Z</time>
      </trkpt>
      <trkpt lat="45.87655" lon="3.57123">
        <ele>624.88</ele>
        <time>2020-08-14T16:18:27.999Z</time>
      </trkpt>
      <trkpt lat="45.87662" lon="3.57132">
        <ele>625.31</ele>
        <time>2020-08-14T16:18:34.999Z</time>
      </trkpt>
      <trkpt lat="45.87669" lon="3.57141">
        <ele>625.91</ele>
        <time>2020-08-14T16:18:43.999Z</time>
      </trkpt>
      <trkpt lat="45.87676" lon="3.5715">
        <ele>626.26</ele>
        <time>2020-08-14T16:18:48.999Z</time>
      </trkpt>
      <trkpt lat="45.87683" lon="3.57164">
        <ele>626.61</ele>
        <time>2020-08-14T16:18:53.999Z</time>
      </trkpt>
      <trkpt lat="45.8769" lon="3.57177">
        <ele>626.95</ele>
        <time>2020-08-14T16:18:58.999Z</time>
      </trkpt>
      <trkpt lat="45.87697" lon="3.57187">
        <ele>627.28</ele>
        <time>2020-08-14T16:19:03.999Z</time>
      </trkpt>
      <trkpt lat="45.87706" lon="3.57194">
        <ele>627.66</ele>
        <time>2020-08-14T16:19:09.999Z</time>
      </trkpt>
      <trkpt lat="45.87715" lon="3.572">
        <ele>628.02</ele>
        <time>2020-08-14T16:19:15.999Z</time>
      </trkpt>
      <trkpt lat="45.87724" lon="3.57203">
        <ele>628.42</ele>
        <time>2020-08-14T16:19:22.999Z</time>
      </trkpt>
      <trkpt lat="45.87733" lon="3.57203">
        <ele>628.8</ele>
        <time>2020-08-14T16:19:29.999Z</time>
      </trkpt>
      <trkpt lat="45.87743" lon="3.57198">
        <ele>629.13</ele>
        <time>2020-08-14T16:19:35.999Z</time>
      </trkpt>
      <trkpt lat="45.87752" lon="3.5719">
        <ele>629.4</ele>
        <time>2020-08-14T16:19:40.999Z</time>
      </trkpt>
      <trkpt lat="45.8776" lon="3.57181">
        <ele>629.77</ele>
        <time>2020-08-14T16:19:47.999Z</time>
      </trkpt>
      <trkpt lat="45.87764" lon="3.57168">
        <ele>630.03</ele>
        <time>2020-08-14T16:19:52.999Z</time>
      </trkpt>
      <trkpt lat="45.87766" lon="3.57156">
        <ele>630.34</ele>
        <time>2020-08-14T16:19:58.999Z</time>
      </trkpt>
      <trkpt lat="45.87772" lon="3.57144">
        <ele>630.71</ele>
        <time>2020-08-14T16:20:05.999Z</time>
      </trkpt>
      <trkpt lat="45.87777" lon="3.5713">
        <ele>631.07</ele>
        <time>2020-08-14T16:20:11.999Z</time>
      </trkpt>
      <trkpt lat="45.87781" lon="3.57119">
        <ele>631.42</ele>
        <time>2020-08-14T16:20:16.999Z</time>
      </trkpt>
      <trkpt lat="45.87787" lon="3.57107">
        <ele>631.92</ele>
        <time>2020-08-14T16:20:24.000Z</time>
      </trkpt>
      <trkpt lat="45.87792" lon="3.57096">
        <ele>632.41</ele>
        <time>2020-08-14T16:20:30.000Z</time>
      </trkpt>
      <trkpt lat="45.87801" lon="3.57089">
        <ele>632.85</ele>
        <time>2020-08-14T16:20:35.000Z</time>
      </trkpt>
      <trkpt lat="45.8781" lon="3.57084">
        <ele>633.42</ele>
        <time>2020-08-14T16:20:41.000Z</time>
      </trkpt>
      <trkpt lat="45.8782" lon="3.57086">
        <ele>634.04</ele>
        <time>2020-08-14T16:20:47.000Z</time>
      </trkpt>
      <trkpt lat="45.87828" lon="3.57095">
        <ele>634.82</ele>
        <time>2020-08-14T16:20:54.000Z</time>
      </trkpt>
      <trkpt lat="45.87834" lon="3.57104">
        <ele>635.63</ele>
        <time>2020-08-14T16:21:01.000Z</time>
      </trkpt>
      <trkpt lat="45.87842" lon="3.57113">
        <ele>636.29</ele>
        <time>2020-08-14T16:21:07.000Z</time>
      </trkpt>
      <trkpt lat="45.8785" lon="3.57123">
        <ele>636.83</ele>
        <time>2020-08-14T16:21:12.000Z</time>
      </trkpt>
      <trkpt lat="45.87858" lon="3.57132">
        <ele>637.43</ele>
        <time>2020-08-14T16:21:17.000Z</time>
      </trkpt>
      <trkpt lat="45.87866" lon="3.57139">
        <ele>638.26</ele>
        <time>2020-08-14T16:21:23.000Z</time>
      </trkpt>
      <trkpt lat="45.87876" lon="3.57145">
        <ele>639.15</ele>
        <time>2020-08-14T16:21:29.000Z</time>
      </trkpt>
      <trkpt lat="45.87885" lon="3.57154">
        <ele>640.15</ele>
        <time>2020-08-14T16:21:36.000Z</time>
      </trkpt>
      <trkpt lat="45.87891" lon="3.57164">
        <ele>640.84</ele>
        <time>2020-08-14T16:21:41.000Z</time>
      </trkpt>
      <trkpt lat="45.879" lon="3.5717">
        <ele>642</ele>
        <time>2020-08-14T16:21:49.000Z</time>
      </trkpt>
      <trkpt lat="45.87906" lon="3.57181">
        <ele>643.78</ele>
        <time>2020-08-14T16:22:00.000Z</time>
      </trkpt>
      <trkpt lat="45.87909" lon="3.57193">
        <ele>645.39</ele>
        <time>2020-08-14T16:22:09.000Z</time>
      </trkpt>
      <trkpt lat="45.87913" lon="3.57206">
        <ele>646.53</ele>
        <time>2020-08-14T16:22:15.000Z</time>
      </trkpt>
      <trkpt lat="45.87918" lon="3.57219">
        <ele>647.67</ele>
        <time>2020-08-14T16:22:21.000Z</time>
      </trkpt>
      <trkpt lat="45.87925" lon="3.57234">
        <ele>648.59</ele>
        <time>2020-08-14T16:22:26.000Z</time>
      </trkpt>
      <trkpt lat="45.87933" lon="3.57246">
        <ele>649.53</ele>
        <time>2020-08-14T16:22:31.000Z</time>
      </trkpt>
      <trkpt lat="45.87941" lon="3.57258">
        <ele>650.49</ele>
        <time>2020-08-14T16:22:36.000Z</time>
      </trkpt>
      <trkpt lat="45.87952" lon="3.57275">
        <ele>651.53</ele>
        <time>2020-08-14T16:22:41.000Z</time>
      </trkpt>
      <trkpt lat="45.8796" lon="3.5729">
        <ele>652.79</ele>
        <time>2020-08-14T16:22:46.000Z</time>
      </trkpt>
      <trkpt lat="45.87968" lon="3.57302">
        <ele>654.12</ele>
        <time>2020-08-14T16:22:51.000Z</time>
      </trkpt>
      <trkpt lat="45.87975" lon="3.57315">
        <ele>655.43</ele>
        <time>2020-08-14T16:22:56.000Z</time>
      </trkpt>
      <trkpt lat="45.87982" lon="3.57326">
        <ele>656.8</ele>
        <time>2020-08-14T16:23:01.000Z</time>
      </trkpt>
      <trkpt lat="45.87987" lon="3.57341">
        <ele>658.18</ele>
        <time>2020-08-14T16:23:06.000Z</time>
      </trkpt>
      <trkpt lat="45.87988" lon="3.57354">
        <ele>659.81</ele>
        <time>2020-08-14T16:23:12.000Z</time>
      </trkpt>
      <trkpt lat="45.87987" lon="3.57367">
        <ele>661.13</ele>
        <time>2020-08-14T16:23:17.000Z</time>
      </trkpt>
      <trkpt lat="45.87987" lon="3.57381">
        <ele>662.4</ele>
        <time>2020-08-14T16:23:22.000Z</time>
      </trkpt>
      <trkpt lat="45.87988" lon="3.57396">
        <ele>663.87</ele>
        <time>2020-08-14T16:23:28.000Z</time>
      </trkpt>
      <trkpt lat="45.87991" lon="3.57412">
        <ele>665.07</ele>
        <time>2020-08-14T16:23:33.000Z</time>
      </trkpt>
      <trkpt lat="45.87997" lon="3.57427">
        <ele>666.21</ele>
        <time>2020-08-14T16:23:38.000Z</time>
      </trkpt>
      <trkpt lat="45.88005" lon="3.5744">
        <ele>667.3</ele>
        <time>2020-08-14T16:23:43.000Z</time>
      </trkpt>
      <trkpt lat="45.88015" lon="3.57453">
        <ele>668.32</ele>
        <time>2020-08-14T16:23:48.000Z</time>
      </trkpt>
      <trkpt lat="45.88025" lon="3.57464">
        <ele>669.31</ele>
        <time>2020-08-14T16:23:53.000Z</time>
      </trkpt>
      <trkpt lat="45.88035" lon="3.57473">
        <ele>670.24</ele>
        <time>2020-08-14T16:23:58.000Z</time>
      </trkpt>
      <trkpt lat="45.88045" lon="3.5748">
        <ele>671.11</ele>
        <time>2020-08-14T16:24:03.000Z</time>
      </trkpt>
      <trkpt lat="45.88055" lon="3.57484">
        <ele>671.92</ele>
        <time>2020-08-14T16:24:08.000Z</time>
      </trkpt>
      <trkpt lat="45.88065" lon="3.57488">
        <ele>672.68</ele>
        <time>2020-08-14T16:24:13.000Z</time>
      </trkpt>
      <trkpt lat="45.88075" lon="3.57492">
        <ele>673.4</ele>
        <time>2020-08-14T16:24:18.000Z</time>
      </trkpt>
      <trkpt lat="45.88086" lon="3.57495">
        <ele>674.06</ele>
        <time>2020-08-14T16:24:23.000Z</time>
      </trkpt>
      <trkpt lat="45.88096" lon="3.57499">
        <ele>674.68</ele>
        <time>2020-08-14T16:24:28.000Z</time>
      </trkpt>
      <trkpt lat="45.88106" lon="3.57504">
        <ele>675.26</ele>
        <time>2020-08-14T16:24:33.000Z</time>
      </trkpt>
      <trkpt lat="45.88116" lon="3.57505">
        <ele>675.81</ele>
        <time>2020-08-14T16:24:38.000Z</time>
      </trkpt>
      <trkpt lat="45.88127" lon="3.57506">
        <ele>676.33</ele>
        <time>2020-08-14T16:24:43.000Z</time>
      </trkpt>
      <trkpt lat="45.88138" lon="3.57507">
        <ele>676.82</ele>
        <time>2020-08-14T16:24:48.000Z</time>
      </trkpt>
      <trkpt lat="45.88149" lon="3.57511">
        <ele>677.29</ele>
        <time>2020-08-14T16:24:53.000Z</time>
      </trkpt>
      <trkpt lat="45.88158" lon="3.57513">
        <ele>677.73</ele>
        <time>2020-08-14T16:24:58.000Z</time>
      </trkpt>
      <trkpt lat="45.88169" lon="3.57516">
        <ele>678.25</ele>
        <time>2020-08-14T16:25:04.000Z</time>
      </trkpt>
      <trkpt lat="45.88178" lon="3.57519">
        <ele>678.76</ele>
        <time>2020-08-14T16:25:10.000Z</time>
      </trkpt>
      <trkpt lat="45.88188" lon="3.57525">
        <ele>679.34</ele>
        <time>2020-08-14T16:25:17.000Z</time>
      </trkpt>
      <trkpt lat="45.88197" lon="3.57529">
        <ele>679.81</ele>
        <time>2020-08-14T16:25:23.000Z</time>
      </trkpt>
      <trkpt lat="45.88207" lon="3.57531">
        <ele>680.32</ele>
        <time>2020-08-14T16:25:30.000Z</time>
      </trkpt>
      <trkpt lat="45.88216" lon="3.57537">
        <ele>680.8</ele>
        <time>2020-08-14T16:25:37.000Z</time>
      </trkpt>
      <trkpt lat="45.88226" lon="3.57541">
        <ele>681.25</ele>
        <time>2020-08-14T16:25:44.000Z</time>
      </trkpt>
      <trkpt lat="45.88235" lon="3.57542">
        <ele>681.65</ele>
        <time>2020-08-14T16:25:51.000Z</time>
      </trkpt>
      <trkpt lat="45.88245" lon="3.57541">
        <ele>682.03</ele>
        <time>2020-08-14T16:25:58.000Z</time>
      </trkpt>
      <trkpt lat="45.88254" lon="3.5754">
        <ele>682.33</ele>
        <time>2020-08-14T16:26:04.000Z</time>
      </trkpt>
      <trkpt lat="45.88264" lon="3.57535">
        <ele>682.6</ele>
        <time>2020-08-14T16:26:10.000Z</time>
      </trkpt>
      <trkpt lat="45.88273" lon="3.57529">
        <ele>682.82</ele>
        <time>2020-08-14T16:26:15.000Z</time>
      </trkpt>
      <trkpt lat="45.88283" lon="3.57524">
        <ele>683.03</ele>
        <time>2020-08-14T16:26:20.000Z</time>
      </trkpt>
      <trkpt lat="45.88293" lon="3.57518">
        <ele>683.22</ele>
        <time>2020-08-14T16:26:25.000Z</time>
      </trkpt>
      <trkpt lat="45.88303" lon="3.57513">
        <ele>683.4</ele>
        <time>2020-08-14T16:26:30.000Z</time>
      </trkpt>
      <trkpt lat="45.88313" lon="3.57507">
        <ele>683.58</ele>
        <time>2020-08-14T16:26:35.000Z</time>
      </trkpt>
      <trkpt lat="45.88322" lon="3.575">
        <ele>683.74</ele>
        <time>2020-08-14T16:26:40.000Z</time>
      </trkpt>
      <trkpt lat="45.88332" lon="3.57493">
        <ele>683.91</ele>
        <time>2020-08-14T16:26:45.000Z</time>
      </trkpt>
      <trkpt lat="45.8834" lon="3.57483">
        <ele>684.07</ele>
        <time>2020-08-14T16:26:50.000Z</time>
      </trkpt>
      <trkpt lat="45.88349" lon="3.57469">
        <ele>684.23</ele>
        <time>2020-08-14T16:26:55.000Z</time>
      </trkpt>
      <trkpt lat="45.88359" lon="3.57454">
        <ele>684.39</ele>
        <time>2020-08-14T16:27:00.000Z</time>
      </trkpt>
      <trkpt lat="45.88369" lon="3.57436">
        <ele>684.55</ele>
        <time>2020-08-14T16:27:05.000Z</time>
      </trkpt>
      <trkpt lat="45.88381" lon="3.57417">
        <ele>684.95</ele>
        <time>2020-08-14T16:27:10.000Z</time>
      </trkpt>
      <trkpt lat="45.88387" lon="3.57406">
        <ele>685.28</ele>
        <time>2020-08-14T16:27:39.000Z</time>
      </trkpt>
      <trkpt lat="45.88401" lon="3.57394">
        <ele>685.84</ele>
        <time>2020-08-14T16:27:44.000Z</time>
      </trkpt>
      <trkpt lat="45.88419" lon="3.57382">
        <ele>686.4</ele>
        <time>2020-08-14T16:27:49.000Z</time>
      </trkpt>
      <trkpt lat="45.88439" lon="3.57371">
        <ele>686.79</ele>
        <time>2020-08-14T16:27:54.000Z</time>
      </trkpt>
      <trkpt lat="45.8847" lon="3.57353">
        <ele>686.96</ele>
        <time>2020-08-14T16:27:59.000Z</time>
      </trkpt>
      <trkpt lat="45.88506" lon="3.57359">
        <ele>686.98</ele>
        <time>2020-08-14T16:28:04.000Z</time>
      </trkpt>
      <trkpt lat="45.88531" lon="3.57399">
        <ele>686.89</ele>
        <time>2020-08-14T16:28:09.000Z</time>
      </trkpt>
      <trkpt lat="45.88548" lon="3.57445">
        <ele>686.87</ele>
        <time>2020-08-14T16:28:14.000Z</time>
      </trkpt>
      <trkpt lat="45.88562" lon="3.57484">
        <ele>687.09</ele>
        <time>2020-08-14T16:28:19.000Z</time>
      </trkpt>
      <trkpt lat="45.88578" lon="3.57518">
        <ele>687.42</ele>
        <time>2020-08-14T16:28:24.000Z</time>
      </trkpt>
      <trkpt lat="45.88596" lon="3.57547">
        <ele>687.67</ele>
        <time>2020-08-14T16:28:29.000Z</time>
      </trkpt>
      <trkpt lat="45.88615" lon="3.57576">
        <ele>687.96</ele>
        <time>2020-08-14T16:28:34.000Z</time>
      </trkpt>
      <trkpt lat="45.88638" lon="3.57597">
        <ele>687.93</ele>
        <time>2020-08-14T16:28:39.000Z</time>
      </trkpt>
      <trkpt lat="45.88668" lon="3.5761">
        <ele>687.28</ele>
        <time>2020-08-14T16:28:44.000Z</time>
      </trkpt>
      <trkpt lat="45.88701" lon="3.57613">
        <ele>686.78</ele>
        <time>2020-08-14T16:28:49.000Z</time>
      </trkpt>
      <trkpt lat="45.88734" lon="3.57613">
        <ele>686.36</ele>
        <time>2020-08-14T16:28:54.000Z</time>
      </trkpt>
      <trkpt lat="45.88765" lon="3.57618">
        <ele>685.78</ele>
        <time>2020-08-14T16:28:59.000Z</time>
      </trkpt>
      <trkpt lat="45.88792" lon="3.57632">
        <ele>685.43</ele>
        <time>2020-08-14T16:29:04.000Z</time>
      </trkpt>
      <trkpt lat="45.88814" lon="3.57658">
        <ele>685.28</ele>
        <time>2020-08-14T16:29:09.000Z</time>
      </trkpt>
      <trkpt lat="45.88831" lon="3.57689">
        <ele>685.18</ele>
        <time>2020-08-14T16:29:14.000Z</time>
      </trkpt>
      <trkpt lat="45.88847" lon="3.57718">
        <ele>685.16</ele>
        <time>2020-08-14T16:29:19.000Z</time>
      </trkpt>
      <trkpt lat="45.88862" lon="3.57748">
        <ele>684.69</ele>
        <time>2020-08-14T16:29:24.000Z</time>
      </trkpt>
      <trkpt lat="45.88877" lon="3.57775">
        <ele>684.43</ele>
        <time>2020-08-14T16:29:29.000Z</time>
      </trkpt>
      <trkpt lat="45.88888" lon="3.57805">
        <ele>685.13</ele>
        <time>2020-08-14T16:29:34.000Z</time>
      </trkpt>
      <trkpt lat="45.88895" lon="3.57836">
        <ele>685.61</ele>
        <time>2020-08-14T16:29:39.000Z</time>
      </trkpt>
      <trkpt lat="45.889" lon="3.57866">
        <ele>685.56</ele>
        <time>2020-08-14T16:29:44.000Z</time>
      </trkpt>
      <trkpt lat="45.88905" lon="3.57897">
        <ele>684.9</ele>
        <time>2020-08-14T16:29:49.000Z</time>
      </trkpt>
      <trkpt lat="45.88909" lon="3.57929">
        <ele>684.46</ele>
        <time>2020-08-14T16:29:54.000Z</time>
      </trkpt>
      <trkpt lat="45.88912" lon="3.57957">
        <ele>684.52</ele>
        <time>2020-08-14T16:29:59.000Z</time>
      </trkpt>
      <trkpt lat="45.88915" lon="3.57984">
        <ele>684.82</ele>
        <time>2020-08-14T16:30:04.000Z</time>
      </trkpt>
      <trkpt lat="45.88918" lon="3.58008">
        <ele>684.9</ele>
        <time>2020-08-14T16:30:09.000Z</time>
      </trkpt>
      <trkpt lat="45.8892" lon="3.58033">
        <ele>685.09</ele>
        <time>2020-08-14T16:30:14.000Z</time>
      </trkpt>
      <trkpt lat="45.88922" lon="3.58059">
        <ele>685.36</ele>
        <time>2020-08-14T16:30:19.000Z</time>
      </trkpt>
      <trkpt lat="45.88925" lon="3.58087">
        <ele>685.64</ele>
        <time>2020-08-14T16:30:24.000Z</time>
      </trkpt>
      <trkpt lat="45.88927" lon="3.58113">
        <ele>685.92</ele>
        <time>2020-08-14T16:30:29.000Z</time>
      </trkpt>
      <trkpt lat="45.88932" lon="3.58141">
        <ele>686.24</ele>
        <time>2020-08-14T16:30:34.000Z</time>
      </trkpt>
      <trkpt lat="45.88936" lon="3.58167">
        <ele>686.55</ele>
        <time>2020-08-14T16:30:39.000Z</time>
      </trkpt>
      <trkpt lat="45.88939" lon="3.58193">
        <ele>686.85</ele>
        <time>2020-08-14T16:30:44.000Z</time>
      </trkpt>
      <trkpt lat="45.88943" lon="3.58218">
        <ele>687.09</ele>
        <time>2020-08-14T16:30:49.000Z</time>
      </trkpt>
      <trkpt lat="45.88948" lon="3.5824">
        <ele>687.3</ele>
        <time>2020-08-14T16:30:54.000Z</time>
      </trkpt>
      <trkpt lat="45.88954" lon="3.58262">
        <ele>687.49</ele>
        <time>2020-08-14T16:30:59.000Z</time>
      </trkpt>
      <trkpt lat="45.88964" lon="3.58285">
        <ele>687.7</ele>
        <time>2020-08-14T16:31:04.000Z</time>
      </trkpt>
      <trkpt lat="45.88979" lon="3.58305">
        <ele>687.96</ele>
        <time>2020-08-14T16:31:09.000Z</time>
      </trkpt>
      <trkpt lat="45.88992" lon="3.58324">
        <ele>688.17</ele>
        <time>2020-08-14T16:31:14.000Z</time>
      </trkpt>
      <trkpt lat="45.89008" lon="3.58342">
        <ele>689.41</ele>
        <time>2020-08-14T16:31:19.000Z</time>
      </trkpt>
      <trkpt lat="45.89022" lon="3.58363">
        <ele>690.28</ele>
        <time>2020-08-14T16:31:24.000Z</time>
      </trkpt>
      <trkpt lat="45.89037" lon="3.58382">
        <ele>690.81</ele>
        <time>2020-08-14T16:31:29.000Z</time>
      </trkpt>
      <trkpt lat="45.89051" lon="3.584">
        <ele>690.9</ele>
        <time>2020-08-14T16:31:34.000Z</time>
      </trkpt>
      <trkpt lat="45.89065" lon="3.58418">
        <ele>691.14</ele>
        <time>2020-08-14T16:31:39.000Z</time>
      </trkpt>
      <trkpt lat="45.89077" lon="3.58439">
        <ele>691.27</ele>
        <time>2020-08-14T16:31:44.000Z</time>
      </trkpt>
      <trkpt lat="45.89089" lon="3.58458">
        <ele>691.3</ele>
        <time>2020-08-14T16:31:49.000Z</time>
      </trkpt>
      <trkpt lat="45.891" lon="3.58476">
        <ele>691.34</ele>
        <time>2020-08-14T16:31:54.000Z</time>
      </trkpt>
      <trkpt lat="45.89113" lon="3.58496">
        <ele>691.44</ele>
        <time>2020-08-14T16:31:59.000Z</time>
      </trkpt>
      <trkpt lat="45.89125" lon="3.58516">
        <ele>691.56</ele>
        <time>2020-08-14T16:32:04.000Z</time>
      </trkpt>
      <trkpt lat="45.89133" lon="3.58539">
        <ele>691.67</ele>
        <time>2020-08-14T16:32:09.000Z</time>
      </trkpt>
      <trkpt lat="45.89139" lon="3.58565">
        <ele>691.8</ele>
        <time>2020-08-14T16:32:14.000Z</time>
      </trkpt>
      <trkpt lat="45.89144" lon="3.58589">
        <ele>691.96</ele>
        <time>2020-08-14T16:32:19.000Z</time>
      </trkpt>
      <trkpt lat="45.89151" lon="3.5861">
        <ele>692.16</ele>
        <time>2020-08-14T16:32:24.000Z</time>
      </trkpt>
      <trkpt lat="45.89163" lon="3.5863">
        <ele>692.38</ele>
        <time>2020-08-14T16:32:29.000Z</time>
      </trkpt>
      <trkpt lat="45.89178" lon="3.58647">
        <ele>692.6</ele>
        <time>2020-08-14T16:32:34.000Z</time>
      </trkpt>
      <trkpt lat="45.89195" lon="3.58661">
        <ele>693.56</ele>
        <time>2020-08-14T16:32:38.999Z</time>
      </trkpt>
      <trkpt lat="45.89215" lon="3.58666">
        <ele>693.78</ele>
        <time>2020-08-14T16:32:43.999Z</time>
      </trkpt>
      <trkpt lat="45.89238" lon="3.58669">
        <ele>693.89</ele>
        <time>2020-08-14T16:32:48.999Z</time>
      </trkpt>
      <trkpt lat="45.8926" lon="3.58676">
        <ele>694.05</ele>
        <time>2020-08-14T16:32:53.999Z</time>
      </trkpt>
      <trkpt lat="45.89283" lon="3.58683">
        <ele>694.23</ele>
        <time>2020-08-14T16:32:58.999Z</time>
      </trkpt>
      <trkpt lat="45.89304" lon="3.58691">
        <ele>694.19</ele>
        <time>2020-08-14T16:33:03.999Z</time>
      </trkpt>
      <trkpt lat="45.89325" lon="3.58693">
        <ele>693.96</ele>
        <time>2020-08-14T16:33:08.999Z</time>
      </trkpt>
      <trkpt lat="45.89345" lon="3.58687">
        <ele>693.71</ele>
        <time>2020-08-14T16:33:13.999Z</time>
      </trkpt>
      <trkpt lat="45.89365" lon="3.58675">
        <ele>692.7</ele>
        <time>2020-08-14T16:33:18.999Z</time>
      </trkpt>
      <trkpt lat="45.89384" lon="3.58654">
        <ele>691.63</ele>
        <time>2020-08-14T16:33:23.999Z</time>
      </trkpt>
      <trkpt lat="45.89406" lon="3.58645">
        <ele>691.07</ele>
        <time>2020-08-14T16:33:28.999Z</time>
      </trkpt>
      <trkpt lat="45.89428" lon="3.58645">
        <ele>690.74</ele>
        <time>2020-08-14T16:33:33.999Z</time>
      </trkpt>
      <trkpt lat="45.89449" lon="3.58645">
        <ele>690.5</ele>
        <time>2020-08-14T16:33:38.999Z</time>
      </trkpt>
      <trkpt lat="45.89469" lon="3.58647">
        <ele>690.47</ele>
        <time>2020-08-14T16:33:43.999Z</time>
      </trkpt>
      <trkpt lat="45.89489" lon="3.58665">
        <ele>690.49</ele>
        <time>2020-08-14T16:33:48.999Z</time>
      </trkpt>
      <trkpt lat="45.89494" lon="3.58699">
        <ele>690.39</ele>
        <time>2020-08-14T16:33:53.999Z</time>
      </trkpt>
      <trkpt lat="45.89486" lon="3.58717">
        <ele>690.38</ele>
        <time>2020-08-14T16:33:58.999Z</time>
      </trkpt>
      <trkpt lat="45.89476" lon="3.58723">
        <ele>690.37</ele>
        <time>2020-08-14T16:34:03.999Z</time>
      </trkpt>
      <trkpt lat="45.89464" lon="3.58724">
        <ele>690.35</ele>
        <time>2020-08-14T16:34:08.999Z</time>
      </trkpt>
      <trkpt lat="45.89452" lon="3.58725">
        <ele>690.35</ele>
        <time>2020-08-14T16:34:13.999Z</time>
      </trkpt>
      <trkpt lat="45.89442" lon="3.5873">
        <ele>690.36</ele>
        <time>2020-08-14T16:34:18.999Z</time>
      </trkpt>
      <trkpt lat="45.89435" lon="3.58742">
        <ele>690.38</ele>
        <time>2020-08-14T16:34:24.999Z</time>
      </trkpt>
      <trkpt lat="45.89429" lon="3.58754">
        <ele>690.44</ele>
        <time>2020-08-14T16:34:29.999Z</time>
      </trkpt>
      <trkpt lat="45.89425" lon="3.58769">
        <ele>690.53</ele>
        <time>2020-08-14T16:34:34.999Z</time>
      </trkpt>
      <trkpt lat="45.8942" lon="3.58783">
        <ele>690.64</ele>
        <time>2020-08-14T16:34:39.999Z</time>
      </trkpt>
      <trkpt lat="45.89413" lon="3.58792">
        <ele>690.75</ele>
        <time>2020-08-14T16:34:44.999Z</time>
      </trkpt>
      <trkpt lat="45.89404" lon="3.58799">
        <ele>690.88</ele>
        <time>2020-08-14T16:34:49.999Z</time>
      </trkpt>
      <trkpt lat="45.89395" lon="3.58805">
        <ele>691.05</ele>
        <time>2020-08-14T16:34:56.999Z</time>
      </trkpt>
      <trkpt lat="45.89385" lon="3.58809">
        <ele>691.29</ele>
        <time>2020-08-14T16:35:04.999Z</time>
      </trkpt>
      <trkpt lat="45.89376" lon="3.58812">
        <ele>691.53</ele>
        <time>2020-08-14T16:35:11.999Z</time>
      </trkpt>
      <trkpt lat="45.89367" lon="3.58817">
        <ele>691.75</ele>
        <time>2020-08-14T16:35:17.999Z</time>
      </trkpt>
      <trkpt lat="45.89357" lon="3.58819">
        <ele>691.97</ele>
        <time>2020-08-14T16:35:23.999Z</time>
      </trkpt>
      <trkpt lat="45.89347" lon="3.58821">
        <ele>692.18</ele>
        <time>2020-08-14T16:35:28.999Z</time>
      </trkpt>
      <trkpt lat="45.89338" lon="3.58823">
        <ele>692.4</ele>
        <time>2020-08-14T16:35:33.999Z</time>
      </trkpt>
      <trkpt lat="45.89329" lon="3.58826">
        <ele>692.75</ele>
        <time>2020-08-14T16:35:40.999Z</time>
      </trkpt>
      <trkpt lat="45.89316" lon="3.5883">
        <ele>693.01</ele>
        <time>2020-08-14T16:35:45.999Z</time>
      </trkpt>
      <trkpt lat="45.89305" lon="3.58831">
        <ele>693.28</ele>
        <time>2020-08-14T16:35:50.999Z</time>
      </trkpt>
      <trkpt lat="45.89295" lon="3.58834">
        <ele>693.56</ele>
        <time>2020-08-14T16:35:55.999Z</time>
      </trkpt>
      <trkpt lat="45.89284" lon="3.58834">
        <ele>693.91</ele>
        <time>2020-08-14T16:36:01.999Z</time>
      </trkpt>
      <trkpt lat="45.89274" lon="3.58833">
        <ele>694.28</ele>
        <time>2020-08-14T16:36:07.999Z</time>
      </trkpt>
      <trkpt lat="45.89265" lon="3.58833">
        <ele>694.66</ele>
        <time>2020-08-14T16:36:13.999Z</time>
      </trkpt>
      <trkpt lat="45.89255" lon="3.58833">
        <ele>695</ele>
        <time>2020-08-14T16:36:18.999Z</time>
      </trkpt>
      <trkpt lat="45.89245" lon="3.58833">
        <ele>695.34</ele>
        <time>2020-08-14T16:36:23.999Z</time>
      </trkpt>
      <trkpt lat="45.89236" lon="3.58835">
        <ele>695.67</ele>
        <time>2020-08-14T16:36:28.999Z</time>
      </trkpt>
      <trkpt lat="45.89226" lon="3.58837">
        <ele>696.06</ele>
        <time>2020-08-14T16:36:34.999Z</time>
      </trkpt>
      <trkpt lat="45.89216" lon="3.58838">
        <ele>696.44</ele>
        <time>2020-08-14T16:36:40.999Z</time>
      </trkpt>
      <trkpt lat="45.89206" lon="3.5884">
        <ele>696.92</ele>
        <time>2020-08-14T16:36:48.999Z</time>
      </trkpt>
      <trkpt lat="45.89198" lon="3.58845">
        <ele>697.2</ele>
        <time>2020-08-14T16:36:53.999Z</time>
      </trkpt>
      <trkpt lat="45.89187" lon="3.58854">
        <ele>697.46</ele>
        <time>2020-08-14T16:36:58.999Z</time>
      </trkpt>
      <trkpt lat="45.89179" lon="3.5886">
        <ele>697.7</ele>
        <time>2020-08-14T16:37:03.999Z</time>
      </trkpt>
      <trkpt lat="45.89169" lon="3.58866">
        <ele>697.94</ele>
        <time>2020-08-14T16:37:08.999Z</time>
      </trkpt>
      <trkpt lat="45.8916" lon="3.58873">
        <ele>698.16</ele>
        <time>2020-08-14T16:37:13.999Z</time>
      </trkpt>
      <trkpt lat="45.89151" lon="3.58881">
        <ele>698.4</ele>
        <time>2020-08-14T16:37:18.999Z</time>
      </trkpt>
      <trkpt lat="45.89144" lon="3.58889">
        <ele>698.63</ele>
        <time>2020-08-14T16:37:23.999Z</time>
      </trkpt>
      <trkpt lat="45.89136" lon="3.58897">
        <ele>698.9</ele>
        <time>2020-08-14T16:37:29.999Z</time>
      </trkpt>
      <trkpt lat="45.8913" lon="3.58908">
        <ele>699.17</ele>
        <time>2020-08-14T16:37:35.999Z</time>
      </trkpt>
      <trkpt lat="45.89122" lon="3.58917">
        <ele>699.45</ele>
        <time>2020-08-14T16:37:41.999Z</time>
      </trkpt>
      <trkpt lat="45.89115" lon="3.58926">
        <ele>699.74</ele>
        <time>2020-08-14T16:37:47.999Z</time>
      </trkpt>
      <trkpt lat="45.89108" lon="3.58937">
        <ele>700.04</ele>
        <time>2020-08-14T16:37:53.999Z</time>
      </trkpt>
      <trkpt lat="45.89102" lon="3.58949">
        <ele>700.33</ele>
        <time>2020-08-14T16:37:59.999Z</time>
      </trkpt>
      <trkpt lat="45.89096" lon="3.5896">
        <ele>700.62</ele>
        <time>2020-08-14T16:38:05.999Z</time>
      </trkpt>
      <trkpt lat="45.89089" lon="3.58973">
        <ele>700.92</ele>
        <time>2020-08-14T16:38:11.999Z</time>
      </trkpt>
      <trkpt lat="45.89081" lon="3.58977">
        <ele>701.96</ele>
        <time>2020-08-14T16:38:57.999Z</time>
      </trkpt>
      <trkpt lat="45.89072" lon="3.58981">
        <ele>702.89</ele>
        <time>2020-08-14T16:39:47.999Z</time>
      </trkpt>
      <trkpt lat="45.89064" lon="3.58991">
        <ele>703.23</ele>
        <time>2020-08-14T16:39:53.999Z</time>
      </trkpt>
      <trkpt lat="45.89056" lon="3.58999">
        <ele>703.55</ele>
        <time>2020-08-14T16:39:59.999Z</time>
      </trkpt>
      <trkpt lat="45.89047" lon="3.59008">
        <ele>703.83</ele>
        <time>2020-08-14T16:40:05.999Z</time>
      </trkpt>
      <trkpt lat="45.89043" lon="3.59022">
        <ele>704.1</ele>
        <time>2020-08-14T16:40:11.999Z</time>
      </trkpt>
      <trkpt lat="45.89038" lon="3.59032">
        <ele>704.37</ele>
        <time>2020-08-14T16:40:17.999Z</time>
      </trkpt>
      <trkpt lat="45.89032" lon="3.59044">
        <ele>704.63</ele>
        <time>2020-08-14T16:40:23.999Z</time>
      </trkpt>
      <trkpt lat="45.89026" lon="3.59056">
        <ele>704.93</ele>
        <time>2020-08-14T16:40:30.999Z</time>
      </trkpt>
      <trkpt lat="45.89022" lon="3.59068">
        <ele>705.18</ele>
        <time>2020-08-14T16:40:36.999Z</time>
      </trkpt>
      <trkpt lat="45.89017" lon="3.59081">
        <ele>705.42</ele>
        <time>2020-08-14T16:40:42.999Z</time>
      </trkpt>
      <trkpt lat="45.89011" lon="3.59092">
        <ele>705.66</ele>
        <time>2020-08-14T16:40:48.999Z</time>
      </trkpt>
      <trkpt lat="45.89006" lon="3.59104">
        <ele>705.9</ele>
        <time>2020-08-14T16:40:54.999Z</time>
      </trkpt>
      <trkpt lat="45.89001" lon="3.59117">
        <ele>706.15</ele>
        <time>2020-08-14T16:41:00.999Z</time>
      </trkpt>
      <trkpt lat="45.88995" lon="3.59131">
        <ele>706.37</ele>
        <time>2020-08-14T16:41:05.999Z</time>
      </trkpt>
      <trkpt lat="45.88988" lon="3.59141">
        <ele>706.58</ele>
        <time>2020-08-14T16:41:10.999Z</time>
      </trkpt>
      <trkpt lat="45.8898" lon="3.59148">
        <ele>706.8</ele>
        <time>2020-08-14T16:41:15.999Z</time>
      </trkpt>
      <trkpt lat="45.88971" lon="3.59152">
        <ele>707.01</ele>
        <time>2020-08-14T16:41:20.999Z</time>
      </trkpt>
      <trkpt lat="45.88962" lon="3.59158">
        <ele>707.27</ele>
        <time>2020-08-14T16:41:26.999Z</time>
      </trkpt>
      <trkpt lat="45.88953" lon="3.59168">
        <ele>707.49</ele>
        <time>2020-08-14T16:41:31.999Z</time>
      </trkpt>
      <trkpt lat="45.88944" lon="3.59172">
        <ele>707.76</ele>
        <time>2020-08-14T16:41:37.999Z</time>
      </trkpt>
      <trkpt lat="45.88935" lon="3.59171">
        <ele>707.99</ele>
        <time>2020-08-14T16:41:42.999Z</time>
      </trkpt>
      <trkpt lat="45.88925" lon="3.59168">
        <ele>708.26</ele>
        <time>2020-08-14T16:41:48.999Z</time>
      </trkpt>
      <trkpt lat="45.88916" lon="3.59166">
        <ele>708.48</ele>
        <time>2020-08-14T16:41:53.999Z</time>
      </trkpt>
      <trkpt lat="45.88903" lon="3.59167">
        <ele>708.68</ele>
        <time>2020-08-14T16:41:58.999Z</time>
      </trkpt>
      <trkpt lat="45.88889" lon="3.59166">
        <ele>708.89</ele>
        <time>2020-08-14T16:42:03.999Z</time>
      </trkpt>
      <trkpt lat="45.88877" lon="3.59163">
        <ele>709.09</ele>
        <time>2020-08-14T16:42:08.999Z</time>
      </trkpt>
      <trkpt lat="45.88861" lon="3.59168">
        <ele>709.31</ele>
        <time>2020-08-14T16:42:13.999Z</time>
      </trkpt>
      <trkpt lat="45.88848" lon="3.59163">
        <ele>709.54</ele>
        <time>2020-08-14T16:42:18.999Z</time>
      </trkpt>
      <trkpt lat="45.88837" lon="3.59161">
        <ele>709.78</ele>
        <time>2020-08-14T16:42:23.999Z</time>
      </trkpt>
      <trkpt lat="45.88825" lon="3.59162">
        <ele>710.01</ele>
        <time>2020-08-14T16:42:28.999Z</time>
      </trkpt>
      <trkpt lat="45.8881" lon="3.59162">
        <ele>710.25</ele>
        <time>2020-08-14T16:42:33.999Z</time>
      </trkpt>
      <trkpt lat="45.88801" lon="3.59158">
        <ele>710.49</ele>
        <time>2020-08-14T16:42:38.999Z</time>
      </trkpt>
      <trkpt lat="45.88799" lon="3.59172">
        <ele>711.13</ele>
        <time>2020-08-14T16:43:00.999Z</time>
      </trkpt>
      <trkpt lat="45.88798" lon="3.59186">
        <ele>711.93</ele>
        <time>2020-08-14T16:43:13.999Z</time>
      </trkpt>
      <trkpt lat="45.88796" lon="3.59199">
        <ele>712.62</ele>
        <time>2020-08-14T16:43:23.999Z</time>
      </trkpt>
      <trkpt lat="45.88806" lon="3.59202">
        <ele>714.31</ele>
        <time>2020-08-14T16:44:08.999Z</time>
      </trkpt>
      <trkpt lat="45.88797" lon="3.59201">
        <ele>716.48</ele>
        <time>2020-08-14T16:46:57.000Z</time>
      </trkpt>
      <trkpt lat="45.88806" lon="3.592">
        <ele>722.2</ele>
        <time>2020-08-14T16:53:04.000Z</time>
      </trkpt>
      <trkpt lat="45.88806" lon="3.592">
        <ele>722.33</ele>
        <time>2020-08-14T16:53:07.000Z</time>
      </trkpt>
    </trkseg>
  </trk>
</gpx>